[[{"header":{"parameterUnit":"m.s-1","parameterCategory":1,"la1":31.0,"la2":29.5877,"lo1":-88.7671,"lo2":-86.6584,"dy":0.0162,"dx":0.0185,"nx":115,"ny":88,"refTime":"2023-05-20T12:00:00:Z","depth":0,"parameterNumber":2,"parameterNumberName":"U-component_of_WINDS"},"data":[0.0,0.0,0.0,0.0,0.0,0.0,0.0,0.0,0.0,0.0,0.0,0.0,0.0,0.0,0.0,0.0,0.0,0.0,0.0,0.0,0.0,0.0,0.0,0.0,0.0,0.0,0.0,0.0,0.0,0.0,0.0,0.0,0.0,0.0,0.0,0.0,0.0,0.0,0.0,0.0,0.0,0.0,0.0,0.0,0.0,0.0,0.0,0.0,0.0,0.0,0.0,0.0,0.0,0.0,0.0,0.0,0.0,0.0,0.0,0.0,0.0,0.0,0.0,0.0,0.0,0.0,0.0,0.0,0.0,0.0,0.0,0.0,0.0,0.0,0.0,0.0,0.0,0.0,0.0,0.0,0.0,0.0,0.0,0.0,0.0,0.0,0.0,0.0,0.0,0.0,0.0,0.0,0.0,0.0,0.0,0.0,0.0,0.0,0.0,0.0,0.0,0.0,0.0,0.0,0.0,0.0,0.0,0.0,0.0,0.0,0.0,0.0,0.0,0.0,0.0,0.0,0.0,0.0,0.0,0.0,0.0,0.0,0.0,0.0,0.0,0.0,0.0,0.0,0.0,0.0,0.0,0.0,0.0,0.0,0.0,0.0,0.0,0.0,0.0,0.0,0.0,0.0,0.0,0.0,0.0,0.0,0.0,0.0,0.0,0.0,0.0,0.0,0.0,0.0,0.0,0.0,0.0,0.0,0.0,0.0,0.0,0.0,0.0,0.0,0.0,0.0,0.0,0.0,0.0,0.0,0.0,0.0,0.0,0.0,0.0,0.0,0.0,0.0,0.0,0.0,0.0,0.0,0.0,0.0,0.0,0.0,0.0,0.0,0.0,0.0,0.0,0.0,0.0,0.0,0.0,0.0,0.0,0.0,0.0,0.0,0.0,0.0,0.0,0.0,0.0,0.0,0.0,0.0,0.0,0.0,0.0,0.0,0.0,0.0,0.0,0.0,0.0,0.0,0.0,0.0,0.0,0.0,0.0,0.0,0.0,0.0,0.0,0.0,0.0,0.0,0.0,0.0,0.0,0.0,0.0,0.0,0.0,0.0,0.0,0.0,0.0,0.0,0.0,0.0,0.0,0.0,0.0,0.0,0.0,0.0,0.0,0.0,0.0,0.0,0.0,0.0,0.0,0.0,0.0,0.0,0.0,0.0,0.0,0.0,0.0,0.0,0.0,0.0,0.0,0.0,0.0,0.0,0.0,0.0,0.0,0.0,0.0,0.0,0.0,0.0,0.0,0.0,0.0,0.0,0.0,0.0,0.0,0.0,0.0,0.0,0.0,0.0,0.0,0.0,0.0,0.0,0.0,0.0,0.0,0.0,0.0,0.0,0.0,0.0,0.0,0.0,0.0,0.0,0.0,0.0,0.0,0.0,0.0,0.0,0.0,0.0,0.0,0.0,0.0,0.0,0.0,0.0,0.0,0.0,0.0,0.0,0.0,0.0,0.0,0.0,0.0,0.0,0.0,0.0,0.0,0.0,0.0,0.0,0.0,0.0,0.0,0.0,0.0,0.0,0.0,0.0,0.0,0.0,0.0,0.0,0.0,0.0,0.0,0.0,0.0,0.0,0.0,0.0,0.0,0.0,0.0,0.0,0.0,0.0,0.0,0.0,0.0,0.0,0.0,0.0,0.0,0.0,0.0,0.0,0.0,0.0,0.0,0.0,0.0,0.0,0.0,0.0,0.0,0.0,0.0,0.0,0.0,0.0,0.0,0.0,0.0,0.0,0.0,0.0,0.0,0.0,0.0,0.0,0.0,0.0,0.0,0.0,0.0,0.0,0.0,0.0,0.0,0.0,0.0,0.0,0.0,0.0,0.0,0.0,0.0,0.0,0.0,0.0,0.0,0.0,0.0,0.0,0.0,0.0,0.0,0.0,0.0,0.0,0.0,0.0,0.0,0.0,0.0,0.0,0.0,0.0,0.0,0.0,0.0,0.0,0.0,0.0,0.0,0.0,0.0,0.0,0.0,0.0,0.0,0.0,0.0,0.0,0.0,0.0,0.0,0.0,0.0,0.0,0.0,0.0,0.0,0.0,0.0,0.0,0.0,0.0,0.0,0.0,0.0,0.0,0.0,0.0,0.0,0.0,0.0,0.0,0.0,0.0,0.0,0.0,0.0,0.0,0.0,0.0,0.0,0.0,0.0,0.0,0.0,0.0,0.0,0.0,0.0,0.0,0.0,0.0,0.0,0.0,0.0,0.0,0.0,0.0,0.0,0.0,0.0,0.0,0.0,0.0,0.0,0.0,0.0,0.0,0.0,0.0,0.0,0.0,0.0,0.0,0.0,0.0,0.0,0.0,0.0,0.0,0.0,0.0,0.0,0.0,0.0,0.0,0.0,0.0,0.0,0.0,0.0,0.0,0.0,0.0,0.0,0.0,0.0,0.0,0.0,0.0,0.0,0.0,0.0,0.0,0.0,0.0,0.0,0.0,0.0,0.0,0.0,0.0,0.0,0.0,0.0,0.0,0.0,0.0,0.0,0.0,0.0,0.0,0.0,0.0,0.0,0.0,0.0,0.0,0.0,0.0,0.0,0.0,0.0,0.0,0.0,0.0,0.0,0.0,0.0,0.0,0.0,0.0,0.0,0.0,0.0,0.0,0.0,0.0,0.0,0.0,0.0,0.0,0.0,0.0,0.0,0.0,0.0,0.0,0.0,0.0,0.0,0.0,0.0,0.0,0.0,0.0,0.0,0.0,0.0,0.0,0.0,0.0,0.0,0.0,0.0,0.0,0.0,0.0,0.0,0.0,0.0,0.0,0.0,0.0,0.0,0.0,0.0,0.0,0.0,0.0,0.0,0.0,0.0,0.0,0.0,0.0,0.0,0.0,0.0,0.0,0.0,0.0,0.0,0.0,0.0,0.0,0.0,0.0,0.0,0.0,0.0,0.0,0.0,0.0,0.0,0.0,0.0,0.0,0.0,0.0,0.0,0.0,0.0,0.0,0.0,0.0,0.0,0.0,0.0,0.0,0.0,0.0,0.0,0.0,0.0,0.0,0.0,0.0,0.0,0.0,0.0,0.0,0.0,0.0,0.0,0.0,0.0,0.0,0.0,0.0,0.0,0.0,0.0,0.0,0.0,0.0,0.0,0.0,0.0,0.0,0.0,0.0,0.0,0.0,0.0,0.0,0.0,0.0,0.0,0.0,0.0,0.0,0.0,0.0,0.0,0.0,0.0,0.0,0.0,0.0,0.0,0.0,0.0,0.0,0.0,0.0,0.0,0.0,0.0,0.0,0.0,0.0,0.0,0.0,0.0,0.0,0.0,0.0,0.0,0.0,0.0,0.0,0.0,0.0,0.0,0.0,0.0,0.0,0.0,0.0,0.0,0.0,0.0,0.0,0.0,0.0,0.0,0.0,0.0,0.0,0.0,0.0,0.0,0.0,0.0,0.0,0.0,0.0,0.0,0.0,0.0,0.0,0.0,0.0,0.0,0.0,0.0,0.0,0.0,0.0,0.0,0.0,0.0,0.0,0.0,0.0,0.0,0.0,0.0,0.0,0.0,0.0,0.0,0.0,0.0,0.0,0.0,0.0,0.0,0.0,0.0,0.0,0.0,0.0,0.0,0.0,0.0,0.0,0.0,0.0,0.0,0.0,0.0,0.0,0.0,0.0,0.0,0.0,0.0,0.0,0.0,0.0,0.0,0.0,0.0,0.0,0.0,0.0,0.0,0.0,0.0,0.0,0.0,0.0,0.0,0.0,0.0,0.0,0.0,0.0,0.0,0.0,0.0,0.0,0.0,0.0,0.0,0.0,0.0,0.0,0.0,0.0,0.0,0.0,0.0,0.0,0.0,0.0,0.0,0.0,0.0,0.0,0.0,0.0,0.0,0.0,0.0,0.0,0.0,0.0,0.0,0.0,0.0,0.0,0.0,0.0,0.0,0.0,0.0,0.0,0.0,0.0,0.0,0.0,0.0,0.0,0.0,0.0,0.0,0.0,0.0,0.0,0.0,0.0,0.0,0.0,0.0,0.0,0.0,0.0,0.0,0.0,0.0,0.0,0.0,0.0,0.0,0.0,0.0,0.0,0.0,0.0,0.0,0.0,0.0,0.0,0.0,0.0,0.0,0.0,0.0,0.0,0.0,0.0,0.0,0.0,0.0,0.0,0.0,0.0,0.0,0.0,0.0,0.0,0.0,0.0,0.0,0.0,0.0,0.0,0.0,0.0,0.0,0.0,0.0,0.0,0.0,0.0,0.0,0.0,0.0,0.0,0.0,0.0,0.0,0.0,0.0,0.0,0.0,0.0,0.0,0.0,2.8125,0.0,0.0,0.0,0.0,0.0,0.0,0.0,0.0,0.0,0.0,0.0,0.0,0.0,0.0,0.0,0.0,0.0,0.0,0.0,0.0,0.0,0.0,0.0,0.0,0.0,0.0,0.0,0.0,0.0,0.0,0.0,0.0,0.0,0.0,0.0,0.0,0.0,0.0,0.0,0.0,0.0,0.0,0.0,0.0,0.0,0.0,0.0,0.0,0.0,0.0,0.0,0.0,0.0,0.0,0.0,0.0,0.0,0.0,0.0,0.0,0.0,0.0,0.0,0.0,0.0,0.0,0.0,0.0,0.0,0.0,0.0,0.0,0.0,0.0,0.0,0.0,0.0,0.0,0.0,0.0,0.0,0.0,0.0,0.0,0.0,0.0,0.0,0.0,0.0,0.0,0.0,0.0,0.0,0.0,0.0,0.0,0.0,0.0,0.0,0.0,0.0,0.0,0.0,0.0,0.0,0.0,0.0,0.0,0.0,0.0,3.1246,3.0816,3.0877,3.0316,2.9036,0.0,0.0,0.0,0.0,0.0,0.0,0.0,0.0,0.0,0.0,0.0,0.0,0.0,0.0,0.0,0.0,0.0,0.0,0.0,0.0,0.0,0.0,0.0,0.0,0.0,0.0,0.0,0.0,0.0,0.0,0.0,0.0,0.0,0.0,0.0,0.0,0.0,0.0,0.0,0.0,0.0,0.0,0.0,0.0,0.0,0.0,0.0,0.0,0.0,0.0,0.0,0.0,0.0,0.0,0.0,0.0,0.0,0.0,0.0,0.0,0.0,0.0,0.0,0.0,0.0,0.0,0.0,0.0,0.0,0.0,0.0,0.0,0.0,0.0,0.0,0.0,0.0,0.0,0.0,0.0,0.0,0.0,0.0,0.0,0.0,0.0,0.0,0.0,0.0,0.0,0.0,0.0,0.0,0.0,0.0,0.0,0.0,0.0,0.0,0.0,0.0,0.0,0.0,0.0,0.0,0.0,0.0,0.0,0.0,0.0,0.0,0.0,3.1835,3.121,2.9335,0.0,0.0,0.0,0.0,0.0,0.0,0.0,0.0,0.0,0.0,0.0,0.0,0.0,0.0,0.0,0.0,0.0,0.0,0.0,0.0,0.0,0.0,0.0,0.0,0.0,0.0,0.0,0.0,0.0,0.0,0.0,0.0,0.0,0.0,0.0,0.0,0.0,0.0,0.0,0.0,0.0,0.0,0.0,0.0,0.0,0.0,0.0,0.0,0.0,0.0,0.0,0.0,0.0,0.0,0.0,0.0,0.0,0.0,0.0,0.0,0.0,0.0,0.0,0.0,0.0,0.0,0.0,0.0,0.0,0.0,0.0,0.0,0.0,0.0,0.0,0.0,0.0,0.0,0.0,0.0,0.0,0.0,0.0,0.0,0.0,0.0,0.0,0.0,0.0,0.0,0.0,0.0,0.0,0.0,0.0,0.0,0.0,0.0,0.0,0.0,0.0,0.0,0.0,0.0,0.0,0.0,0.0,0.0,0.0,0.0,3.2402,3.3046,3.2436,0.0,2.8496,0.0,0.0,0.0,0.0,0.0,0.0,0.0,0.0,0.0,0.0,0.0,0.0,0.0,0.0,0.0,0.0,0.0,0.0,0.0,0.0,0.0,0.0,0.0,0.0,0.0,0.0,0.0,0.0,0.0,0.0,0.0,0.0,0.0,0.0,0.0,0.0,0.0,0.0,0.0,0.0,0.0,0.0,0.0,0.0,0.0,0.0,0.0,0.0,0.0,0.0,0.0,0.0,0.0,0.0,0.0,0.0,0.0,0.0,0.0,0.0,0.0,0.0,0.0,0.0,0.0,0.0,0.0,0.0,0.0,0.0,0.0,0.0,0.0,0.0,0.0,0.0,0.0,0.0,0.0,0.0,0.0,0.0,0.0,0.0,0.0,0.0,0.0,0.0,0.0,0.0,0.0,0.0,0.0,0.0,0.0,0.0,0.0,0.0,0.0,0.0,0.0,0.0,0.0,0.0,0.0,0.0,0.0,0.0,0.0,0.0,3.2902,3.3193,3.2376,3.0736,0.0,0.0,0.0,0.0,0.0,0.0,0.0,0.0,0.0,0.0,0.0,0.0,0.0,0.0,0.0,0.0,0.0,0.0,0.0,0.0,0.0,0.0,0.0,0.0,0.0,0.0,0.0,0.0,0.0,0.0,0.0,0.0,0.0,0.0,0.0,0.0,0.0,0.0,0.0,0.0,0.0,0.0,0.0,0.0,0.0,0.0,0.0,0.0,0.0,0.0,0.0,0.0,0.0,0.0,0.0,0.0,0.0,0.0,0.0,0.0,0.0,0.0,0.0,0.0,0.0,0.0,0.0,0.0,0.0,0.0,0.0,0.0,0.0,0.0,0.0,0.0,0.0,0.0,0.0,0.0,0.0,0.0,0.0,0.0,0.0,0.0,0.0,0.0,0.0,0.0,0.0,0.0,0.0,0.0,0.0,0.0,0.0,0.0,0.0,0.0,0.0,0.0,0.0,0.0,0.0,0.0,0.0,0.0,0.0,0.0,3.2705,3.3064,3.2957,3.2396,3.078,2.8073,0.0,0.0,0.0,0.0,0.0,0.0,0.0,0.0,0.0,0.0,0.0,0.0,0.0,0.0,0.0,0.0,0.0,0.0,0.0,0.0,0.0,0.0,0.0,0.0,0.0,0.0,0.0,0.0,0.0,0.0,0.0,0.0,0.0,0.0,0.0,0.0,0.0,0.0,0.0,0.0,0.0,0.0,0.0,0.0,0.0,0.0,0.0,0.0,0.0,0.0,0.0,0.0,0.0,0.0,0.0,0.0,0.0,0.0,0.0,0.0,0.0,0.0,0.0,0.0,0.0,0.0,0.0,0.0,0.0,0.0,0.0,0.0,0.0,0.0,0.0,0.0,0.0,0.0,0.0,0.0,0.0,0.0,0.0,0.0,0.0,0.0,0.0,0.0,0.0,0.0,0.0,0.0,0.0,0.0,0.0,0.0,0.0,0.0,0.0,0.0,0.0,0.0,0.0,0.0,0.0,0.0,0.0,0.0,3.167,3.2513,3.2833,3.2683,3.2683,3.1098,0.0,0.0,0.0,0.0,0.0,0.0,0.0,0.0,0.0,0.0,0.0,0.0,0.0,0.0,0.0,0.0,0.0,0.0,0.0,0.0,0.0,0.0,0.0,0.0,0.0,0.0,0.0,0.0,0.0,0.0,0.0,0.0,0.0,0.0,0.0,0.0,0.0,0.0,0.0,0.0,0.0,0.0,0.0,0.0,0.0,0.0,0.0,0.0,0.0,0.0,0.0,0.0,0.0,0.0,0.0,0.0,0.0,0.0,0.0,0.0,0.0,0.0,0.0,0.0,0.0,0.0,0.0,0.0,0.0,0.0,0.0,0.0,0.0,0.0,0.0,0.0,0.0,0.0,0.0,0.0,0.0,0.0,0.0,0.0,0.0,0.0,0.0,0.0,0.0,0.0,0.0,0.0,0.0,0.0,0.0,0.0,0.0,0.0,0.0,0.0,0.0,0.0,0.0,0.0,0.0,0.0,0.0,0.0,0.0,3.1366,3.2057,3.21,3.1516,3.1443,3.0135,0.0,0.0,0.0,0.0,0.0,0.0,0.0,0.0,0.0,0.0,0.0,0.0,0.0,0.0,0.0,0.0,0.0,0.0,0.0,0.0,0.0,0.0,0.0,0.0,0.0,0.0,0.0,0.0,0.0,0.0,0.0,0.0,0.0,0.0,0.0,0.0,0.0,0.0,0.0,0.0,0.0,0.0,0.0,0.0,0.0,0.0,0.0,0.0,0.0,0.0,0.0,0.0,0.0,0.0,0.0,0.0,0.0,0.0,0.0,0.0,0.0,0.0,0.0,0.0,0.0,0.0,0.0,0.0,0.0,0.0,0.0,0.0,0.0,0.0,0.0,0.0,0.0,0.0,0.0,0.0,0.0,0.0,0.0,0.0,0.0,0.0,0.0,0.0,0.0,0.0,0.0,0.0,0.0,0.0,0.0,0.0,0.0,0.0,0.0,0.0,0.0,0.0,0.0,0.0,0.0,0.0,0.0,0.0,0.0,3.088,0.0,3.1049,3.0448,3.0368,2.9219,0.0,0.0,0.0,0.0,0.0,0.0,0.0,0.0,0.0,0.0,0.0,0.0,0.0,0.0,0.0,0.0,0.0,0.0,0.0,0.0,0.0,0.0,0.0,0.0,0.0,0.0,0.0,0.0,0.0,0.0,0.0,0.0,0.0,0.0,0.0,0.0,0.0,0.0,0.0,0.0,0.0,0.0,0.0,0.0,0.0,0.0,0.0,0.0,0.0,0.0,0.0,0.0,0.0,0.0,0.0,0.0,0.0,0.0,0.0,0.0,0.0,0.0,0.0,0.0,0.0,0.0,0.0,0.0,0.0,0.0,0.0,0.0,0.0,0.0,0.0,0.0,0.0,0.0,0.0,0.0,0.0,0.0,0.0,0.0,0.0,0.0,0.0,0.0,0.0,0.0,0.0,0.0,0.0,0.0,0.0,0.0,0.0,0.0,0.0,0.0,0.0,0.0,0.0,0.0,0.0,0.0,0.0,0.0,2.8241,3.0093,2.9923,2.9715,2.9574,2.9547,2.8453,0.0,0.0,0.0,0.0,0.0,0.0,0.0,0.0,0.0,0.0,0.0,0.0,0.0,0.0,0.0,0.0,0.0,0.0,0.0,0.0,0.0,0.0,0.0,0.0,0.0,0.0,0.0,0.0,0.0,0.0,0.0,0.0,0.0,0.0,0.0,0.0,0.0,0.0,0.0,0.0,0.0,0.0,0.0,0.0,0.0,0.0,0.0,0.0,0.0,0.0,0.0,0.0,0.0,0.0,0.0,0.0,0.0,0.0,0.0,0.0,0.0,0.0,0.0,0.0,0.0,0.0,0.0,0.0,0.0,0.0,0.0,0.0,0.0,0.0,0.0,0.0,0.0,0.0,0.0,0.0,0.0,0.0,0.0,0.0,0.0,0.0,0.0,0.0,0.0,0.0,0.0,0.0,0.0,0.0,0.0,0.0,0.0,0.0,0.0,0.0,0.0,0.0,0.0,0.0,0.0,0.0,0.0,0.0,0.0,2.8952,2.8692,2.8429,2.8288,2.8207,2.7165,0.0,0.0,0.0,0.0,0.0,0.0,0.0,0.0,0.0,0.0,0.0,0.0,0.0,0.0,0.0,0.0,0.0,0.0,0.0,0.0,0.0,0.0,0.0,0.0,0.0,0.0,0.0,0.0,0.0,0.0,0.0,0.0,0.0,0.0,0.0,0.0,0.0,0.0,0.0,0.0,0.0,0.0,0.0,0.0,0.0,0.0,0.0,0.0,0.0,0.0,0.0,0.0,0.0,0.0,0.0,0.0,0.0,0.0,0.0,0.0,0.0,0.0,0.0,0.0,0.0,0.0,0.0,0.0,0.0,0.0,0.0,0.0,0.0,0.0,0.0,0.0,0.0,0.0,0.0,0.0,0.0,0.0,0.0,0.0,0.0,0.0,0.0,0.0,0.0,0.0,0.0,0.0,0.0,0.0,0.0,0.0,0.0,0.0,0.0,0.0,0.0,0.0,0.0,0.0,0.0,0.0,0.0,0.0,0.0,2.7473,2.7394,2.7163,2.6879,2.6542,2.557,2.3816,0.0,0.0,0.0,0.0,0.0,0.0,0.0,0.0,0.0,0.0,0.0,0.0,0.0,0.0,0.0,0.0,0.0,0.0,0.0,0.0,0.0,0.0,0.0,0.0,0.0,0.0,0.0,0.0,0.0,0.0,0.0,0.0,0.0,0.0,0.0,0.0,0.0,0.0,0.0,0.0,0.0,0.0,0.0,0.0,0.0,0.0,0.0,0.0,0.0,0.0,0.0,0.0,0.0,0.0,0.0,0.0,0.0,0.0,0.0,0.0,0.0,0.0,0.0,0.0,0.0,0.0,0.0,0.0,0.0,0.0,0.0,0.0,0.0,0.0,0.0,0.0,0.0,0.0,0.0,0.0,0.0,0.0,0.0,0.0,0.0,0.0,0.0,0.0,0.0,0.0,0.0,0.0,0.0,0.0,0.0,0.0,0.0,0.0,0.0,0.0,0.0,0.0,0.0,0.0,0.0,0.0,0.0,0.0,2.57,2.5908,2.5773,2.5377,2.4702,2.3729,0.0,0.0,0.0,0.0,0.0,0.0,0.0,0.0,0.0,0.0,0.0,0.0,0.0,0.0,0.0,0.0,0.0,0.0,0.0,0.0,0.0,0.0,0.0,0.0,0.0,0.0,0.0,0.0,0.0,0.0,0.0,0.0,0.0,0.0,0.0,0.0,0.0,0.0,0.0,0.0,0.0,0.0,0.0,0.0,0.0,0.0,0.0,0.0,0.0,0.0,0.0,0.0,0.0,0.0,0.0,0.0,0.0,0.0,0.0,0.0,0.0,0.0,0.0,0.0,0.0,0.0,0.0,0.0,0.0,0.0,0.0,0.0,0.0,0.0,0.0,0.0,0.0,0.0,0.0,0.0,0.0,0.0,0.0,0.0,0.0,0.0,0.0,0.0,0.0,0.0,0.0,0.0,0.0,0.0,0.0,0.0,0.0,0.0,0.0,0.0,0.0,0.0,0.0,0.0,0.0,0.0,0.0,0.0,0.0,2.2328,2.225,2.272,2.3769,2.3017,2.1732,0.0,0.0,0.0,0.0,0.0,0.0,0.0,0.0,0.0,0.0,0.0,0.0,0.0,0.0,0.0,0.0,0.0,0.0,0.0,0.0,0.0,0.0,0.0,0.0,0.0,0.0,0.0,0.0,0.0,0.0,0.0,0.0,0.0,0.0,0.0,0.0,0.0,0.0,0.0,0.0,0.0,0.0,0.0,0.0,0.0,0.0,0.0,0.0,0.0,0.0,0.0,0.0,0.0,0.0,0.0,0.0,0.0,0.0,0.0,0.0,0.0,0.0,0.0,0.0,0.0,0.0,0.0,0.0,0.0,0.0,0.0,0.0,0.0,0.0,0.0,0.0,0.0,0.0,0.0,0.0,0.0,0.0,0.0,0.0,0.0,0.0,0.0,0.0,0.0,0.0,0.0,0.0,0.0,0.0,0.0,0.0,0.0,0.0,0.0,0.0,0.0,0.0,0.0,0.0,0.0,0.0,0.0,0.0,2.0369,1.9281,1.866,1.8466,1.8765,1.9264,1.8788,0.0,0.0,0.0,0.0,0.0,0.0,0.0,0.0,0.0,0.0,0.0,0.0,0.0,0.0,0.0,0.0,0.0,0.0,0.0,0.0,0.0,0.0,0.0,0.0,0.0,0.0,0.0,0.0,0.0,0.0,0.0,0.0,0.0,0.0,0.0,0.0,0.0,0.0,0.0,0.0,0.0,0.0,0.0,0.0,0.0,0.0,0.0,0.0,0.0,0.0,0.0,0.0,0.0,0.0,0.0,0.0,0.0,0.0,0.0,0.0,0.0,0.0,0.0,0.0,0.0,0.0,0.0,0.0,0.0,0.0,0.0,0.0,0.0,0.0,0.0,0.0,0.0,0.0,0.0,0.0,0.0,0.0,0.0,0.0,0.0,0.0,0.0,0.0,0.0,0.0,0.0,0.0,0.0,0.0,0.0,0.0,0.0,0.0,0.0,0.0,0.0,0.0,0.0,0.0,0.0,0.0,0.0,0.0,1.7111,1.6499,1.501,1.344,1.1924,1.4363,1.5123,0.0,0.0,0.0,0.0,0.0,0.0,0.0,0.0,0.0,0.0,0.0,0.0,0.0,0.0,0.0,0.0,0.0,0.0,0.0,0.0,0.0,0.0,0.0,0.0,0.0,0.0,0.0,0.0,0.0,0.0,0.0,0.0,0.0,0.0,0.0,0.0,0.0,0.0,0.0,0.0,0.0,0.0,0.0,0.0,0.0,0.0,0.0,0.0,0.0,0.0,0.0,0.0,0.0,0.0,0.0,0.0,0.0,0.0,0.0,0.0,0.0,0.0,0.0,0.0,0.0,0.0,0.0,0.0,0.0,0.0,0.0,0.0,0.0,0.0,0.0,0.0,0.0,0.0,0.0,0.0,0.0,0.0,0.0,0.0,0.0,0.0,0.0,0.0,0.0,0.0,0.0,0.0,0.0,0.0,0.0,0.0,0.0,0.0,0.0,0.0,0.0,0.0,0.0,0.0,0.0,0.0,0.0,0.0,1.381,1.3903,1.1073,0.8729,0.7101,1.0285,1.1313,0.0,0.0,0.0,0.0,0.0,0.0,0.0,0.0,0.0,0.0,0.0,0.0,0.0,0.0,0.0,0.0,0.0,0.0,0.0,0.0,0.0,0.0,0.0,0.0,0.0,0.0,0.0,0.0,0.0,0.0,0.0,0.0,0.0,0.0,0.0,0.0,0.0,0.0,0.0,0.0,0.0,0.0,0.0,0.0,0.0,0.0,0.0,0.0,-2.513,0.0,0.0,0.0,0.0,0.0,0.0,0.0,0.0,0.0,0.0,0.0,0.0,0.0,0.0,0.0,0.0,0.0,0.0,0.0,0.0,0.0,0.0,0.0,0.0,0.0,0.0,0.0,0.0,0.0,0.0,0.0,0.0,0.0,0.0,0.0,0.0,0.0,0.0,0.0,0.0,0.0,0.0,0.0,0.0,0.0,0.0,0.0,0.0,0.0,0.0,0.0,0.0,0.0,0.0,0.0,0.0,0.0,0.0,0.0,0.8978,0.8277,0.5893,0.3896,0.2552,0.3836,0.5052,0.0,0.0,0.0,0.0,0.0,0.0,0.0,0.0,0.0,0.0,0.0,0.0,0.0,0.0,0.0,0.0,0.0,0.0,0.0,0.0,0.0,0.0,0.0,0.0,0.0,0.0,0.0,0.0,0.0,0.0,0.0,0.0,0.0,0.0,0.0,0.0,0.0,0.0,0.0,0.0,0.0,0.0,0.0,0.0,0.0,0.0,0.0,0.0,0.0,0.0,0.0,0.0,0.0,0.0,0.0,0.0,0.0,0.0,0.0,0.0,0.0,0.0,0.0,0.0,0.0,0.0,0.0,0.0,0.0,0.0,0.0,0.0,0.0,0.0,0.0,0.0,0.0,0.0,0.0,0.0,0.0,0.0,0.0,0.0,0.0,0.0,0.0,0.0,0.0,0.0,0.0,0.0,0.0,0.0,0.0,0.0,0.0,0.0,0.0,0.0,0.0,0.0,0.0,0.0,0.0,0.0,0.0,0.5551,0.3738,0.1727,0.0428,-0.0956,-0.24,-0.2854,-0.1843,0.0892,0.0,0.0,0.0,0.0,0.0,0.0,0.0,0.0,0.0,0.0,0.0,0.0,0.0,0.0,0.0,0.0,0.0,0.0,0.0,0.0,0.0,0.0,0.0,0.0,0.0,0.0,0.0,0.0,0.0,0.0,0.0,0.0,0.0,0.0,0.0,0.0,0.0,0.0,0.1695,-0.8133,0.0,0.0,0.0,0.0,0.0,0.0,0.0,0.0,-2.6024,0.0,0.0,0.0,0.0,0.0,0.0,0.0,0.0,0.0,0.0,0.0,0.0,0.0,0.0,0.0,0.0,0.0,0.0,0.0,0.0,0.0,0.0,0.0,0.0,0.0,0.0,0.0,0.0,0.0,0.0,0.0,0.0,0.0,0.0,0.0,0.0,0.0,0.0,0.0,0.0,0.0,0.0,0.0,0.0,0.0,0.0,0.0,0.0,0.0,0.0,0.0,0.0,0.0,0.0,0.0,0.0,0.3371,0.1532,-0.0693,-0.3217,-0.4155,-0.5761,-0.7924,-0.7156,-0.6347,-0.5448,0.0,0.0,0.0,0.0,0.0,0.0,0.0,0.0,0.0,0.0,0.0,0.0,0.0,0.0,0.0,0.0,0.0,0.0,0.0,0.0,0.0,0.0,0.0,0.0,0.0,0.0,0.0,0.0,0.0,0.0,0.0,0.0,0.0,0.0,0.0,0.0,0.0,0.0,0.0,-1.223,-1.7769,0.0,0.0,0.0,0.0,0.0,0.0,0.0,0.0,-2.5265,0.0,0.0,0.0,0.0,0.0,0.0,0.0,0.0,0.0,0.0,0.0,0.0,0.0,0.0,0.0,0.0,0.0,0.0,0.0,0.0,0.0,0.0,0.0,0.0,0.0,0.0,0.0,0.0,0.0,0.0,0.0,0.0,0.0,0.0,0.0,0.0,0.0,0.0,0.0,0.0,0.0,0.0,0.0,0.0,0.0,0.0,0.0,0.0,0.0,0.0,0.0,0.0,0.0,0.0,0.0,-0.0142,-0.2123,-0.4134,-0.626,-0.7405,-0.8543,-0.972,-0.924,-0.8875,0.0,0.0,0.0,0.0,0.0,0.0,0.0,0.0,0.0,0.0,0.0,0.0,0.0,0.0,0.0,0.0,0.0,0.0,0.0,0.0,0.0,0.0,0.0,0.0,0.0,0.0,0.0,0.0,0.0,0.0,0.0,0.0,0.0,0.0,0.0,0.0,0.0,0.0,0.0,0.0,-1.4287,-1.9117,-2.4081,0.0,0.0,0.0,0.0,0.0,0.0,-2.6202,-2.557,0.0,0.0,0.0,0.0,0.0,0.0,0.0,0.0,0.0,0.0,0.0,0.0,0.0,0.0,0.0,0.0,0.0,0.0,0.0,0.0,0.0,0.0,0.0,0.0,0.0,0.0,0.0,0.0,0.0,0.0,0.0,0.0,0.0,0.0,0.0,0.0,0.0,0.0,0.0,0.0,0.0,0.0,0.0,0.0,0.0,0.0,0.0,0.0,0.0,0.0,0.0,0.0,0.0,0.0,0.0,-0.3754,-0.54,-0.7053,-0.8581,-0.9836,-1.0502,-1.0623,-1.0697,-1.0487,0.0,0.0,0.0,0.0,0.0,0.0,0.0,0.0,0.0,0.0,0.0,0.0,0.0,0.0,0.0,0.0,0.0,0.0,0.0,0.0,0.0,0.0,0.0,0.0,0.0,0.0,0.0,0.0,0.0,0.0,0.0,0.0,0.0,0.0,0.0,0.0,0.0,0.0,0.0,0.0,0.0,-2.0295,-2.4297,-2.5581,0.0,0.0,0.0,0.0,-2.7175,-2.6473,0.0,0.0,0.0,0.0,0.0,0.0,0.0,0.0,0.0,0.0,0.0,0.0,0.0,0.0,0.0,0.0,0.0,0.0,0.0,0.0,0.0,0.0,0.0,0.0,0.0,0.0,0.0,0.0,0.0,0.0,0.0,0.0,0.0,0.0,0.0,0.0,0.0,0.0,0.0,0.0,0.0,0.0,0.0,0.0,0.0,0.0,0.0,0.0,0.0,0.0,0.0,0.0,0.0,0.0,0.0,0.0,-0.7678,-0.8209,-0.9222,-1.0674,-1.163,-1.2222,-1.242,-1.214,-1.1729,0.0,0.0,0.0,0.0,0.0,0.0,0.0,0.0,0.0,0.0,0.0,0.0,0.0,0.0,0.0,0.0,0.0,0.0,0.0,0.0,0.0,0.0,0.0,0.0,0.0,0.0,0.0,0.0,0.0,0.0,0.0,0.0,0.0,0.0,0.0,0.0,0.0,0.0,0.0,0.0,0.0,-2.0852,-2.3443,-2.4956,-2.5938,0.0,0.0,-2.6351,-2.6351,-2.6144,0.0,0.0,0.0,0.0,0.0,0.0,0.0,0.0,0.0,0.0,0.0,0.0,0.0,0.0,0.0,0.0,0.0,0.0,0.0,0.0,0.0,0.0,0.0,0.0,0.0,0.0,0.0,0.0,0.0,0.0,0.0,0.0,0.0,0.0,0.0,0.0,0.0,0.0,0.0,0.0,0.0,0.0,0.0,0.0,0.0,0.0,0.0,0.0,0.0,0.0,0.0,0.0,0.0,0.0,0.0,-0.6166,-0.8648,-0.9287,-1.0263,-1.1518,-1.2251,-1.2611,-1.2684,-1.2315,-1.1888,0.0,0.0,0.0,0.0,0.0,0.0,0.0,0.0,0.0,0.0,0.0,0.0,0.0,0.0,0.0,0.0,0.0,0.0,0.0,0.0,0.0,0.0,0.0,0.0,0.0,0.0,0.0,0.0,0.0,0.0,0.0,0.0,0.0,0.0,0.0,0.0,0.0,0.0,0.0,0.0,0.0,0.0,-2.3273,-2.4389,0.0,0.0,0.0,-2.5449,-2.5449,0.0,0.0,0.0,0.0,0.0,0.0,0.0,0.0,0.0,0.0,0.0,0.0,0.0,0.0,0.0,0.0,0.0,0.0,0.0,0.0,0.0,0.0,0.0,0.0,0.0,0.0,0.0,0.0,0.0,0.0,0.0,0.0,0.0,0.0,0.0,0.0,0.0,0.0,0.0,0.0,0.0,0.0,0.0,0.0,0.0,0.0,0.0,0.0,0.0,0.0,0.0,0.0,0.0,0.0,0.0,0.0,0.0,-0.913,-0.994,-1.0853,-1.1846,-1.2361,-1.2598,-1.2598,-1.2161,0.0,0.0,0.0,0.0,0.0,0.0,0.0,0.0,0.0,0.0,0.0,0.0,0.0,0.0,0.0,0.0,0.0,0.0,0.0,0.0,0.0,0.0,0.0,0.0,0.0,0.0,0.0,0.6983,0.0,0.0,0.0,0.0,0.0,0.0,0.0,0.0,0.0,0.0,0.0,0.0,0.0,0.0,-2.1197,-2.3112,-2.3779,-2.4184,0.0,0.0,-2.4679,-2.4679,-2.4599,-2.4517,0.0,0.0,0.0,0.0,0.0,0.0,0.0,0.0,0.0,0.0,0.0,0.0,0.0,0.0,0.0,0.0,0.0,0.0,0.0,0.0,0.0,0.0,0.0,0.0,0.0,0.0,0.0,0.0,0.0,0.0,0.0,0.0,0.0,0.0,0.0,0.0,0.0,0.0,0.0,0.0,0.0,0.0,0.0,0.0,0.0,0.0,0.0,0.0,0.0,0.0,0.0,0.0,0.0,0.0,-0.8448,-0.9722,-1.0516,-1.1206,-1.1788,-1.2133,-1.2359,-1.2283,-1.185,-1.1469,0.0,0.0,0.0,0.0,0.0,0.0,0.0,0.0,0.0,0.0,0.0,0.0,0.0,0.0,0.0,0.0,0.0,0.0,0.0,0.0,0.0,0.0,0.0,0.0,0.0,0.0,0.0,0.0,0.0,0.0,0.0,0.0,0.0,0.0,0.0,0.0,0.0,0.0,0.0,0.0,0.0,-2.1202,-2.2548,-2.3039,-2.3348,0.0,-2.3882,-2.4067,-2.4067,-2.3925,-2.3824,-2.3681,0.0,0.0,0.0,0.0,0.0,0.0,0.0,0.0,0.0,0.0,0.0,0.0,0.0,0.0,0.0,0.0,0.0,0.0,0.0,0.0,0.0,0.0,0.0,0.0,0.0,0.0,0.0,0.0,0.0,0.0,0.0,0.0,0.0,0.0,0.0,0.0,0.0,0.0,0.0,0.0,0.0,0.0,0.0,0.0,0.0,0.0,0.0,0.0,0.0,0.0,0.0,0.0,0.0,-0.9174,-1.0098,-1.0597,-1.1067,-1.1514,-1.1706,-1.1762,-1.1696,-1.1379,-1.1039,0.0,0.0,0.0,0.0,0.0,0.0,0.0,0.0,0.0,0.0,0.0,0.0,0.0,0.0,0.0,0.0,0.0,0.0,0.0,0.0,0.0,0.0,0.0,0.0,0.0,0.0,0.0,0.0,0.167,0.0334,-0.1384,0.0,0.0,0.0,0.0,0.0,0.0,0.0,0.0,0.0,0.0,-2.0797,-2.1979,-2.2388,0.0,0.0,-2.3054,-2.3157,-2.3113,-2.3098,-2.3009,-2.2768,-2.2586,0.0,0.0,0.0,0.0,0.0,0.0,0.0,0.0,0.0,0.0,0.0,0.0,0.0,0.0,0.0,0.0,0.0,0.0,0.0,0.0,0.0,0.0,0.0,0.0,0.0,0.0,0.0,0.0,0.0,0.0,0.0,0.0,0.0,0.0,0.0,0.0,0.0,0.0,0.0,0.0,0.0,0.0,0.0,0.0,0.0,0.0,0.0,0.0,0.0,0.0,0.0,0.0,-0.9727,-1.0358,-1.0681,-1.0973,-1.1251,-1.1251,-1.1187,-1.1064,-1.0862,-1.0503,0.0,0.0,0.0,0.0,0.0,0.0,0.0,0.0,0.0,0.0,0.0,0.0,0.0,0.0,0.0,0.0,0.0,0.0,0.0,0.0,0.0,0.0,0.0,0.0,0.0,0.0,0.0,0.0,-0.0669,-0.2004,-0.3721,0.0,0.0,0.0,0.0,0.0,0.0,0.0,0.0,0.0,0.0,-2.0334,-2.1293,-2.1684,-2.1935,-2.2142,-2.2282,-2.2374,-2.2282,-2.2282,-2.2249,-2.1983,0.0,0.0,0.0,0.0,0.0,0.0,0.0,0.0,0.0,0.0,0.0,0.0,0.0,0.0,0.0,0.0,0.0,0.0,0.0,0.0,0.0,0.0,0.0,0.0,0.0,0.0,0.0,0.0,0.0,0.0,-1.1704,0.0,0.0,0.0,0.0,0.0,0.0,0.0,0.0,0.0,0.0,0.0,0.0,0.0,0.0,0.0,0.0,0.0,0.0,0.0,0.0,0.0,0.0,-0.986,-1.0548,-1.0744,-1.0877,-1.108,-1.0758,-1.0638,-1.0581,-1.0251,-0.9856,-0.9518,0.0,0.0,0.0,0.0,0.0,0.0,0.0,0.0,0.0,0.0,0.0,0.0,0.0,0.0,0.0,0.0,0.0,0.0,0.0,0.0,0.0,0.0,0.0,0.0,0.0,0.0,-0.0838,-0.2961,-0.4581,0.0,0.0,0.0,0.0,0.0,0.0,0.0,0.0,0.0,0.0,-1.9193,-1.9991,-2.056,-2.0845,-2.1091,-2.1361,-2.165,-2.1793,-2.1793,-2.1616,-2.141,0.0,0.0,0.0,0.0,0.0,0.0,0.0,0.0,0.0,0.0,0.0,0.0,0.0,0.0,0.0,0.0,0.0,0.0,0.0,0.0,0.0,0.0,0.0,0.0,0.0,0.0,0.0,-1.168,-1.1543,0.0,0.0,0.0,0.0,0.0,0.0,0.0,0.0,0.0,0.0,0.0,-1.1853,-1.2032,0.0,0.0,0.0,0.0,0.0,0.0,0.0,0.0,0.0,0.0,0.0,0.0,-0.9973,-1.0528,-1.0618,-1.0618,-1.0555,-1.0434,-1.0308,-1.006,-0.9926,-0.9664,-0.9204,0.0,0.0,0.0,0.0,0.0,0.0,0.0,0.0,0.0,0.0,0.0,0.0,0.0,0.0,0.0,0.0,0.0,0.0,0.0,0.0,0.0,0.0,0.0,0.0,0.0,-0.1899,0.0,0.0,0.0,0.0,0.0,0.0,0.0,0.0,0.0,0.0,0.0,-1.6994,-1.794,-1.859,-1.9162,-1.9734,-2.0042,-2.0308,0.0,0.0,0.0,0.0,0.0,0.0,0.0,0.0,0.0,0.0,0.0,0.0,0.0,0.0,-1.7291,-1.7511,-1.7401,-1.7357,-1.7424,0.0,0.0,0.0,0.0,0.0,0.0,0.0,0.0,0.0,0.0,0.0,0.0,0.0,0.0,-1.2067,0.0,-1.1993,0.0,0.0,0.0,0.0,0.0,0.0,0.0,0.0,-1.1908,-1.2083,-1.2218,-1.2448,-1.2621,0.0,-1.2321,-1.1972,0.0,0.0,0.0,0.0,0.0,0.0,0.0,0.0,-0.9986,-1.0388,-1.0514,-1.0504,-1.0301,-1.018,-1.006,-0.9804,-0.9606,-0.935,-0.8958,-0.84,-0.7896,0.0,0.0,0.0,0.0,0.0,0.0,0.0,0.0,0.0,0.0,0.0,0.0,0.0,0.0,0.0,0.0,0.0,0.0,0.0,0.0,0.0,0.0,0.0,-0.313,0.0,0.0,0.0,0.0,0.0,0.0,0.0,0.0,0.0,-1.4687,-1.5729,-1.674,-1.749,-1.7963,-1.8363,-1.8898,0.0,0.0,0.0,0.0,0.0,0.0,0.0,-1.9798,-1.9423,-1.9174,-1.8845,-1.8178,-1.7424,-1.6821,-1.6368,0.0,0.0,-1.6637,-1.6578,-1.6518,-1.6595,-1.6448,-1.6237,-1.6039,-1.5795,-1.5562,0.0,0.0,0.0,0.0,0.0,0.0,0.0,0.0,-1.2613,-1.2605,0.0,-1.2597,0.0,0.0,0.0,0.0,0.0,-1.1686,0.0,0.0,-1.1976,-1.2226,-1.2544,-1.256,-1.256,-1.256,-1.2552,-1.2482,-1.2235,-1.1156,0.0,0.0,0.0,0.0,0.0,0.0,-0.9989,-1.01,-1.0414,-1.0498,-1.0288,-0.9996,-0.9868,-0.974,-0.928,-0.8958,-0.8765,-0.8233,-0.7856,-0.7721,-0.6953,0.0,0.0,0.0,0.0,0.0,0.0,0.0,0.0,0.0,0.0,0.0,0.0,0.0,0.0,0.0,0.0,0.0,0.0,0.0,0.0,-0.3081,0.0,0.0,0.0,0.0,0.0,0.0,0.0,0.0,0.0,0.0,-1.4684,-1.5556,-1.6285,-1.6899,0.0,0.0,0.0,0.0,-1.8786,-1.8946,-1.9206,-1.9325,-1.9174,-1.9028,-1.8827,-1.8471,0.0,0.0,-1.6877,-1.6368,-1.5901,-1.5449,-1.5187,-1.5264,-1.5676,-1.578,-1.581,-1.5823,-1.5513,-1.5243,-1.5229,-1.4841,-1.4536,-1.478,0.0,0.0,0.0,0.0,-1.2867,-1.2744,-1.2621,-1.2621,-1.2621,-1.2621,-1.2621,0.0,0.0,0.0,0.0,0.0,0.0,-1.2313,-1.2401,-1.2279,-1.2265,-1.2367,-1.2313,-1.2243,-1.2251,-1.2251,-1.2243,-1.2089,-1.1214,-1.0666,-1.061,0.0,0.0,0.0,0.0,-0.9512,-0.9806,-0.9986,-1.0008,-0.9816,-0.9693,-0.9466,-0.9215,-0.9022,-0.8835,-0.877,-0.8243,-0.7884,-0.7731,-0.704,0.0,0.0,0.0,0.0,0.0,0.0,0.0,0.0,0.0,0.0,0.0,0.0,0.0,0.0,0.0,0.0,0.0,0.0,0.0,-0.3587,-0.4305,-0.5019,0.0,0.0,0.0,0.0,0.0,0.0,0.0,0.0,0.0,-1.4136,-1.4951,-1.5662,0.0,0.0,-1.7022,-1.7279,-1.7623,-1.792,-1.803,-1.8147,0.0,0.0,-1.7995,-1.7776,-1.7501,-1.6933,-1.6368,-1.5864,-1.5328,-1.4725,-1.4277,-1.3818,-1.3566,-1.3503,-1.4249,-1.4783,-1.489,-1.4574,-1.4167,-1.3912,-1.3646,-1.3526,-1.5149,-1.4301,-1.366,-1.3318,-1.3124,-1.2932,-1.2744,-1.2621,-1.2621,-1.2621,-1.2621,-1.2621,-1.2621,-1.2621,-1.2498,0.0,0.0,0.0,-1.2375,-1.2375,-1.2313,-1.2243,-1.2189,-1.2127,-1.2065,-1.2058,-1.1989,-1.1859,-1.1783,-1.0942,-1.0509,-1.0423,0.0,0.0,-0.9329,-0.9233,-0.9276,-0.9392,-0.9636,-0.9667,-0.9288,-0.9234,-0.9058,-0.8747,-0.8784,-0.877,-0.8646,-0.8247,-0.7926,-0.7795,-0.7138,-0.6666,0.0,0.0,0.0,0.0,0.0,0.0,0.0,0.0,0.0,0.0,0.0,-0.3077,-0.3019,0.0,0.0,0.0,-0.3387,-0.38,-0.4415,-0.4968,0.0,0.0,0.0,0.0,0.0,0.0,0.0,-1.1674,-1.2336,-1.2987,-1.3708,-1.4401,-1.501,-1.5566,-1.6009,-1.6389,-1.656,0.0,-1.7134,-1.7134,-1.719,-1.719,-1.7112,-1.6976,-1.6719,-1.6186,-1.5563,-1.4959,-1.4544,-1.412,-1.3644,-1.3215,-1.2896,-1.2651,-1.2438,-1.2909,-1.3465,-1.3679,-1.3396,-1.2965,-1.2752,-1.2715,-1.2715,-1.5385,-1.4993,-1.4422,-1.3954,-1.3545,-1.317,-1.283,-1.2621,-1.2621,-1.2621,-1.2621,-1.2621,-1.2621,-1.256,-1.2367,0.0,-1.253,-1.2259,-1.2065,-1.2058,-1.2042,-1.202,-1.202,-1.1997,-1.1981,-1.1966,-1.1661,-1.139,-1.1182,-1.0531,-1.0057,-0.9831,-0.9517,-0.9159,-0.8824,-0.9017,-0.8978,-0.8756,-0.9297,-0.9285,-0.8751,-0.8685,-0.8567,-0.8382,-0.8598,-0.8656,-0.8484,-0.8156,-0.7967,-0.7977,-0.7154,-0.6741,-0.6669,0.0,0.0,0.0,0.0,0.0,0.0,0.0,0.0,0.0,0.0,0.0,0.0,0.0,0.0,0.0,-0.4082,0.0,-0.5003,-0.5304,0.0,0.0,0.0,-0.8307,-0.8927,-0.995,-1.0891,-1.1641,0.0,0.0,-1.3373,-1.3855,-1.4323,-1.4963,-1.5517,-1.5816,-1.5816,-1.6228,-1.6457,-1.6255,-1.6368,-1.6312,-1.6012,-1.5871,-1.5501,-1.4821,-1.4112,-1.3596,-1.3186,-1.2913,-1.2639,-1.218,-1.2219,-1.2261,-1.2052,-1.1759,-1.1714,-1.222,-1.2094,-1.1806,-1.1852,-1.1957,-1.2,-1.5931,-1.5556,-1.5146,-1.4345,-1.3451,-1.3361,-1.3048,-1.2629,-1.2621,-1.2621,-1.2621,-1.2621,-1.2498,-1.2375,-1.2305,-1.2236,-1.205,-1.205,-1.2058,-1.1903,-1.1662,-1.1488,-1.1473,-1.0997,-1.0821,-1.0763,-1.0632,-1.0487,-1.0458,-1.003,-0.968,-0.9453,-0.8991,-0.8791,-0.8811,-0.8558,-0.8422,-0.8315,-0.8422,-0.8419,-0.8269,-0.8266,-0.8181,-0.7947,-0.8001,-0.8115,-0.8226,-0.7928,-0.7815,-0.7977,-0.7288,-0.6876,-0.6811,-0.6058,0.0,0.0,0.0,0.0,0.0,0.0,0.0,0.0,0.0,-0.3949,-0.3949,0.0,-0.4235,0.0,-0.4849,-0.5189,-0.5441,-0.6032,0.0,0.0,-0.7688,-0.8366,-0.8931,-0.9673,-1.0408,-1.1185,-1.171,-1.2251,-1.2862,-1.3139,-1.3374,-1.3527,-1.4561,-1.5371,-1.5381,-1.5546,-1.57,-1.5593,-1.5355,-1.5167,-1.4968,-1.4371,-1.383,-1.3442,-1.3113,-1.2848,-1.2491,-1.2195,-1.1854,-1.1399,-1.1088,-1.0874,-1.0593,-1.0428,-1.048,-1.0585,-1.0859,-1.1097,-1.1157,-1.126,-1.1353,-1.607,-1.5788,-1.5496,-1.4698,-1.3753,-1.358,-1.3129,-1.2629,-1.2621,-1.2621,-1.2621,-1.2498,-1.2428,-1.2297,-1.2112,-1.1996,-1.1849,-1.1714,-1.1578,-1.1419,-1.1123,-1.0975,-1.0909,-1.0559,-1.0365,-1.0308,-1.0059,-0.9989,-0.9974,-0.9515,-0.9207,-0.8984,-0.8498,-0.8315,-0.8321,-0.8109,-0.7949,-0.7901,-0.7821,-0.7678,-0.7648,-0.7758,-0.7761,-0.765,-0.7747,-0.786,-0.7934,-0.7629,-0.7546,-0.7693,-0.72,-0.6923,-0.6872,-0.6319,-0.5871,0.0,0.0,0.0,0.0,0.0,0.0,0.0,0.0,0.0,0.0,0.0,-0.4631,-0.4829,-0.5242,-0.5554,-0.5686,-0.6222,-0.6749,-0.7138,-0.7666,-0.8252,-0.8823,-0.939,-1.0021,-1.0724,-1.1212,-1.1675,-1.2222,-1.2381,-1.2496,-1.2479,-1.3238,-1.3898,-1.4127,-1.4346,-1.4506,-1.4393,-1.4213,-1.3951,-1.3784,-1.3141,-1.2627,-1.2412,-1.212,-1.1794,-1.1519,-1.1255,-1.0959,-1.0619,-1.0434,-1.0257,-1.0035,-0.9969,-0.9917,-0.9888,-1.0037,-1.026,-1.047,-1.0667,-1.0718,-1.607,-1.5797,-1.5525,-1.4965,-1.4181,-1.3735,-1.3192,-1.2621,-1.2621,-1.2621,-1.256,-1.2367,-1.2297,-1.2243,-1.1926,-1.1779,-1.1796,-1.1322,-1.1048,-1.0849,-1.061,-1.0472,-1.0365,-1.0265,-1.013,-1.0016,-0.9695,-0.9508,-0.9501,-0.8978,-0.8646,-0.8468,-0.8055,-0.7788,-0.767,-0.7616,-0.7563,-0.7461,-0.7306,-0.7252,-0.7085,-0.7295,-0.7346,-0.7357,-0.7544,-0.7608,-0.758,-0.7339,-0.7255,-0.734,-0.7054,-0.6836,-0.6894,-0.6519,-0.6181,0.0,-0.5519,0.0,0.0,0.0,0.0,0.0,0.0,0.0,0.0,-0.4634,-0.4825,-0.5077,-0.5418,-0.5686,-0.5892,-0.6222,-0.6618,-0.7068,-0.7466,-0.7922,-0.8635,-0.9145,-0.964,-1.0305,-1.0669,-1.1024,-1.1383,-1.1542,-1.1613,-1.1595,-1.1834,-1.2117,-1.2497,-1.2968,-1.3232,-1.3013,-1.2977,-1.2832,-1.2508,-1.2038,-1.1699,-1.1528,-1.117,-1.0726,-1.051,-1.0391,-1.0205,-1.0005,-0.9923,-0.9923,-0.9887,-0.9754,-0.9658,-0.9547,-0.9487,-0.9546,-0.9844,-1.0051,-1.0162,-1.6,-1.5771,-1.5316,-1.4731,-1.4172,-1.3671,-1.3129,-1.2621,-1.2621,-1.2621,-1.256,-1.2367,-1.2243,-1.212,-1.1872,-1.1598,-1.1233,-1.1166,-1.0938,-1.066,-1.0338,-1.0144,-0.9964,-0.9505,-0.9179,-0.9072,-0.8798,-0.8658,-0.8665,-0.8406,-0.8221,-0.8002,-0.7735,-0.7521,-0.7359,0.0,0.0,0.0,-0.7139,-0.7139,-0.7085,-0.7133,-0.7155,-0.7155,-0.7093,0.0,-0.7266,-0.7042,-0.6973,-0.713,-0.6843,0.0,0.0,0.0,0.0,0.0,0.0,0.0,0.0,0.0,0.0,0.0,-0.5001,-0.4935,-0.4965,-0.5165,-0.5262,-0.5359,-0.5624,-0.5822,-0.5892,-0.6358,-0.6688,-0.6806,-0.7265,-0.7722,-0.8117,-0.863,-0.914,-0.9537,-0.9752,-1.0053,-1.0408,-1.0471,-1.0512,-1.0516,-1.0693,-1.0778,-1.0604,-1.1689,-1.2483,-1.2564,-1.2221,-1.1786,-1.1283,-1.1069,-1.0853,-1.0609,-1.0526,-1.0316,-1.0154,-1.0095,-0.9936,-0.958,-0.9512,-0.9398,-0.9191,-0.9069,-0.9105,-0.9259,-0.9263,-0.9263,-0.9368,-0.9472,-0.9569,-1.6008,0.0,-1.511,-1.4613,0.0,-1.355,-1.3003,-1.2621,-1.2621,-1.2567,-1.2436,-1.2243,-1.212,-1.1926,-1.1576,-1.1291,-1.1055,-1.0741,-1.0507,-1.0331,-0.9908,-0.9703,-0.9549,-0.9136,-0.8857,-0.8685,-0.8474,-0.8374,-0.8268,-0.8115,-0.7895,-0.7681,-0.7526,-0.7359,-0.7198,-0.7139,-0.7133,-0.7133,-0.7133,-0.7133,-0.7133,-0.7133,-0.7133,-0.7085,0.0,0.0,0.0,0.0,0.0,0.0,0.0,0.0,0.0,0.0,0.0,-0.5702,-0.5721,-0.5542,-0.5014,-0.5075,-0.5101,-0.5104,-0.5175,-0.5247,-0.5247,-0.5315,-0.5428,-0.5428,-0.5624,-0.5822,-0.5892,-0.6222,-0.6548,-0.6675,-0.6942,-0.7237,-0.759,-0.7884,-0.8294,-0.869,-0.8873,-0.9104,-0.9453,-0.9519,-0.9514,-0.9609,-0.9737,-0.9819,-0.9792,-1.0651,-1.1416,-1.1514,-1.1267,-1.0913,-1.0675,-1.0462,-1.034,-1.0162,-1.0102,-0.9999,-0.9903,-0.9717,-0.9494,-0.9224,-0.9085,-0.8885,-0.8658,-0.8623,-0.8651,-0.8837,-0.8923,-0.8909,-0.9013,-0.9159,-0.9309,-1.5886,-1.559,-1.488,-1.4379,-1.4007,-1.3332,-1.2838,-1.2621,0.0,0.0,0.0,-1.2182,-1.1958,-1.1697,-1.1308,-1.1078,-1.0872,-1.0346,-1.0068,-1.0002,-0.958,-0.9361,-0.9211,-0.891,-0.8745,-0.8573,-0.8368,-0.8209,-0.8115,-0.7901,-0.7687,-0.7467,-0.7311,-0.7198,-0.7133,-0.7133,-0.7085,-0.7085,-0.7031,-0.7031,-0.7031,-0.7031,-0.7031,-0.7031,-0.6874,-0.6766,-0.6647,-0.6436,-0.6409,-0.6469,-0.6417,-0.6404,-0.6369,-0.6463,-0.6249,-0.5664,-0.5796,-0.5672,-0.5013,-0.515,-0.515,-0.5016,-0.5215,-0.5304,-0.5422,-0.5428,-0.5428,-0.5428,-0.5488,-0.5683,-0.5822,-0.6017,-0.6264,-0.6563,-0.6607,-0.672,-0.7001,-0.7221,-0.7502,-0.7844,-0.8089,-0.8334,-0.854,-0.8601,-0.869,-0.8811,-0.8917,-0.9001,-0.9316,-0.9918,-1.0415,-1.0391,-1.0316,-1.0179,-1.012,-1.0028,-0.991,-0.9851,-0.974,-0.9673,-0.9585,-0.9343,-0.9096,-0.8796,-0.8554,-0.8381,-0.8221,-0.8153,-0.8263,-0.8453,-0.8541,-0.8595,-0.8716,-0.8928,-0.9106,-1.5539,-1.5061,-1.4497,-1.3999,-1.3436,-1.2899,-1.2607,-1.2621,-1.2621,-1.2498,-1.2305,-1.2182,-1.1836,-1.1376,-1.1152,-1.077,-1.0243,-1.0133,-0.995,0.0,-0.9636,-0.9413,-0.9211,-0.891,-0.8699,-0.8427,-0.799,-0.7777,-0.7723,-0.7521,-0.7365,-0.7311,-0.7198,-0.7133,-0.7133,-0.7133,-0.7031,-0.6933,-0.6928,-0.6874,-0.6756,-0.6756,-0.6756,-0.6761,-0.6598,-0.644,-0.6436,-0.6337,-0.6246,-0.627,-0.6275,-0.6197,-0.616,-0.6147,-0.6053,-0.5673,-0.546,-0.5095,-0.4538,-0.4599,-0.4664,-0.4726,-0.4791,-0.4958,-0.5335,-0.5428,-0.5428,-0.5425,-0.5474,-0.5617,-0.5683,-0.5807,-0.5952,-0.6006,-0.6121,-0.6258,-0.6513,-0.6759,-0.6978,-0.7124,-0.7385,-0.7577,-0.7695,-0.78,-0.8009,-0.8228,-0.8427,-0.8586,-0.8903,-0.9361,-0.971,-0.974,-0.9732,-0.9622,-0.9585,-0.9517,-0.9494,-0.9316,-0.9316,-0.929,-0.9083,-0.8955,-0.8672,-0.8176,-0.8056,-0.7923,-0.7763,-0.7698,-0.7788,-0.7968,-0.8183,-0.8393,-0.8444,-0.8689,-0.885,-1.5239,-1.4942,-1.4139,-1.3606,-1.3363,-1.2827,-1.2621,-1.2621,-1.2498,-1.2313,-1.2182,-1.212,-1.1745,-1.1189,-1.0946,-1.0558,-1.0097,-0.9914,-0.976,-0.9621,-0.9465,-0.9316,-0.9159,-0.8798,-0.8533,-0.8374,-0.7937,-0.767,-0.7563,-0.7419,-0.7257,-0.7198,-0.7139,-0.7031,-0.6982,-0.6982,-0.6874,-0.6652,-0.682,-0.6825,-0.6707,-0.6707,-0.6707,-0.6707,-0.6485,-0.6386,-0.6386,-0.6282,-0.6173,-0.6173,-0.6173,-0.6105,-0.5974,-0.5962,-0.5769,-0.5388,-0.5111,-0.4789,-0.4418,-0.4363,-0.4424,-0.4604,-0.4668,-0.4784,-0.4978,-0.5121,-0.5121,-0.5121,-0.5181,-0.5241,-0.5371,-0.5448,-0.5585,-0.5782,-0.5834,-0.5942,-0.6069,-0.6208,-0.636,-0.657,-0.6643,-0.6884,-0.716,-0.73,-0.7461,-0.7788,-0.7996,-0.8203,-0.8434,-0.8685,-0.8949,-0.919,-0.9287,-0.9302,-0.9271,-0.9299,-0.9246,-0.9232,-0.9218,-0.9155,-0.898,-0.8784,-0.8413,-0.8041,-0.775,-0.7478,-0.7321,-0.7271,-0.7381,-0.7616,-0.7789,-0.8017,-0.8326,-0.8604,-0.8791,-1.4765,-1.4564,-1.3753,-1.3339,-1.3186,-1.2803,-1.256,-1.2498,-1.2375,-1.2182,-1.2058,-1.2003,-1.1646,-1.1019,-1.0689,-1.0368,-0.9994,-0.9731,-0.9562,-0.9562,-0.9361,-0.9204,-0.9054,-0.8633,-0.8368,-0.8268,-0.7836,-0.7574,-0.7473,-0.7311,-0.7198,-0.7085,-0.7031,-0.6982,-0.6879,-0.6825,-0.6712,-0.644,-0.6657,-0.6712,-0.6598,-0.6598,-0.6598,-0.6598,-0.6436,-0.6332,-0.6332,-0.6282,-0.6173,-0.6173,-0.6173,-0.6069,-0.58,-0.5767,-0.5555,-0.5106,-0.4807,-0.4515,-0.4273,-0.4156,-0.4156,-0.4329,-0.4452,-0.4515,-0.4574,-0.4697,-0.4803,-0.487,-0.4945,-0.4979,-0.51,-0.5133,-0.5251,-0.5479,-0.5498,-0.5549,-0.5644,-0.5673,-0.5789,-0.6023,-0.6109,-0.6341,-0.6663,-0.6874,-0.7031,-0.73,-0.7616,-0.783,-0.7949,-0.8008,-0.8268,-0.858,-0.8778,-0.8896,-0.8996,-0.8996,-0.8983,-0.9029,-0.9061,-0.8947,-0.8868,-0.8476,-0.8139,-0.7902,-0.7521,-0.7193,-0.7027,-0.6985,-0.7105,-0.735,-0.7495,-0.7742,-0.8313,-0.8604,-0.8791,-1.4122,-1.3566,-1.3404,-1.3145,-1.2693,-1.2637,-1.2498,-1.2367,-1.2297,-1.2112,-1.1872,-1.1809,-1.1398,-1.0675,-1.0602,-1.0258,-0.9694,-0.9629,-0.951,-0.9413,-0.9413,-0.9166,-0.885,-0.8633,-0.8368,-0.7955,-0.7681,-0.7467,-0.7311,-0.7192,-0.7031,-0.6933,-0.6933,-0.682,-0.6761,-0.6707,-0.6598,-0.644,-0.644,-0.6386,-0.6228,-0.6228,-0.6232,-0.6232,-0.6228,-0.6228,-0.6232,-0.6173,-0.6173,-0.6173,-0.6173,-0.6069,-0.58,-0.5698,-0.5372,-0.4868,-0.4448,-0.4064,-0.3733,-0.3671,-0.3739,-0.3831,-0.3899,-0.4017,-0.4244,-0.4241,-0.4439,-0.4793,-0.4894,-0.492,-0.4907,-0.4932,-0.4925,-0.502,-0.5027,-0.5033,-0.5159,-0.5262,-0.5423,-0.5631,-0.5837,-0.6114,-0.6228,-0.6386,-0.6603,-0.6928,-0.7198,-0.7359,-0.7413,-0.7521,-0.7628,-0.7883,-0.815,-0.8427,-0.8506,-0.8493,-0.854,-0.8533,-0.858,-0.86,-0.8382,-0.8141,-0.7862,-0.7781,-0.7325,-0.7047,-0.7021,-0.6972,-0.6985,-0.7098,-0.7328,-0.7674,-0.8266,-0.8577,-0.8692,-1.3719,-1.3371,-1.3042,-1.2811,-1.2629,-1.2621,-1.2498,-1.2305,-1.2251,-1.2058,-1.1802,-1.1747,-1.1262,-1.0587,-1.058,-1.0173,-0.948,-0.9517,-0.9413,-0.9263,-0.9106,-0.8962,-0.8752,-0.8374,-0.8055,-0.7907,-0.7526,-0.7365,-0.7263,-0.7095,-0.6928,-0.6761,-0.6766,-0.6707,-0.6539,-0.649,-0.644,-0.6282,-0.6282,-0.6228,-0.6232,-0.6173,-0.6173,-0.6173,-0.6173,-0.6173,-0.6173,-0.6173,-0.6173,-0.6173,-0.6119,-0.6005,-0.5791,-0.5462,-0.5124,-0.4736,-0.4242,-0.386,-0.3641,-0.3585,-0.3638,-0.3691,-0.3744,-0.3852,-0.3965,-0.4021,-0.4204,-0.4426,-0.4609,-0.4687,-0.4652,-0.4642,-0.4688,-0.4784,-0.4786,-0.4857,-0.4959,-0.5014,-0.5128,-0.5403,-0.5517,-0.5681,-0.5905,-0.6178,-0.6391,-0.6603,-0.682,-0.6982,-0.7041,-0.7095,-0.7198,-0.7354,-0.7568,-0.7895,-0.8174,-0.8287,-0.8281,-0.8374,-0.8421,-0.8397,-0.8384,-0.8,-0.7775,-0.7742,-0.7341,-0.7025,-0.6972,-0.6972,-0.6979,-0.7054,-0.7235,-0.7586,-0.7935,-0.818,-0.8397,-1.3304,-1.3137,-1.2725,-1.2621,-1.2621,-1.256,-1.2428,-1.2243,-1.2058,-1.1934,-1.1732,-1.1534,-1.1121,-1.0581,-1.0537,-1.0125,-0.9463,-0.9368,-0.9263,-0.9106,-0.891,-0.8699,-0.854,-0.8115,-0.7848,-0.7687,-0.7424,-0.7263,-0.7155,-0.6982,-0.6766,-0.6652,-0.6652,-0.6539,-0.6386,-0.6332,-0.6277,-0.6228,-0.6173,-0.6173,-0.6173,-0.6173,-0.6173,-0.6173,-0.6173,-0.6173,-0.6173,-0.6173,-0.6173,-0.6173,-0.6059,-0.5946,-0.5736,-0.5348,-0.4904,-0.4522,-0.4076,-0.3747,-0.3585,-0.3585,-0.3585,-0.3583,-0.3691,-0.3799,-0.3796,-0.3907,-0.4021,-0.4138,-0.4298,-0.4418,-0.4463,-0.4463,-0.4519,-0.4632,-0.4632,-0.4684,-0.4849,-0.4846,-0.4963,-0.5132,-0.5183,-0.5293,-0.5631,-0.5905,-0.6119,-0.6223,-0.6381,-0.6544,-0.6717,-0.6717,-0.682,-0.6972,-0.709,-0.7359,-0.7848,-0.7961,-0.8068,-0.8168,-0.8209,-0.8321,-0.8448,-0.8023,-0.7765,-0.7748,-0.7333,-0.7092,-0.6999,-0.6972,-0.6979,-0.7027,-0.7208,-0.7456,-0.7654,-0.7849,-0.8088,-1.2768,-1.2653,-1.2629,-1.256,-1.256,-1.2367,-1.2243,-1.2058,-1.1919,-1.1732,-1.1556,-1.1224,-1.0843,-1.0408,-1.0329,-1.0014,-0.9418,-0.9263,-0.9061,-0.8804,-0.8758,-0.8493,-0.7955,-0.7901,-0.7687,-0.7365,-0.7317,-0.7149,-0.6928,-0.6761,-0.6598,-0.644,-0.6436,-0.6332,-0.6228,-0.6232,-0.6228,-0.6178,-0.6173,-0.6173,-0.6173,-0.6173,-0.6173,-0.6173,-0.6173,-0.6173,-0.6173,-0.6173,-0.6173,-0.6173,-0.6059,-0.5896,-0.5622,-0.5238,-0.4743,-0.4132,-0.3907,-0.3744,-0.3638,-0.3585,-0.3585,-0.3585,-0.3638,-0.3635,-0.3744,-0.3796,-0.3855,-0.3965,-0.4135,-0.4301,-0.4463,-0.446,-0.4519,-0.4519,-0.4519,-0.4574,-0.4688,-0.4688,-0.4802,-0.4912,-0.4959,-0.5069,-0.5297,-0.5626,-0.5795,-0.585,-0.595,-0.6114,-0.6223,-0.6332,-0.649,-0.6598,-0.6707,-0.6869,-0.7252,-0.7473,-0.7628,-0.7729,-0.7889,-0.8002,-0.8069,-0.8126,-0.7952,-0.7765,-0.7517,-0.7284,-0.7072,-0.6979,-0.695,-0.7005,-0.7074,-0.7284,-0.748,-0.7745,-0.7974,-1.2744,-1.256,-1.2436,-1.2436,-1.2428,-1.2251,-1.2065,-1.1911,-1.1631,-1.1367,-1.1194,-1.085,-1.0415,-1.0057,-0.9792,-0.946,-0.9022,-0.8956,-0.8752,-0.8434,-0.8275,-0.8055,-0.7783,-0.7634,-0.7419,-0.7198,-0.7095,-0.6879,-0.6603,-0.6544,-0.644,-0.6282,-0.6282,-0.6232,-0.6178,-0.6173,-0.6173,-0.6178,-0.6173,-0.6173,-0.6182,-0.6173,-0.6173,-0.6173,-0.6173,-0.6173,-0.6173,-0.6173,-0.6173,-0.6059,-0.5955,-0.5736,-0.5403,-0.4853,-0.4356,-0.391,-0.3744,-0.3635,-0.3583,-0.3585,-0.3585,-0.3585,-0.3585,-0.3638,-0.3638,-0.3694,-0.3749,-0.386,-0.391,-0.4018,-0.4187,-0.4353,-0.4463,-0.4463,-0.4519,-0.4519,-0.4574,-0.4574,-0.4632,-0.4743,-0.4846,-0.4959,-0.5128,-0.5352,-0.5521,-0.5677,-0.5786,-0.59,-0.59,-0.6009,-0.6059,-0.6114,-0.6282,-0.6445,-0.6559,-0.6987,-0.7306,-0.7467,-0.7628,-0.7788,-0.7941,-0.7945,-0.7797,-0.7862,-0.7641,-0.7458,-0.7247,-0.7016,-0.6973,-0.6875,-0.6943,-0.7089,-0.7345,-0.7546,-0.7728,-1.2621,-1.2498,-1.2367,-1.2235,-1.2081,-1.1897,-1.1707,-1.1466,-1.1189,-1.1034,-1.0872,-1.0509,-1.018,-0.9904,-0.9554,-0.923,-0.8902,-0.8738,-0.8434,-0.8115,-0.7895,-0.7729,-0.7509,-0.73,-0.7149,-0.6977,-0.682,-0.6603,-0.644,-0.6332,-0.6282,-0.6173,-0.6173,-0.6211,-0.6257,-0.6271,-0.635,-0.6356,-0.6374,-0.6351,-0.6285,-0.6332,-0.6239,-0.6187,-0.6173,-0.6173,-0.6173,-0.6173,-0.6119,-0.6005,-0.5841,-0.5517,-0.5073,-0.4467,-0.4021,-0.3796,-0.3691,-0.3585,-0.3585,-0.3585,-0.3585,-0.3585,-0.3585,-0.3585,-0.3585,-0.3585,-0.3644,-0.3697,-0.3802,-0.3855,-0.3968,-0.419,-0.4353,-0.4408,-0.4463,-0.4463,-0.4463,-0.4463,-0.4519,-0.4632,-0.4739,-0.4849,-0.4963,-0.5073,-0.5238,-0.5399,-0.5513,-0.5572,-0.5681,-0.5736,-0.5736,-0.5791,-0.5959,-0.6064,-0.6228,-0.6549,-0.6982,-0.7198,-0.7354,-0.7568,-0.7759,-0.7756,-0.7776,-0.7854,-0.7804,-0.7621,-0.7406,-0.715,-0.6972,-0.6829,-0.6742,-0.6799,-0.704,-0.7241,-0.7444,-1.2474,-1.2243,-1.2282,-1.1935,-1.1569,-1.1368,-1.1122,-1.0847,-1.0659,-1.0587,-1.0523,-1.0329,-1.0115,-1.0022,-0.9657,-0.9408,-0.9048,-0.8502,-0.8183,-0.789,-0.7758,-0.7473,-0.7139,-0.7085,-0.6923,-0.6701,-0.649,-0.6381,-0.6381,-0.6282,-0.6178,-0.6187,-0.6206,-0.6309,-0.653,-0.6487,-0.6571,-0.6698,-0.6726,-0.6651,-0.6496,-0.6506,-0.6356,-0.6201,-0.6173,-0.6173,-0.6173,-0.6173,-0.6119,-0.6005,-0.5732,-0.5234,-0.4629,-0.4187,-0.3965,-0.3796,-0.3691,-0.3585,-0.3585,-0.3585,-0.353,-0.3585,-0.3585,-0.3585,-0.3585,-0.3585,-0.3585,-0.3641,-0.3691,-0.3802,-0.3808,-0.3916,-0.4079,-0.419,-0.4353,-0.4463,-0.4463,-0.4463,-0.4463,-0.4519,-0.4629,-0.4688,-0.4743,-0.4849,-0.5014,-0.5124,-0.5124,-0.5238,-0.5458,-0.5508,-0.5622,-0.5736,-0.5795,-0.59,-0.6009,-0.6168,-0.6549,-0.6928,-0.7085,-0.73,-0.7622,-0.7735,-0.7826,-0.7916,-0.7923,-0.7717,-0.7408,-0.7224,-0.7084,-0.695,-0.6761,-0.6705,-0.6918,-0.7133,-0.7176,-1.1807,-1.148,-1.1297,-1.1186,-1.103,-1.0857,-1.0783,-1.0615,-1.0304,-1.0147,-1.0084,-0.9813,-0.9596,-0.9482,-0.9336,-0.9149,-0.8832,-0.8443,-0.8125,-0.7917,-0.7611,-0.7296,-0.7009,-0.6874,-0.6707,-0.649,-0.6332,-0.6228,-0.6287,-0.6237,-0.6239,-0.6351,-0.6379,-0.6492,-0.6679,-0.6698,-0.674,-0.6782,-0.6791,-0.6688,-0.6549,-0.6473,-0.6435,-0.6201,-0.6114,-0.6059,-0.6059,-0.6059,-0.6005,-0.5845,-0.5572,-0.5073,-0.4411,-0.4021,-0.3744,-0.358,-0.3469,-0.3416,-0.3302,-0.3302,-0.3357,-0.3416,-0.3471,-0.353,-0.3585,-0.3585,-0.3585,-0.3585,-0.3638,-0.3638,-0.3697,-0.3802,-0.3965,-0.4193,-0.4245,-0.4353,-0.446,-0.4463,-0.4463,-0.4519,-0.4519,-0.4577,-0.4688,-0.4743,-0.4849,-0.4956,-0.4956,-0.5066,-0.512,-0.5234,-0.5234,-0.5293,-0.5458,-0.5732,-0.5841,-0.6005,-0.6327,-0.6707,-0.6923,-0.7139,-0.7461,-0.767,-0.7823,-0.7915,-0.7928,-0.7816,-0.7504,-0.7329,-0.7236,-0.7152,-0.7028,-0.7012,-0.7072,-0.7127,-0.7182,-1.1291,-1.0994,-1.0865,-1.0676,-1.0516,-1.046,-1.0338,-1.0151,-0.9854,-0.966,-0.9634,-0.9535,-0.9392,-0.9365,-0.9335,-0.9198,-0.8968,-0.856,-0.8237,-0.798,-0.7488,-0.7135,-0.6829,-0.6633,-0.6495,-0.6332,-0.6228,-0.6215,-0.6281,-0.629,-0.6393,-0.6562,-0.6595,-0.6757,-0.6946,-0.6965,-0.6988,-0.7059,-0.7083,-0.6974,-0.6795,-0.6627,-0.6434,-0.6258,-0.605,-0.5955,-0.595,-0.5845,-0.5677,-0.5572,-0.5242,-0.4688,-0.4027,-0.3802,-0.358,-0.3357,-0.3302,-0.3246,-0.3132,-0.3132,-0.3132,-0.3246,-0.3302,-0.336,-0.3471,-0.353,-0.353,-0.3585,-0.3585,-0.3585,-0.3641,-0.3691,-0.3858,-0.4021,-0.4135,-0.4301,-0.4463,-0.4463,-0.4463,-0.4519,-0.4519,-0.4519,-0.4577,-0.4632,-0.4684,-0.4794,-0.4849,-0.4846,-0.4901,-0.4959,-0.5014,-0.5069,-0.5238,-0.5458,-0.5677,-0.5896,-0.6109,-0.6436,-0.6761,-0.7085,-0.7408,-0.7568,-0.7694,-0.7847,-0.7909,-0.7884,-0.767,-0.7499,-0.7383,-0.7334,-0.7297,-0.7194,-0.7151,-0.7164,-0.7176,-1.0948,-1.0755,-1.0748,-1.0435,-1.0089,-1.0075,-0.9828,-0.9477,-0.9389,-0.9292,-0.9252,-0.9345,-0.9497,-0.9479,-0.9352,-0.9322,-0.9308,-0.8768,-0.8334,-0.8003,-0.7521,-0.7057,-0.6758,-0.6454,-0.6285,-0.6267,-0.6202,-0.6276,-0.643,-0.6434,-0.6595,-0.6727,-0.6755,-0.6913,-0.7072,-0.7173,-0.7189,-0.7316,-0.7358,-0.7255,-0.7121,-0.6777,-0.6506,-0.6248,-0.597,-0.5766,-0.5686,-0.5407,-0.5242,-0.5187,-0.4743,-0.4242,-0.3749,-0.3585,-0.3413,-0.3132,-0.3077,-0.3077,-0.3077,-0.3021,-0.3077,-0.3077,-0.3132,-0.3188,-0.3357,-0.336,-0.3416,-0.353,-0.3585,-0.3585,-0.3585,-0.3585,-0.3694,-0.3796,-0.4021,-0.4245,-0.4463,-0.4463,-0.4463,-0.4463,-0.4463,-0.4519,-0.4519,-0.4519,-0.4574,-0.4632,-0.4688,-0.4739,-0.4791,-0.4846,-0.4956,-0.5014,-0.5124,-0.5348,-0.5622,-0.5791,-0.6005,-0.6381,-0.6707,-0.7031,-0.7408,-0.7515,-0.7681,-0.7836,-0.7937,-0.7871,-0.7817,-0.7671,-0.7625,-0.7619,-0.7448,-0.7297,-0.723,-0.7261,-0.7127,-1.0307,-0.9931,-0.9923,-0.9766,-0.9588,-0.9595,-0.9446,-0.9271,-0.9008,-0.8956,-0.8891,-0.8854,-0.8902,-0.894,-0.9022,-0.8966,-0.8779,-0.8576,-0.8236,-0.7802,-0.7432,-0.6964,-0.6721,-0.6529,-0.6379,-0.6316,-0.624,-0.6302,-0.6347,-0.6406,-0.6449,-0.6626,-0.6701,-0.6795,-0.697,-0.6992,-0.7024,-0.7068,-0.7073,-0.6979,-0.6809,-0.6666,-0.6466,-0.6156,-0.58,-0.5595,-0.5428,-0.4963,-0.4739,-0.4684,-0.4242,-0.391,-0.3583,-0.336,-0.319,-0.3026,-0.297,-0.2914,-0.2856,-0.28,-0.2858,-0.2914,-0.297,-0.3023,-0.3132,-0.3188,-0.3302,-0.3416,-0.3471,-0.3471,-0.3585,-0.3585,-0.3638,-0.3796,-0.391,-0.4135,-0.4245,-0.4301,-0.4301,-0.446,-0.4463,-0.446,-0.4463,-0.4519,-0.4519,-0.4574,-0.4574,-0.4574,-0.468,-0.4739,-0.4794,-0.4959,-0.5069,-0.5293,-0.5513,-0.5681,-0.595,-0.6327,-0.6652,-0.6977,-0.7354,-0.7681,-0.7788,-0.7901,-0.7895,-0.7889,-0.7889,-0.7799,-0.7846,-0.7792,-0.7744,-0.7593,-0.7455,-0.7388,-0.7139,-0.979,-0.951,-0.9465,-0.9413,-0.9309,-0.9256,-0.9166,-0.9008,-0.8745,-0.8593,-0.8545,-0.8447,-0.8363,-0.8363,-0.8546,-0.8471,-0.8233,-0.814,-0.7922,-0.7642,-0.7205,-0.6871,-0.6545,-0.6482,-0.6426,-0.6306,-0.631,-0.6345,-0.6411,-0.6424,-0.6528,-0.674,-0.6706,-0.6767,-0.6924,-0.6881,-0.6881,-0.6881,-0.6876,-0.6815,-0.6715,-0.6497,-0.6303,-0.6023,-0.5715,-0.5354,-0.5035,-0.4501,-0.4184,-0.4132,-0.391,-0.358,-0.3304,-0.3137,-0.2968,-0.286,-0.2805,-0.2805,-0.2747,-0.2691,-0.2747,-0.2805,-0.2805,-0.2858,-0.297,-0.3023,-0.3081,-0.3246,-0.3302,-0.336,-0.3471,-0.3585,-0.3641,-0.3691,-0.3802,-0.3913,-0.4079,-0.4135,-0.419,-0.4242,-0.4349,-0.4405,-0.4353,-0.4463,-0.4463,-0.4519,-0.4519,-0.4519,-0.4519,-0.4574,-0.4688,-0.4794,-0.4959,-0.5124,-0.5403,-0.5626,-0.595,-0.6273,-0.6815,-0.7085,-0.7354,-0.7681,-0.7848,-0.7901,-0.7901,-0.7901,-0.7901,-0.7901,-0.7877,-0.7853,-0.7901,-0.7847,-0.7689,-0.7449,-0.7194,-0.9361,-0.9368,-0.9263,-0.9166,-0.9106,-0.9008,-0.891,-0.8699,-0.8427,-0.8275,-0.8104,-0.8019,-0.7908,-0.7807,-0.7893,-0.7952,-0.7757,-0.7565,-0.7488,-0.7246,-0.7024,-0.6693,-0.6397,-0.6437,-0.6371,-0.6301,-0.6319,-0.6414,-0.6459,-0.6552,-0.6638,-0.675,-0.6793,-0.6806,-0.6815,-0.6815,-0.6885,-0.6815,-0.6745,-0.6741,-0.6628,-0.633,-0.6034,-0.5888,-0.5491,-0.4995,-0.4564,-0.4116,-0.3822,-0.3685,-0.358,-0.3307,-0.2972,-0.2916,-0.2805,-0.2691,-0.2635,-0.2635,-0.2691,-0.2635,-0.2691,-0.2691,-0.2691,-0.2747,-0.286,-0.286,-0.2914,-0.3079,-0.3077,-0.3188,-0.3302,-0.3471,-0.3585,-0.3583,-0.3583,-0.3749,-0.3916,-0.3968,-0.3965,-0.4021,-0.4128,-0.4187,-0.4242,-0.4298,-0.4405,-0.4405,-0.4405,-0.4408,-0.4463,-0.4519,-0.4632,-0.4743,-0.4849,-0.4959,-0.5238,-0.5517,-0.5896,-0.6327,-0.6928,-0.7306,-0.7408,-0.7681,-0.7848,-0.7901,-0.7901,-0.7901,-0.7901,-0.7901,-0.7901,-0.7901,-0.7901,-0.7901,-0.7835,-0.7583,-0.7285,-0.9263,-0.9211,-0.9106,-0.8956,-0.8917,-0.8824,-0.8659,-0.8328,-0.8115,-0.7848,-0.7639,-0.7415,-0.7268,-0.7219,-0.7165,-0.7037,-0.6992,-0.7001,-0.6971,-0.6868,-0.6806,-0.6584,-0.6419,-0.6467,-0.6479,-0.6407,-0.6359,-0.6383,-0.6477,-0.6469,-0.6437,-0.6474,-0.6552,-0.6486,-0.6486,-0.6486,-0.6486,-0.6482,-0.6416,-0.6346,-0.635,-0.6113,-0.5765,-0.5534,-0.5061,-0.4546,-0.4074,-0.3845,-0.3558,-0.3215,-0.3091,-0.2986,-0.2863,-0.2691,-0.2579,-0.2521,-0.241,-0.241,-0.2521,-0.2521,-0.2579,-0.2635,-0.2635,-0.2691,-0.2691,-0.2747,-0.2802,-0.2914,-0.2965,-0.3021,-0.3132,-0.3357,-0.3416,-0.3471,-0.3527,-0.3583,-0.3694,-0.3799,-0.3855,-0.3965,-0.4021,-0.4076,-0.4076,-0.4076,-0.4184,-0.4236,-0.4294,-0.4356,-0.4411,-0.4463,-0.4519,-0.4632,-0.4798,-0.4959,-0.5179,-0.5513,-0.6,-0.6381,-0.6982,-0.7419,-0.7521,-0.7681,-0.7788,-0.7901,-0.7901,-0.7901,-0.7901,-0.7901,-0.7848,-0.7901,-0.7901,-0.7848,-0.7764,-0.7575,-0.7333,-0.9015,-0.9008,-0.8798,-0.8639,-0.8546,-0.8506,-0.8293,-0.7901,-0.7628,-0.7359,-0.7139,-0.6864,-0.6668,-0.6565,-0.6535,-0.6485,-0.6452,-0.6586,-0.6573,-0.6427,-0.6424,-0.6346,-0.6218,-0.6284,-0.635,-0.6354,-0.6416,-0.642,-0.642,-0.642,-0.6346,-0.6284,-0.6284,-0.6218,-0.6156,-0.6156,-0.6152,-0.6152,-0.6086,-0.6017,-0.5881,-0.5752,-0.5404,-0.5036,-0.4592,-0.4168,-0.3872,-0.3505,-0.3216,-0.2936,-0.2731,-0.263,-0.2643,-0.2521,-0.241,-0.2352,-0.224,-0.2184,-0.2296,-0.2352,-0.2352,-0.2465,-0.2465,-0.2521,-0.2579,-0.2635,-0.2691,-0.2747,-0.28,-0.2854,-0.3023,-0.3132,-0.3246,-0.3246,-0.3302,-0.3416,-0.3469,-0.3635,-0.3688,-0.3802,-0.3855,-0.391,-0.3907,-0.391,-0.4021,-0.4128,-0.4128,-0.419,-0.4304,-0.4356,-0.4467,-0.4577,-0.4798,-0.4963,-0.512,-0.5504,-0.6164,-0.6544,-0.6987,-0.7306,-0.7515,-0.7628,-0.7788,-0.7848,-0.7901,-0.7901,-0.7901,-0.7848,-0.7788,-0.7794,-0.7741,-0.7741,-0.7659,-0.7453,-0.7218,-0.8705,-0.8705,-0.8427,-0.8215,-0.8115,-0.808,-0.7806,-0.7359,-0.7025,-0.675,-0.6593,-0.6381,-0.6178,-0.5991,-0.6057,-0.6085,-0.6052,-0.6107,-0.6049,-0.6002,-0.6151,-0.6075,-0.602,-0.602,-0.6086,-0.6288,-0.6288,-0.6288,-0.6288,-0.6354,-0.6218,-0.6152,-0.6079,-0.6017,-0.5888,-0.5826,-0.5822,-0.5822,-0.5826,-0.569,-0.5484,-0.5292,-0.4951,-0.4524,-0.4202,-0.3865,-0.3563,-0.3194,-0.2901,-0.283,-0.249,-0.2366,-0.2355,-0.2301,-0.2184,-0.2184,-0.2073,-0.2073,-0.2128,-0.2128,-0.2127,-0.2184,-0.2184,-0.2296,-0.241,-0.2465,-0.2465,-0.2579,-0.2633,-0.2691,-0.286,-0.3026,-0.3077,-0.3077,-0.3077,-0.3188,-0.3302,-0.3471,-0.3527,-0.3638,-0.3691,-0.3747,-0.3802,-0.3858,-0.391,-0.3965,-0.3965,-0.4021,-0.4135,-0.4249,-0.4301,-0.4467,-0.4632,-0.5073,-0.5234,-0.5609,-0.6213,-0.6598,-0.7041,-0.7252,-0.7413,-0.7521,-0.7634,-0.7848,-0.7901,-0.7848,-0.7842,-0.7729,-0.7676,-0.7634,-0.7639,-0.7639,-0.7499,-0.7332,-0.7104,-0.8374,-0.8275,-0.8062,-0.7848,-0.7628,-0.7597,-0.7317,-0.681,-0.6249,-0.6091,-0.6109,-0.6055,-0.5786,-0.5529,-0.5428,-0.5414,-0.5451,-0.5592,-0.5636,-0.5694,-0.5849,-0.5866,-0.5756,-0.5756,-0.5888,-0.5958,-0.5958,-0.5888,-0.5958,-0.5958,-0.5954,-0.5888,-0.5749,-0.5683,-0.5617,-0.5554,-0.5428,-0.5425,-0.5425,-0.5292,-0.4957,-0.4622,-0.4359,-0.3959,-0.373,-0.3425,-0.3105,-0.2883,-0.2717,-0.2477,-0.2313,-0.2233,-0.2171,-0.2081,-0.203,-0.2023,-0.1964,-0.1962,-0.2017,-0.2015,-0.2071,-0.2184,-0.2184,-0.2184,-0.224,-0.224,-0.2296,-0.2352,-0.2465,-0.2579,-0.2747,-0.2858,-0.2916,-0.2914,-0.3023,-0.3077,-0.3132,-0.319,-0.3302,-0.3471,-0.3583,-0.3638,-0.3694,-0.3694,-0.3747,-0.3802,-0.3855,-0.391,-0.4021,-0.4079,-0.419,-0.4356,-0.4522,-0.5018,-0.5454,-0.5832,-0.6268,-0.6593,-0.6928,-0.7149,-0.7311,-0.7311,-0.7473,-0.7687,-0.7788,-0.7735,-0.7676,-0.761,-0.7568,-0.7526,-0.7532,-0.7484,-0.7368,-0.7284,-0.707,-0.8008,-0.7788,-0.7687,-0.7419,-0.7144,-0.7209,-0.6933,-0.6268,-0.5642,-0.5429,-0.5559,-0.5567,-0.5399,-0.5128,-0.5073,-0.5068,-0.5106,-0.5257,-0.5303,-0.5337,-0.5424,-0.5425,-0.5348,-0.5359,-0.5359,-0.5292,-0.5292,-0.5422,-0.5686,-0.569,-0.5557,-0.5488,-0.5352,-0.5286,-0.509,-0.5024,-0.4894,-0.4891,-0.4891,-0.4758,-0.4292,-0.3889,-0.3625,-0.3424,-0.3293,-0.3068,-0.2777,-0.2568,-0.2424,-0.2272,-0.2019,-0.187,-0.1817,-0.1806,-0.1791,-0.1894,-0.1869,-0.1796,-0.185,-0.1906,-0.1906,-0.1964,-0.2018,-0.2017,-0.2073,-0.2127,-0.2128,-0.2184,-0.224,-0.2354,-0.241,-0.2635,-0.2691,-0.2691,-0.28,-0.291,-0.2965,-0.2968,-0.3135,-0.3304,-0.3416,-0.3471,-0.3527,-0.3583,-0.3638,-0.3638,-0.3691,-0.3799,-0.391,-0.3965,-0.4079,-0.4301,-0.4522,-0.4959,-0.5454,-0.5832,-0.6213,-0.6544,-0.6869,-0.7036,-0.7203,-0.7257,-0.7419,-0.758,-0.7628,-0.7568,-0.7568,-0.7509,-0.7467,-0.7365,-0.7311,-0.7306,-0.7306,-0.7164,-0.696,-0.7634,-0.7359,-0.7257,-0.6982,-0.6657,-0.683,-0.6505,-0.5832,-0.5206,-0.5046,-0.5183,-0.5128,-0.5011,-0.4846,-0.4736,-0.4739,-0.4754,-0.4912,-0.49,-0.487,-0.4892,-0.4893,-0.4794,-0.4694,-0.4758,-0.4761,-0.4558,-0.4821,-0.5219,-0.5223,-0.509,-0.4957,-0.4888,-0.4755,-0.4492,-0.4359,-0.4292,-0.4225,-0.4225,-0.4025,-0.3558,-0.3226,-0.2958,-0.2824,-0.2822,-0.2686,-0.241,-0.221,-0.2078,-0.2007,-0.174,-0.1529,-0.1491,-0.1432,-0.1569,-0.1718,-0.1721,-0.1691,-0.1741,-0.1685,-0.174,-0.1852,-0.1797,-0.1852,-0.1906,-0.1962,-0.2017,-0.2128,-0.2186,-0.2184,-0.224,-0.2354,-0.241,-0.2465,-0.2579,-0.2691,-0.2798,-0.2854,-0.2912,-0.3079,-0.319,-0.3302,-0.3302,-0.336,-0.3413,-0.3527,-0.3524,-0.3635,-0.3744,-0.3796,-0.3962,-0.4242,-0.4574,-0.4959,-0.5399,-0.5782,-0.6109,-0.6386,-0.6712,-0.6982,-0.7095,-0.7203,-0.7365,-0.7413,-0.7413,-0.7354,-0.7354,-0.7348,-0.73,-0.7252,-0.7139,-0.7139,-0.7192,-0.7132,-0.6974,-0.7203,-0.6933,-0.6815,-0.6603,-0.6282,-0.6287,-0.5959,-0.5407,-0.5007,-0.4897,-0.4956,-0.4901,-0.4736,-0.4519,-0.4242,-0.4132,-0.4172,-0.4257,-0.4389,-0.44,-0.4475,-0.4478,-0.4535,-0.442,-0.4289,-0.4225,-0.4025,-0.4225,-0.4489,-0.4489,-0.4422,-0.4356,-0.4225,-0.4025,-0.3889,-0.3761,-0.3493,-0.336,-0.336,-0.3157,-0.2751,-0.2554,-0.2423,-0.2288,-0.2153,-0.2017,-0.1883,-0.1748,-0.1748,-0.1681,-0.1614,-0.1544,-0.1599,-0.1496,-0.1516,-0.1464,-0.1462,-0.1403,-0.1517,-0.1459,-0.1515,-0.1684,-0.1685,-0.1685,-0.174,-0.1796,-0.185,-0.2015,-0.2023,-0.2085,-0.2143,-0.225,-0.2244,-0.2308,-0.2433,-0.2482,-0.2587,-0.2631,-0.2689,-0.2802,-0.2914,-0.3021,-0.3132,-0.3132,-0.319,-0.3302,-0.3416,-0.3471,-0.358,-0.3688,-0.3852,-0.4132,-0.4463,-0.4849,-0.5234,-0.5673,-0.6005,-0.6277,-0.6549,-0.6874,-0.6987,-0.7095,-0.7144,-0.7198,-0.7192,-0.7192,-0.7246,-0.7192,-0.7139,-0.7139,-0.7139,-0.7133,-0.7139,-0.7052,-0.688,-0.6328,-0.6386,-0.6268,-0.6,-0.5736,-0.5859,-0.5631,-0.5069,-0.4618,-0.4512,-0.4625,-0.4463,-0.4298,-0.4187,-0.3965,-0.3907,-0.3922,-0.3866,-0.384,-0.39,-0.3958,-0.3951,-0.3923,-0.386,-0.3825,-0.3625,-0.3491,-0.3355,-0.3556,-0.3692,-0.3692,-0.3692,-0.3627,-0.3493,-0.3288,-0.3159,-0.2958,-0.2757,-0.2555,-0.2285,-0.2016,-0.1883,-0.1951,-0.1884,-0.1748,-0.1681,-0.1614,-0.1479,-0.1412,-0.1412,-0.1346,-0.1347,-0.1338,-0.1313,-0.1281,-0.1268,-0.1157,-0.1228,-0.1357,-0.1294,-0.1409,-0.1462,-0.1462,-0.1459,-0.1515,-0.152,-0.1576,-0.1738,-0.1773,-0.1902,-0.2026,-0.211,-0.2184,-0.2242,-0.232,-0.2368,-0.2409,-0.2363,-0.2465,-0.2577,-0.2635,-0.2745,-0.2854,-0.3021,-0.3077,-0.3188,-0.3246,-0.3246,-0.3413,-0.3522,-0.3744,-0.4021,-0.4353,-0.4739,-0.5124,-0.5508,-0.5841,-0.6119,-0.6332,-0.6603,-0.6874,-0.6928,-0.6982,-0.7031,-0.7139,-0.7139,-0.7085,-0.7085,-0.7085,-0.7085,-0.7133,-0.7085,-0.7009,-0.6886,-0.6657,-0.5375,-0.5604,-0.5592,-0.5449,-0.5242,-0.5423,-0.5195,-0.468,-0.4181,-0.4125,-0.4181,-0.4021,-0.3858,-0.3799,-0.3685,-0.3574,-0.3516,-0.3466,-0.3426,-0.3406,-0.3375,-0.3297,-0.3275,-0.323,-0.3068,-0.296,-0.2757,-0.2688,-0.2621,-0.2688,-0.2824,-0.2958,-0.296,-0.2824,-0.269,-0.2554,-0.2421,-0.222,-0.2018,-0.1816,-0.1614,-0.1546,-0.1614,-0.1547,-0.1548,-0.1481,-0.1413,-0.1346,-0.1279,-0.1212,-0.1213,-0.1079,-0.094,-0.0928,-0.0912,-0.0901,-0.0878,-0.0975,-0.1121,-0.1218,-0.1266,-0.1266,-0.1323,-0.1393,-0.1331,-0.1323,-0.1382,-0.1567,-0.1589,-0.1667,-0.1795,-0.1946,-0.2009,-0.2063,-0.2168,-0.2214,-0.2312,-0.2264,-0.2284,-0.2397,-0.2444,-0.2465,-0.2631,-0.2798,-0.291,-0.3021,-0.3077,-0.3077,-0.3188,-0.3357,-0.358,-0.3858,-0.419,-0.4519,-0.4849,-0.5238,-0.5626,-0.5955,-0.6173,-0.6386,-0.6603,-0.6766,-0.6869,-0.6923,-0.7031,-0.6977,-0.6923,-0.6977,-0.7031,-0.6977,-0.6923,-0.6977,-0.6913,-0.6717,-0.6452,-0.4524,-0.4474,-0.4834,-0.4948,-0.4901,-0.4698,-0.4473,-0.4245,-0.3965,-0.3852,-0.3796,-0.3577,-0.3413,-0.3411,-0.3241,-0.3074,-0.2961,-0.2963,-0.2904,-0.2845,-0.2783,-0.2686,-0.2649,-0.2515,-0.2428,-0.2274,-0.2217,-0.2085,-0.1951,-0.195,-0.2085,-0.2221,-0.2356,-0.2154,-0.2085,-0.2084,-0.1884,-0.1749,-0.1615,-0.1682,-0.1548,-0.1481,-0.1412,-0.1413,-0.128,-0.1146,-0.1146,-0.1011,-0.1011,-0.1011,-0.0944,-0.0809,-0.0606,-0.0536,-0.0463,-0.0456,-0.0453,-0.0569,-0.0742,-0.0973,-0.116,-0.1286,-0.1343,-0.1333,-0.1268,-0.1342,-0.1409,-0.14,-0.1407,-0.1476,-0.154,-0.1606,-0.1752,-0.1873,-0.1992,-0.2099,-0.2132,-0.2206,-0.2234,-0.2276,-0.2307,-0.2329,-0.2352,-0.2575,-0.2745,-0.2798,-0.2912,-0.2912,-0.3079,-0.3246,-0.3416,-0.3694,-0.3971,-0.4245,-0.4519,-0.4908,-0.5352,-0.5681,-0.5896,-0.6168,-0.6386,-0.6544,-0.6652,-0.6761,-0.6761,-0.6761,-0.6707,-0.6766,-0.6815,-0.6761,-0.675,-0.6773,-0.6634,-0.6421,-0.6152,-0.372,-0.3587,-0.3696,-0.3941,-0.4298,-0.4082,-0.3919,-0.3805,-0.3466,-0.3297,-0.3239,-0.3077,-0.297,-0.2914,-0.28,-0.2631,-0.2462,-0.235,-0.2317,-0.2232,-0.2159,-0.2145,-0.2087,-0.2086,-0.2076,-0.1907,-0.173,-0.1681,-0.1748,-0.1547,-0.1481,-0.1616,-0.1751,-0.1817,-0.1748,-0.1614,-0.1481,-0.1347,-0.128,-0.1347,-0.128,-0.101,-0.0876,-0.0876,-0.0606,-0.0472,-0.0404,-0.0404,-0.0404,-0.0404,-0.0404,-0.027,-0.0135,-0.0,0.0134,0.0133,0.0066,-0.0,-0.0259,-0.0632,-0.105,-0.1112,-0.1111,-0.1114,-0.112,-0.1176,-0.1174,-0.1178,-0.1258,-0.1331,-0.1459,-0.1545,-0.1631,-0.1685,-0.1734,-0.1845,-0.1944,-0.1967,-0.2047,-0.209,-0.2169,-0.2187,-0.2213,-0.2296,-0.2465,-0.2577,-0.2691,-0.2805,-0.297,-0.3081,-0.3249,-0.3471,-0.3749,-0.4027,-0.4356,-0.4688,-0.5077,-0.5352,-0.5622,-0.5896,-0.6109,-0.6282,-0.6386,-0.6495,-0.6544,-0.6544,-0.6544,-0.6549,-0.6603,-0.6603,-0.6607,-0.6589,-0.6406,-0.6137,-0.5826,-0.3056,-0.2865,-0.272,-0.3066,-0.3629,-0.3456,-0.3304,-0.3304,-0.3021,-0.274,-0.2627,-0.2519,-0.241,-0.241,-0.2352,-0.2242,-0.2128,-0.2017,-0.1849,-0.1753,-0.1718,-0.1688,-0.1668,-0.1652,-0.164,-0.1415,-0.118,-0.1063,-0.1009,-0.1076,-0.0942,-0.0876,-0.1078,-0.1077,-0.1144,-0.1144,-0.1009,-0.0808,-0.0741,-0.0741,-0.0674,-0.0539,-0.027,-0.0202,-0.0,0.0269,0.0404,0.0538,0.0538,0.0538,0.0471,0.0471,0.0606,0.0674,0.0809,0.0809,0.0809,0.0741,0.0532,-0.0065,-0.0634,-0.0638,-0.0637,-0.0701,-0.0824,-0.0824,-0.0832,-0.1086,-0.1166,-0.124,-0.137,-0.1389,-0.1399,-0.1387,-0.1579,-0.1696,-0.1745,-0.1781,-0.1865,-0.1952,-0.1968,-0.1974,-0.2047,-0.213,-0.224,-0.2354,-0.2465,-0.2579,-0.2691,-0.2858,-0.3026,-0.3249,-0.3527,-0.3802,-0.4135,-0.4411,-0.4691,-0.4963,-0.5238,-0.5563,-0.5782,-0.595,-0.6064,-0.6173,-0.6223,-0.6332,-0.6327,-0.6273,-0.6386,-0.6505,-0.645,-0.6396,-0.6095,-0.5829,-0.5642,-0.2431,-0.2276,-0.2055,-0.2347,-0.2918,-0.2815,-0.2689,-0.2745,-0.2577,-0.2352,-0.2071,-0.1959,-0.1846,-0.1847,-0.1847,-0.1849,-0.1796,-0.174,-0.1514,-0.1294,-0.1185,-0.1263,-0.1225,-0.1194,-0.1042,-0.0575,-0.0325,-0.0198,-0.0,-0.0,-0.0,-0.0,-0.0,-0.0067,-0.0067,-0.0,-0.0,-0.0,-0.0,0.0067,0.0067,0.0135,0.0337,0.0472,0.0607,0.0875,0.1211,0.1345,0.1344,0.1345,0.1412,0.1412,0.1412,0.1481,0.1481,0.148,0.148,0.1547,0.1477,0.0536,0.02,0.0066,0.0132,-0.0,-0.0267,-0.0402,-0.0466,-0.0659,-0.0935,-0.1005,-0.1075,-0.1076,-0.1076,-0.1208,-0.1403,-0.1464,-0.1516,-0.1573,-0.1665,-0.1749,-0.1691,-0.1697,-0.1828,-0.1965,-0.2017,-0.2127,-0.2184,-0.2296,-0.2465,-0.2577,-0.2745,-0.297,-0.3249,-0.3474,-0.3749,-0.4027,-0.4304,-0.4577,-0.4853,-0.5124,-0.5344,-0.5508,-0.5677,-0.5795,-0.59,-0.6005,-0.6055,-0.6,-0.6114,-0.6232,-0.6287,-0.6187,-0.5817,-0.56,-0.5462,-0.1988,-0.1881,-0.1743,-0.1789,-0.1945,-0.201,-0.2139,-0.2235,-0.2132,-0.1964,-0.1852,-0.157,-0.1458,-0.1457,-0.1457,-0.1402,-0.1402,-0.1234,-0.101,-0.0505,-0.0449,-0.0451,-0.0458,-0.0409,-0.0358,-0.0122,0.0188,0.0645,0.1048,0.0996,0.1006,0.1077,0.101,0.101,0.0876,0.0875,0.1076,0.1076,0.1076,0.1076,0.1076,0.1076,0.1075,0.1208,0.1274,0.1541,0.1877,0.1876,0.1878,0.2016,0.2017,0.2018,0.2018,0.2018,0.2018,0.2018,0.2018,0.2018,0.1951,0.1545,0.1344,0.1143,0.1008,0.0874,0.0673,0.0404,0.0202,-0.0135,-0.0404,-0.0472,-0.0605,-0.0673,-0.074,-0.1078,-0.1209,-0.1208,-0.1268,-0.1332,-0.1446,-0.1538,-0.1556,-0.1507,-0.1583,-0.1642,-0.1738,-0.1849,-0.1961,-0.2128,-0.2296,-0.2352,-0.2464,-0.2691,-0.2914,-0.314,-0.3421,-0.3641,-0.386,-0.4132,-0.4353,-0.4577,-0.4794,-0.5069,-0.5238,-0.5407,-0.5572,-0.5732,-0.5786,-0.5841,-0.5845,-0.5959,-0.6014,-0.5998,-0.5747,-0.5527,-0.542,-0.1389,-0.1259,-0.1153,-0.1082,-0.1057,-0.1274,-0.1386,-0.1483,-0.1338,-0.1234,-0.1122,-0.0954,-0.0841,-0.0841,-0.0841,-0.0841,-0.0841,-0.0673,-0.0393,0.0112,0.028,0.0337,0.0396,0.0401,0.0467,0.0535,0.0732,0.1193,0.1591,0.1634,0.1663,0.1745,0.1882,0.1683,0.1616,0.1615,0.1614,0.1614,0.1613,0.1671,0.1661,0.1651,0.1645,0.1699,0.1759,0.1962,0.2113,0.2257,0.2264,0.241,0.2488,0.2557,0.2557,0.2557,0.2557,0.2555,0.2555,0.2555,0.2555,0.2555,0.2353,0.2218,0.2017,0.1681,0.1344,0.1076,0.0942,0.0673,0.0337,0.0135,-0.0067,-0.0135,-0.0337,-0.0607,-0.0808,-0.0808,-0.1077,-0.1141,-0.1204,-0.1306,-0.14,-0.136,-0.1375,-0.1387,-0.1402,-0.157,-0.1682,-0.1905,-0.2073,-0.2128,-0.2184,-0.241,-0.2579,-0.2802,-0.2972,-0.3195,-0.3413,-0.3633,-0.3855,-0.4079,-0.4359,-0.4577,-0.4798,-0.5018,-0.5179,-0.5344,-0.5572,-0.5686,-0.574,-0.585,-0.5905,-0.5832,-0.5613,-0.547,-0.5399,-0.0582,-0.0447,-0.0269,-0.0184,-0.0191,-0.0396,-0.0463,-0.0267,-0.0221,-0.0112,-0.0,-0.0,0.0056,0.0056,0.0056,0.0056,0.0056,0.0056,0.028,0.0505,0.0729,0.0954,0.1122,0.1184,0.1146,0.1283,0.1429,0.158,0.185,0.203,0.2086,0.2186,0.2246,0.2182,0.2117,0.2117,0.2055,0.206,0.2129,0.2168,0.2135,0.2059,0.2102,0.2081,0.2068,0.2224,0.2442,0.253,0.2761,0.2926,0.3092,0.3161,0.3228,0.3228,0.3226,0.3226,0.3226,0.3224,0.3159,0.3228,0.3161,0.2958,0.2622,0.222,0.1883,0.1613,0.1547,0.1412,0.1144,0.0876,0.0607,0.0472,0.0337,0.0067,-0.0202,-0.0472,-0.0809,-0.0943,-0.1009,-0.1058,-0.1095,-0.1187,-0.1261,-0.1276,-0.1178,-0.129,-0.1402,-0.1569,-0.1737,-0.1847,-0.1961,-0.213,-0.2298,-0.241,-0.2633,-0.2802,-0.2968,-0.3186,-0.3352,-0.3577,-0.3858,-0.4138,-0.4359,-0.4577,-0.4791,-0.5011,-0.5238,-0.5462,-0.5681,-0.5736,-0.5686,-0.5721,-0.5546,-0.5439,-0.5309,-0.0045,0.0224,0.0269,0.0541,0.0916,0.0952,0.0753,0.0425,0.0701,0.0875,0.0954,0.0898,0.0895,0.0898,0.0954,0.0897,0.0897,0.0954,0.1066,0.1178,0.1234,0.1402,0.1459,0.1517,0.1583,0.1658,0.1742,0.1944,0.2214,0.2398,0.2561,0.271,0.2741,0.2735,0.2732,0.2721,0.2567,0.2463,0.2603,0.2562,0.264,0.262,0.2591,0.2575,0.2563,0.2731,0.2914,0.3011,0.3257,0.3531,0.3623,0.3627,0.3627,0.3694,0.3828,0.3956,0.3956,0.3956,0.3828,0.3763,0.3761,0.3694,0.3424,0.3023,0.2621,0.2285,0.2153,0.195,0.1816,0.1481,0.1279,0.1144,0.101,0.074,0.0471,0.0202,-0.0135,-0.0337,-0.0471,-0.0666,-0.0714,-0.0934,-0.1079,-0.1039,-0.0954,-0.101,-0.1122,-0.1289,-0.1457,-0.1569,-0.1681,-0.185,-0.1962,-0.2074,-0.224,-0.2465,-0.2575,-0.2687,-0.2852,-0.3074,-0.3355,-0.3577,-0.3858,-0.419,-0.4463,-0.4736,-0.4956,-0.5179,-0.5352,-0.5352,-0.5344,-0.5449,-0.5444,-0.5336,-0.5262,0.0806,0.094,0.094,0.121,0.1621,0.1752,0.1546,0.1269,0.1348,0.1385,0.1482,0.1428,0.1495,0.1456,0.1457,0.1457,0.1456,0.1456,0.1513,0.1569,0.1625,0.1737,0.1794,0.1852,0.2021,0.2091,0.2162,0.2357,0.2619,0.2915,0.3153,0.327,0.3258,0.3256,0.327,0.3281,0.3272,0.3115,0.3059,0.3032,0.3058,0.3077,0.3124,0.31,0.3152,0.3271,0.348,0.3513,0.3793,0.4022,0.4048,0.4161,0.4228,0.4295,0.4364,0.4425,0.4422,0.4425,0.4295,0.4295,0.4295,0.4225,0.4159,0.3889,0.3491,0.3159,0.2824,0.2554,0.2285,0.2084,0.195,0.1816,0.1614,0.1412,0.1144,0.0875,0.0605,0.0404,0.0134,-0.0067,-0.0323,-0.062,-0.0715,-0.0689,-0.0785,-0.0898,-0.101,-0.1066,-0.1178,-0.1346,-0.1402,-0.157,-0.1628,-0.1684,-0.185,-0.2073,-0.213,-0.224,-0.235,-0.2573,-0.2796,-0.313,-0.3466,-0.3855,-0.4242,-0.4463,-0.4684,-0.4849,-0.4963,-0.5018,-0.5073,-0.5183,-0.5259,-0.5274,-0.5136,0.1746,0.1748,0.1705,0.1837,0.2062,0.2068,0.2159,0.2178,0.1817,0.1689,0.1742,0.1759,0.1791,0.1879,0.1895,0.1903,0.1959,0.1959,0.1961,0.1902,0.2015,0.2127,0.2296,0.2352,0.2521,0.2691,0.2811,0.2884,0.3053,0.3342,0.3613,0.378,0.3758,0.3735,0.3724,0.3729,0.3706,0.3672,0.353,0.3413,0.3419,0.344,0.3527,0.3452,0.3562,0.3659,0.377,0.3996,0.4241,0.4365,0.454,0.4688,0.4831,0.4831,0.4831,0.4964,0.4957,0.4891,0.4894,0.4827,0.4827,0.4761,0.4694,0.4558,0.4161,0.3694,0.336,0.3157,0.2889,0.2753,0.2552,0.2353,0.2151,0.195,0.1681,0.148,0.1211,0.0942,0.0672,0.0464,0.0193,-0.0062,-0.0241,-0.0233,-0.0281,-0.0617,-0.0785,-0.0785,-0.0841,-0.101,-0.1122,-0.1234,-0.129,-0.1346,-0.1458,-0.1626,-0.1684,-0.1794,-0.1905,-0.2128,-0.2354,-0.2742,-0.3128,-0.3519,-0.391,-0.4132,-0.4353,-0.4522,-0.4688,-0.4794,-0.4901,-0.4959,-0.5008,-0.5087,-0.5092,0.2103,0.2326,0.2417,0.2464,0.2551,0.2645,0.2702,0.2728,0.2616,0.2403,0.2188,0.2254,0.2298,0.2377,0.2434,0.2456,0.2464,0.2464,0.2521,0.2519,0.2573,0.2685,0.2907,0.3019,0.319,0.3304,0.3416,0.3469,0.3588,0.3789,0.3916,0.3951,0.3972,0.4047,0.4044,0.3986,0.4014,0.4097,0.4008,0.3923,0.3877,0.3851,0.3875,0.3855,0.3925,0.3978,0.4094,0.4279,0.4417,0.4556,0.4692,0.4951,0.5229,0.5229,0.5362,0.5561,0.5557,0.5491,0.5422,0.5355,0.5289,0.509,0.5024,0.4894,0.4628,0.4161,0.3828,0.3694,0.3558,0.3355,0.3153,0.2956,0.2755,0.2487,0.2285,0.2017,0.1748,0.148,0.1278,0.0985,0.0764,0.0558,0.0303,0.0177,0.0114,-0.0056,-0.0336,-0.0449,-0.0449,-0.0561,-0.0673,-0.0785,-0.0954,-0.101,-0.1122,-0.1234,-0.1347,-0.1459,-0.157,-0.1738,-0.1964,-0.2352,-0.2796,-0.313,-0.3522,-0.3744,-0.3965,-0.419,-0.4353,-0.4515,-0.4629,-0.4629,-0.4794,-0.4895,-0.4976,0.2679,0.2815,0.2951,0.3043,0.3132,0.3176,0.3223,0.3223,0.3223,0.3075,0.2873,0.2787,0.2778,0.2904,0.299,0.3051,0.3067,0.3081,0.3081,0.3135,0.3244,0.3355,0.3522,0.3685,0.3799,0.3968,0.3968,0.4076,0.4132,0.4249,0.4311,0.4353,0.4408,0.4353,0.4353,0.4405,0.4349,0.4408,0.4405,0.4349,0.4353,0.4242,0.4135,0.4079,0.4206,0.431,0.4425,0.4614,0.4817,0.4998,0.5168,0.5342,0.5561,0.5627,0.5693,0.5756,0.5822,0.5892,0.5822,0.5752,0.5686,0.5554,0.5488,0.5425,0.5359,0.4957,0.4564,0.4361,0.4161,0.4023,0.3823,0.3556,0.3424,0.3224,0.2956,0.2757,0.2353,0.2017,0.1748,0.1535,0.1286,0.0985,0.084,0.0813,0.0733,0.0505,0.028,0.0056,0.0056,-0.0,-0.0168,-0.0336,-0.0449,-0.0729,-0.101,-0.1066,-0.1122,-0.1178,-0.1234,-0.1458,-0.1682,-0.2074,-0.2464,-0.2742,-0.3021,-0.3297,-0.3519,-0.3688,-0.391,-0.4073,-0.4187,-0.4304,-0.4463,-0.468,-0.4732,0.3347,0.3394,0.3483,0.3578,0.3667,0.3667,0.3711,0.3711,0.3667,0.3667,0.3615,0.3309,0.3349,0.3391,0.3512,0.3587,0.3646,0.3677,0.3688,0.3747,0.3855,0.3962,0.4128,0.4236,0.4405,0.4463,0.4519,0.4574,0.4629,0.4688,0.4739,0.4901,0.4901,0.4901,0.4901,0.4901,0.4846,0.4791,0.4791,0.4846,0.4736,0.4519,0.4408,0.4411,0.4522,0.4691,0.4793,0.4955,0.5174,0.5398,0.5577,0.5774,0.5954,0.5954,0.5951,0.6017,0.6152,0.6222,0.6156,0.6156,0.6086,0.6017,0.602,0.5954,0.5951,0.569,0.5296,0.5096,0.4894,0.4625,0.4422,0.4159,0.4025,0.3892,0.3627,0.336,0.2958,0.2554,0.2285,0.2083,0.1814,0.1545,0.1376,0.1389,0.1249,0.1072,0.0898,0.0729,0.0617,0.0561,0.0505,0.0336,0.0168,-0.0224,-0.0617,-0.0785,-0.0785,-0.0841,-0.0897,-0.1122,-0.1402,-0.1682,-0.1905,-0.213,-0.2408,-0.2796,-0.3019,-0.3188,-0.3408,-0.363,-0.3744,-0.3858,-0.4135,-0.4294,-0.4408,0.414,0.4188,0.4144,0.414,0.4188,0.4188,0.4188,0.4188,0.4188,0.4188,0.4152,0.4176,0.4046,0.3752,0.3952,0.4071,0.4164,0.4232,0.4284,0.4353,0.4463,0.4629,0.4736,0.4846,0.4956,0.4959,0.5018,0.4959,0.5018,0.4959,0.4901,0.4956,0.4956,0.4956,0.4956,0.4956,0.5011,0.5011,0.5011,0.5011,0.4956,0.4846,0.4791,0.4791,0.4846,0.4846,0.489,0.5008,0.5229,0.5441,0.5755,0.604,0.6218,0.6346,0.6342,0.6474,0.6548,0.6683,0.6683,0.6683,0.6613,0.6539,0.6544,0.6478,0.6412,0.6284,0.6024,0.583,0.5561,0.5156,0.4891,0.4697,0.45,0.4295,0.4092,0.3892,0.3558,0.3224,0.2956,0.273,0.2479,0.2208,0.1906,0.1844,0.1726,0.154,0.1292,0.1123,0.1065,0.1065,0.1122,0.0953,0.0785,0.0393,-0.0056,-0.0336,-0.0393,-0.0449,-0.0561,-0.0673,-0.0897,-0.1178,-0.1402,-0.1569,-0.1905,-0.2294,-0.2464,-0.2631,-0.2907,-0.313,-0.3186,-0.3355,-0.3688,-0.391,-0.4021]},{"header":{"parameterUnit":"m.s-1","parameterCategory":1,"la1":31.0,"la2":29.5877,"lo1":-88.7671,"lo2":-86.6584,"dy":0.0162,"dx":0.0185,"nx":115,"ny":88,"refTime":"2023-05-20T12:00:00:Z","depth":0,"parameterNumber":3,"parameterNumberName":"V-component_of_WINDS"},"data":[0.0,0.0,0.0,0.0,0.0,0.0,0.0,0.0,0.0,0.0,0.0,0.0,0.0,0.0,0.0,0.0,0.0,0.0,0.0,0.0,0.0,0.0,0.0,0.0,0.0,0.0,0.0,0.0,0.0,0.0,0.0,0.0,0.0,0.0,0.0,0.0,0.0,0.0,0.0,0.0,0.0,0.0,0.0,0.0,0.0,0.0,0.0,0.0,0.0,0.0,0.0,0.0,0.0,0.0,0.0,0.0,0.0,0.0,0.0,0.0,0.0,0.0,0.0,0.0,0.0,0.0,0.0,0.0,0.0,0.0,0.0,0.0,0.0,0.0,0.0,0.0,0.0,0.0,0.0,0.0,0.0,0.0,0.0,0.0,0.0,0.0,0.0,0.0,0.0,0.0,0.0,0.0,0.0,0.0,0.0,0.0,0.0,0.0,0.0,0.0,0.0,0.0,0.0,0.0,0.0,0.0,0.0,0.0,0.0,0.0,0.0,0.0,0.0,0.0,0.0,0.0,0.0,0.0,0.0,0.0,0.0,0.0,0.0,0.0,0.0,0.0,0.0,0.0,0.0,0.0,0.0,0.0,0.0,0.0,0.0,0.0,0.0,0.0,0.0,0.0,0.0,0.0,0.0,0.0,0.0,0.0,0.0,0.0,0.0,0.0,0.0,0.0,0.0,0.0,0.0,0.0,0.0,0.0,0.0,0.0,0.0,0.0,0.0,0.0,0.0,0.0,0.0,0.0,0.0,0.0,0.0,0.0,0.0,0.0,0.0,0.0,0.0,0.0,0.0,0.0,0.0,0.0,0.0,0.0,0.0,0.0,0.0,0.0,0.0,0.0,0.0,0.0,0.0,0.0,0.0,0.0,0.0,0.0,0.0,0.0,0.0,0.0,0.0,0.0,0.0,0.0,0.0,0.0,0.0,0.0,0.0,0.0,0.0,0.0,0.0,0.0,0.0,0.0,0.0,0.0,0.0,0.0,0.0,0.0,0.0,0.0,0.0,0.0,0.0,0.0,0.0,0.0,0.0,0.0,0.0,0.0,0.0,0.0,0.0,0.0,0.0,0.0,0.0,0.0,0.0,0.0,0.0,0.0,0.0,0.0,0.0,0.0,0.0,0.0,0.0,0.0,0.0,0.0,0.0,0.0,0.0,0.0,0.0,0.0,0.0,0.0,0.0,0.0,0.0,0.0,0.0,0.0,0.0,0.0,0.0,0.0,0.0,0.0,0.0,0.0,0.0,0.0,0.0,0.0,0.0,0.0,0.0,0.0,0.0,0.0,0.0,0.0,0.0,0.0,0.0,0.0,0.0,0.0,0.0,0.0,0.0,0.0,0.0,0.0,0.0,0.0,0.0,0.0,0.0,0.0,0.0,0.0,0.0,0.0,0.0,0.0,0.0,0.0,0.0,0.0,0.0,0.0,0.0,0.0,0.0,0.0,0.0,0.0,0.0,0.0,0.0,0.0,0.0,0.0,0.0,0.0,0.0,0.0,0.0,0.0,0.0,0.0,0.0,0.0,0.0,0.0,0.0,0.0,0.0,0.0,0.0,0.0,0.0,0.0,0.0,0.0,0.0,0.0,0.0,0.0,0.0,0.0,0.0,0.0,0.0,0.0,0.0,0.0,0.0,0.0,0.0,0.0,0.0,0.0,0.0,0.0,0.0,0.0,0.0,0.0,0.0,0.0,0.0,0.0,0.0,0.0,0.0,0.0,0.0,0.0,0.0,0.0,0.0,0.0,0.0,0.0,0.0,0.0,0.0,0.0,0.0,0.0,0.0,0.0,0.0,0.0,0.0,0.0,0.0,0.0,0.0,0.0,0.0,0.0,0.0,0.0,0.0,0.0,0.0,0.0,0.0,0.0,0.0,0.0,0.0,0.0,0.0,0.0,0.0,0.0,0.0,0.0,0.0,0.0,0.0,0.0,0.0,0.0,0.0,0.0,0.0,0.0,0.0,0.0,0.0,0.0,0.0,0.0,0.0,0.0,0.0,0.0,0.0,0.0,0.0,0.0,0.0,0.0,0.0,0.0,0.0,0.0,0.0,0.0,0.0,0.0,0.0,0.0,0.0,0.0,0.0,0.0,0.0,0.0,0.0,0.0,0.0,0.0,0.0,0.0,0.0,0.0,0.0,0.0,0.0,0.0,0.0,0.0,0.0,0.0,0.0,0.0,0.0,0.0,0.0,0.0,0.0,0.0,0.0,0.0,0.0,0.0,0.0,0.0,0.0,0.0,0.0,0.0,0.0,0.0,0.0,0.0,0.0,0.0,0.0,0.0,0.0,0.0,0.0,0.0,0.0,0.0,0.0,0.0,0.0,0.0,0.0,0.0,0.0,0.0,0.0,0.0,0.0,0.0,0.0,0.0,0.0,0.0,0.0,0.0,0.0,0.0,0.0,0.0,0.0,0.0,0.0,0.0,0.0,0.0,0.0,0.0,0.0,0.0,0.0,0.0,0.0,0.0,0.0,0.0,0.0,0.0,0.0,0.0,0.0,0.0,0.0,0.0,0.0,0.0,0.0,0.0,0.0,0.0,0.0,0.0,0.0,0.0,0.0,0.0,0.0,0.0,0.0,0.0,0.0,0.0,0.0,0.0,0.0,0.0,0.0,0.0,0.0,0.0,0.0,0.0,0.0,0.0,0.0,0.0,0.0,0.0,0.0,0.0,0.0,0.0,0.0,0.0,0.0,0.0,0.0,0.0,0.0,0.0,0.0,0.0,0.0,0.0,0.0,0.0,0.0,0.0,0.0,0.0,0.0,0.0,0.0,0.0,0.0,0.0,0.0,0.0,0.0,0.0,0.0,0.0,0.0,0.0,0.0,0.0,0.0,0.0,0.0,0.0,0.0,0.0,0.0,0.0,0.0,0.0,0.0,0.0,0.0,0.0,0.0,0.0,0.0,0.0,0.0,0.0,0.0,0.0,0.0,0.0,0.0,0.0,0.0,0.0,0.0,0.0,0.0,0.0,0.0,0.0,0.0,0.0,0.0,0.0,0.0,0.0,0.0,0.0,0.0,0.0,0.0,0.0,0.0,0.0,0.0,0.0,0.0,0.0,0.0,0.0,0.0,0.0,0.0,0.0,0.0,0.0,0.0,0.0,0.0,0.0,0.0,0.0,0.0,0.0,0.0,0.0,0.0,0.0,0.0,0.0,0.0,0.0,0.0,0.0,0.0,0.0,0.0,0.0,0.0,0.0,0.0,0.0,0.0,0.0,0.0,0.0,0.0,0.0,0.0,0.0,0.0,0.0,0.0,0.0,0.0,0.0,0.0,0.0,0.0,0.0,0.0,0.0,0.0,0.0,0.0,0.0,0.0,0.0,0.0,0.0,0.0,0.0,0.0,0.0,0.0,0.0,0.0,0.0,0.0,0.0,0.0,0.0,0.0,0.0,0.0,0.0,0.0,0.0,0.0,0.0,0.0,0.0,0.0,0.0,0.0,0.0,0.0,0.0,0.0,0.0,0.0,0.0,0.0,0.0,0.0,0.0,0.0,0.0,0.0,0.0,0.0,0.0,0.0,0.0,0.0,0.0,0.0,0.0,0.0,0.0,0.0,0.0,0.0,0.0,0.0,0.0,0.0,0.0,0.0,0.0,0.0,0.0,0.0,0.0,0.0,0.0,0.0,0.0,0.0,0.0,0.0,0.0,0.0,0.0,0.0,0.0,0.0,0.0,0.0,0.0,0.0,0.0,0.0,0.0,0.0,0.0,0.0,0.0,0.0,0.0,0.0,0.0,0.0,0.0,0.0,0.0,0.0,0.0,0.0,0.0,0.0,0.0,0.0,0.0,0.0,0.0,0.0,0.0,0.0,0.0,0.0,0.0,0.0,0.0,0.0,0.0,0.0,0.0,0.0,0.0,0.0,0.0,0.0,0.0,0.0,0.0,0.0,0.0,0.0,0.0,0.0,0.0,0.0,0.0,0.0,0.0,0.0,0.0,0.0,0.0,0.0,0.0,0.0,0.0,0.0,0.0,0.0,0.0,0.0,0.0,0.0,0.0,0.0,0.0,0.0,0.0,0.0,0.0,0.0,0.0,0.0,0.0,0.0,0.0,0.0,0.0,0.0,0.0,0.0,0.0,0.0,0.0,0.0,0.0,0.0,0.0,0.0,0.0,0.0,0.0,0.0,0.0,0.0,0.0,0.0,0.0,0.0,0.0,0.0,0.0,0.0,0.0,0.0,0.0,0.0,0.0,0.0,0.0,0.0,0.0,0.0,0.0,0.0,0.0,0.0,0.0,0.0,0.0,0.0,0.0,0.0,0.0,0.1474,0.0,0.0,0.0,0.0,0.0,0.0,0.0,0.0,0.0,0.0,0.0,0.0,0.0,0.0,0.0,0.0,0.0,0.0,0.0,0.0,0.0,0.0,0.0,0.0,0.0,0.0,0.0,0.0,0.0,0.0,0.0,0.0,0.0,0.0,0.0,0.0,0.0,0.0,0.0,0.0,0.0,0.0,0.0,0.0,0.0,0.0,0.0,0.0,0.0,0.0,0.0,0.0,0.0,0.0,0.0,0.0,0.0,0.0,0.0,0.0,0.0,0.0,0.0,0.0,0.0,0.0,0.0,0.0,0.0,0.0,0.0,0.0,0.0,0.0,0.0,0.0,0.0,0.0,0.0,0.0,0.0,0.0,0.0,0.0,0.0,0.0,0.0,0.0,0.0,0.0,0.0,0.0,0.0,0.0,0.0,0.0,0.0,0.0,0.0,0.0,0.0,0.0,0.0,0.0,0.0,0.0,0.0,0.0,0.0,0.0,0.1638,0.1211,0.1146,0.0992,0.0634,0.0,0.0,0.0,0.0,0.0,0.0,0.0,0.0,0.0,0.0,0.0,0.0,0.0,0.0,0.0,0.0,0.0,0.0,0.0,0.0,0.0,0.0,0.0,0.0,0.0,0.0,0.0,0.0,0.0,0.0,0.0,0.0,0.0,0.0,0.0,0.0,0.0,0.0,0.0,0.0,0.0,0.0,0.0,0.0,0.0,0.0,0.0,0.0,0.0,0.0,0.0,0.0,0.0,0.0,0.0,0.0,0.0,0.0,0.0,0.0,0.0,0.0,0.0,0.0,0.0,0.0,0.0,0.0,0.0,0.0,0.0,0.0,0.0,0.0,0.0,0.0,0.0,0.0,0.0,0.0,0.0,0.0,0.0,0.0,0.0,0.0,0.0,0.0,0.0,0.0,0.0,0.0,0.0,0.0,0.0,0.0,0.0,0.0,0.0,0.0,0.0,0.0,0.0,0.0,0.0,0.0,0.0,0.0,0.0,0.0,0.0,0.0,-0.0278,-0.0272,-0.0256,0.0,0.0,0.0,0.0,0.0,0.0,0.0,0.0,0.0,0.0,0.0,0.0,0.0,0.0,0.0,0.0,0.0,0.0,0.0,0.0,0.0,0.0,0.0,0.0,0.0,0.0,0.0,0.0,0.0,0.0,0.0,0.0,0.0,0.0,0.0,0.0,0.0,0.0,0.0,0.0,0.0,0.0,0.0,0.0,0.0,0.0,0.0,0.0,0.0,0.0,0.0,0.0,0.0,0.0,0.0,0.0,0.0,0.0,0.0,0.0,0.0,0.0,0.0,0.0,0.0,0.0,0.0,0.0,0.0,0.0,0.0,0.0,0.0,0.0,0.0,0.0,0.0,0.0,0.0,0.0,0.0,0.0,0.0,0.0,0.0,0.0,0.0,0.0,0.0,0.0,0.0,0.0,0.0,0.0,0.0,0.0,0.0,0.0,0.0,0.0,0.0,0.0,0.0,0.0,0.0,0.0,0.0,0.0,0.0,0.0,-0.1132,-0.1154,-0.17,0.0,-0.1057,0.0,0.0,0.0,0.0,0.0,0.0,0.0,0.0,0.0,0.0,0.0,0.0,0.0,0.0,0.0,0.0,0.0,0.0,0.0,0.0,0.0,0.0,0.0,0.0,0.0,0.0,0.0,0.0,0.0,0.0,0.0,0.0,0.0,0.0,0.0,0.0,0.0,0.0,0.0,0.0,0.0,0.0,0.0,0.0,0.0,0.0,0.0,0.0,0.0,0.0,0.0,0.0,0.0,0.0,0.0,0.0,0.0,0.0,0.0,0.0,0.0,0.0,0.0,0.0,0.0,0.0,0.0,0.0,0.0,0.0,0.0,0.0,0.0,0.0,0.0,0.0,0.0,0.0,0.0,0.0,0.0,0.0,0.0,0.0,0.0,0.0,0.0,0.0,0.0,0.0,0.0,0.0,0.0,0.0,0.0,0.0,0.0,0.0,0.0,0.0,0.0,0.0,0.0,0.0,0.0,0.0,0.0,0.0,0.0,0.0,-0.2879,-0.2904,-0.3046,-0.2757,0.0,0.0,0.0,0.0,0.0,0.0,0.0,0.0,0.0,0.0,0.0,0.0,0.0,0.0,0.0,0.0,0.0,0.0,0.0,0.0,0.0,0.0,0.0,0.0,0.0,0.0,0.0,0.0,0.0,0.0,0.0,0.0,0.0,0.0,0.0,0.0,0.0,0.0,0.0,0.0,0.0,0.0,0.0,0.0,0.0,0.0,0.0,0.0,0.0,0.0,0.0,0.0,0.0,0.0,0.0,0.0,0.0,0.0,0.0,0.0,0.0,0.0,0.0,0.0,0.0,0.0,0.0,0.0,0.0,0.0,0.0,0.0,0.0,0.0,0.0,0.0,0.0,0.0,0.0,0.0,0.0,0.0,0.0,0.0,0.0,0.0,0.0,0.0,0.0,0.0,0.0,0.0,0.0,0.0,0.0,0.0,0.0,0.0,0.0,0.0,0.0,0.0,0.0,0.0,0.0,0.0,0.0,0.0,0.0,0.0,-0.4161,-0.4426,-0.4632,-0.4553,-0.4121,-0.3261,0.0,0.0,0.0,0.0,0.0,0.0,0.0,0.0,0.0,0.0,0.0,0.0,0.0,0.0,0.0,0.0,0.0,0.0,0.0,0.0,0.0,0.0,0.0,0.0,0.0,0.0,0.0,0.0,0.0,0.0,0.0,0.0,0.0,0.0,0.0,0.0,0.0,0.0,0.0,0.0,0.0,0.0,0.0,0.0,0.0,0.0,0.0,0.0,0.0,0.0,0.0,0.0,0.0,0.0,0.0,0.0,0.0,0.0,0.0,0.0,0.0,0.0,0.0,0.0,0.0,0.0,0.0,0.0,0.0,0.0,0.0,0.0,0.0,0.0,0.0,0.0,0.0,0.0,0.0,0.0,0.0,0.0,0.0,0.0,0.0,0.0,0.0,0.0,0.0,0.0,0.0,0.0,0.0,0.0,0.0,0.0,0.0,0.0,0.0,0.0,0.0,0.0,0.0,0.0,0.0,0.0,0.0,0.0,-0.4663,-0.5222,-0.5789,-0.6279,-0.6279,-0.5834,0.0,0.0,0.0,0.0,0.0,0.0,0.0,0.0,0.0,0.0,0.0,0.0,0.0,0.0,0.0,0.0,0.0,0.0,0.0,0.0,0.0,0.0,0.0,0.0,0.0,0.0,0.0,0.0,0.0,0.0,0.0,0.0,0.0,0.0,0.0,0.0,0.0,0.0,0.0,0.0,0.0,0.0,0.0,0.0,0.0,0.0,0.0,0.0,0.0,0.0,0.0,0.0,0.0,0.0,0.0,0.0,0.0,0.0,0.0,0.0,0.0,0.0,0.0,0.0,0.0,0.0,0.0,0.0,0.0,0.0,0.0,0.0,0.0,0.0,0.0,0.0,0.0,0.0,0.0,0.0,0.0,0.0,0.0,0.0,0.0,0.0,0.0,0.0,0.0,0.0,0.0,0.0,0.0,0.0,0.0,0.0,0.0,0.0,0.0,0.0,0.0,0.0,0.0,0.0,0.0,0.0,0.0,0.0,0.0,-0.6097,-0.718,-0.7855,-0.7858,-0.7986,-0.7583,0.0,0.0,0.0,0.0,0.0,0.0,0.0,0.0,0.0,0.0,0.0,0.0,0.0,0.0,0.0,0.0,0.0,0.0,0.0,0.0,0.0,0.0,0.0,0.0,0.0,0.0,0.0,0.0,0.0,0.0,0.0,0.0,0.0,0.0,0.0,0.0,0.0,0.0,0.0,0.0,0.0,0.0,0.0,0.0,0.0,0.0,0.0,0.0,0.0,0.0,0.0,0.0,0.0,0.0,0.0,0.0,0.0,0.0,0.0,0.0,0.0,0.0,0.0,0.0,0.0,0.0,0.0,0.0,0.0,0.0,0.0,0.0,0.0,0.0,0.0,0.0,0.0,0.0,0.0,0.0,0.0,0.0,0.0,0.0,0.0,0.0,0.0,0.0,0.0,0.0,0.0,0.0,0.0,0.0,0.0,0.0,0.0,0.0,0.0,0.0,0.0,0.0,0.0,0.0,0.0,0.0,0.0,0.0,0.0,-0.8058,0.0,-0.9864,-0.982,-0.994,-0.9494,0.0,0.0,0.0,0.0,0.0,0.0,0.0,0.0,0.0,0.0,0.0,0.0,0.0,0.0,0.0,0.0,0.0,0.0,0.0,0.0,0.0,0.0,0.0,0.0,0.0,0.0,0.0,0.0,0.0,0.0,0.0,0.0,0.0,0.0,0.0,0.0,0.0,0.0,0.0,0.0,0.0,0.0,0.0,0.0,0.0,0.0,0.0,0.0,0.0,0.0,0.0,0.0,0.0,0.0,0.0,0.0,0.0,0.0,0.0,0.0,0.0,0.0,0.0,0.0,0.0,0.0,0.0,0.0,0.0,0.0,0.0,0.0,0.0,0.0,0.0,0.0,0.0,0.0,0.0,0.0,0.0,0.0,0.0,0.0,0.0,0.0,0.0,0.0,0.0,0.0,0.0,0.0,0.0,0.0,0.0,0.0,0.0,0.0,0.0,0.0,0.0,0.0,0.0,0.0,0.0,0.0,0.0,0.0,-0.8432,-1.0509,-1.1262,-1.1855,-1.2099,-1.2163,-1.164,0.0,0.0,0.0,0.0,0.0,0.0,0.0,0.0,0.0,0.0,0.0,0.0,0.0,0.0,0.0,0.0,0.0,0.0,0.0,0.0,0.0,0.0,0.0,0.0,0.0,0.0,0.0,0.0,0.0,0.0,0.0,0.0,0.0,0.0,0.0,0.0,0.0,0.0,0.0,0.0,0.0,0.0,0.0,0.0,0.0,0.0,0.0,0.0,0.0,0.0,0.0,0.0,0.0,0.0,0.0,0.0,0.0,0.0,0.0,0.0,0.0,0.0,0.0,0.0,0.0,0.0,0.0,0.0,0.0,0.0,0.0,0.0,0.0,0.0,0.0,0.0,0.0,0.0,0.0,0.0,0.0,0.0,0.0,0.0,0.0,0.0,0.0,0.0,0.0,0.0,0.0,0.0,0.0,0.0,0.0,0.0,0.0,0.0,0.0,0.0,0.0,0.0,0.0,0.0,0.0,0.0,0.0,0.0,0.0,-1.3194,-1.3839,-1.4329,-1.4648,-1.4762,-1.4141,0.0,0.0,0.0,0.0,0.0,0.0,0.0,0.0,0.0,0.0,0.0,0.0,0.0,0.0,0.0,0.0,0.0,0.0,0.0,0.0,0.0,0.0,0.0,0.0,0.0,0.0,0.0,0.0,0.0,0.0,0.0,0.0,0.0,0.0,0.0,0.0,0.0,0.0,0.0,0.0,0.0,0.0,0.0,0.0,0.0,0.0,0.0,0.0,0.0,0.0,0.0,0.0,0.0,0.0,0.0,0.0,0.0,0.0,0.0,0.0,0.0,0.0,0.0,0.0,0.0,0.0,0.0,0.0,0.0,0.0,0.0,0.0,0.0,0.0,0.0,0.0,0.0,0.0,0.0,0.0,0.0,0.0,0.0,0.0,0.0,0.0,0.0,0.0,0.0,0.0,0.0,0.0,0.0,0.0,0.0,0.0,0.0,0.0,0.0,0.0,0.0,0.0,0.0,0.0,0.0,0.0,0.0,0.0,0.0,-1.8012,-1.7452,-1.7305,-1.7707,-1.7651,-1.6925,-1.554,0.0,0.0,0.0,0.0,0.0,0.0,0.0,0.0,0.0,0.0,0.0,0.0,0.0,0.0,0.0,0.0,0.0,0.0,0.0,0.0,0.0,0.0,0.0,0.0,0.0,0.0,0.0,0.0,0.0,0.0,0.0,0.0,0.0,0.0,0.0,0.0,0.0,0.0,0.0,0.0,0.0,0.0,0.0,0.0,0.0,0.0,0.0,0.0,0.0,0.0,0.0,0.0,0.0,0.0,0.0,0.0,0.0,0.0,0.0,0.0,0.0,0.0,0.0,0.0,0.0,0.0,0.0,0.0,0.0,0.0,0.0,0.0,0.0,0.0,0.0,0.0,0.0,0.0,0.0,0.0,0.0,0.0,0.0,0.0,0.0,0.0,0.0,0.0,0.0,0.0,0.0,0.0,0.0,0.0,0.0,0.0,0.0,0.0,0.0,0.0,0.0,0.0,0.0,0.0,0.0,0.0,0.0,0.0,-2.4388,-2.1933,-2.0871,-2.1199,-2.0727,-1.9911,0.0,0.0,0.0,0.0,0.0,0.0,0.0,0.0,0.0,0.0,0.0,0.0,0.0,0.0,0.0,0.0,0.0,0.0,0.0,0.0,0.0,0.0,0.0,0.0,0.0,0.0,0.0,0.0,0.0,0.0,0.0,0.0,0.0,0.0,0.0,0.0,0.0,0.0,0.0,0.0,0.0,0.0,0.0,0.0,0.0,0.0,0.0,0.0,0.0,0.0,0.0,0.0,0.0,0.0,0.0,0.0,0.0,0.0,0.0,0.0,0.0,0.0,0.0,0.0,0.0,0.0,0.0,0.0,0.0,0.0,0.0,0.0,0.0,0.0,0.0,0.0,0.0,0.0,0.0,0.0,0.0,0.0,0.0,0.0,0.0,0.0,0.0,0.0,0.0,0.0,0.0,0.0,0.0,0.0,0.0,0.0,0.0,0.0,0.0,0.0,0.0,0.0,0.0,0.0,0.0,0.0,0.0,0.0,0.0,-2.7206,-2.8097,-2.744,-2.5157,-2.4683,-2.3717,0.0,0.0,0.0,0.0,0.0,0.0,0.0,0.0,0.0,0.0,0.0,0.0,0.0,0.0,0.0,0.0,0.0,0.0,0.0,0.0,0.0,0.0,0.0,0.0,0.0,0.0,0.0,0.0,0.0,0.0,0.0,0.0,0.0,0.0,0.0,0.0,0.0,0.0,0.0,0.0,0.0,0.0,0.0,0.0,0.0,0.0,0.0,0.0,0.0,0.0,0.0,0.0,0.0,0.0,0.0,0.0,0.0,0.0,0.0,0.0,0.0,0.0,0.0,0.0,0.0,0.0,0.0,0.0,0.0,0.0,0.0,0.0,0.0,0.0,0.0,0.0,0.0,0.0,0.0,0.0,0.0,0.0,0.0,0.0,0.0,0.0,0.0,0.0,0.0,0.0,0.0,0.0,0.0,0.0,0.0,0.0,0.0,0.0,0.0,0.0,0.0,0.0,0.0,0.0,0.0,0.0,0.0,0.0,-2.7908,-3.0558,-3.2483,-3.2638,-3.0924,-2.9105,-2.721,0.0,0.0,0.0,0.0,0.0,0.0,0.0,0.0,0.0,0.0,0.0,0.0,0.0,0.0,0.0,0.0,0.0,0.0,0.0,0.0,0.0,0.0,0.0,0.0,0.0,0.0,0.0,0.0,0.0,0.0,0.0,0.0,0.0,0.0,0.0,0.0,0.0,0.0,0.0,0.0,0.0,0.0,0.0,0.0,0.0,0.0,0.0,0.0,0.0,0.0,0.0,0.0,0.0,0.0,0.0,0.0,0.0,0.0,0.0,0.0,0.0,0.0,0.0,0.0,0.0,0.0,0.0,0.0,0.0,0.0,0.0,0.0,0.0,0.0,0.0,0.0,0.0,0.0,0.0,0.0,0.0,0.0,0.0,0.0,0.0,0.0,0.0,0.0,0.0,0.0,0.0,0.0,0.0,0.0,0.0,0.0,0.0,0.0,0.0,0.0,0.0,0.0,0.0,0.0,0.0,0.0,0.0,0.0,-3.0711,-3.3828,-3.5576,-3.6677,-3.6972,-3.3432,-3.0499,0.0,0.0,0.0,0.0,0.0,0.0,0.0,0.0,0.0,0.0,0.0,0.0,0.0,0.0,0.0,0.0,0.0,0.0,0.0,0.0,0.0,0.0,0.0,0.0,0.0,0.0,0.0,0.0,0.0,0.0,0.0,0.0,0.0,0.0,0.0,0.0,0.0,0.0,0.0,0.0,0.0,0.0,0.0,0.0,0.0,0.0,0.0,0.0,0.0,0.0,0.0,0.0,0.0,0.0,0.0,0.0,0.0,0.0,0.0,0.0,0.0,0.0,0.0,0.0,0.0,0.0,0.0,0.0,0.0,0.0,0.0,0.0,0.0,0.0,0.0,0.0,0.0,0.0,0.0,0.0,0.0,0.0,0.0,0.0,0.0,0.0,0.0,0.0,0.0,0.0,0.0,0.0,0.0,0.0,0.0,0.0,0.0,0.0,0.0,0.0,0.0,0.0,0.0,0.0,0.0,0.0,0.0,0.0,-3.3136,-3.5751,-3.7684,-3.8575,-3.8312,-3.5574,-3.3327,0.0,0.0,0.0,0.0,0.0,0.0,0.0,0.0,0.0,0.0,0.0,0.0,0.0,0.0,0.0,0.0,0.0,0.0,0.0,0.0,0.0,0.0,0.0,0.0,0.0,0.0,0.0,0.0,0.0,0.0,0.0,0.0,0.0,0.0,0.0,0.0,0.0,0.0,0.0,0.0,0.0,0.0,0.0,0.0,0.0,0.0,0.0,0.0,-0.2863,0.0,0.0,0.0,0.0,0.0,0.0,0.0,0.0,0.0,0.0,0.0,0.0,0.0,0.0,0.0,0.0,0.0,0.0,0.0,0.0,0.0,0.0,0.0,0.0,0.0,0.0,0.0,0.0,0.0,0.0,0.0,0.0,0.0,0.0,0.0,0.0,0.0,0.0,0.0,0.0,0.0,0.0,0.0,0.0,0.0,0.0,0.0,0.0,0.0,0.0,0.0,0.0,0.0,0.0,0.0,0.0,0.0,0.0,0.0,-3.4717,-3.6955,-3.8852,-3.9555,-3.894,-3.7284,-3.5383,0.0,0.0,0.0,0.0,0.0,0.0,0.0,0.0,0.0,0.0,0.0,0.0,0.0,0.0,0.0,0.0,0.0,0.0,0.0,0.0,0.0,0.0,0.0,0.0,0.0,0.0,0.0,0.0,0.0,0.0,0.0,0.0,0.0,0.0,0.0,0.0,0.0,0.0,0.0,0.0,0.0,0.0,0.0,0.0,0.0,0.0,0.0,0.0,0.0,0.0,0.0,0.0,0.0,0.0,0.0,0.0,0.0,0.0,0.0,0.0,0.0,0.0,0.0,0.0,0.0,0.0,0.0,0.0,0.0,0.0,0.0,0.0,0.0,0.0,0.0,0.0,0.0,0.0,0.0,0.0,0.0,0.0,0.0,0.0,0.0,0.0,0.0,0.0,0.0,0.0,0.0,0.0,0.0,0.0,0.0,0.0,0.0,0.0,0.0,0.0,0.0,0.0,0.0,0.0,0.0,0.0,0.0,-3.3171,-3.5566,-3.7675,-3.9275,-3.9813,-3.9243,-3.841,-3.6692,-3.4051,0.0,0.0,0.0,0.0,0.0,0.0,0.0,0.0,0.0,0.0,0.0,0.0,0.0,0.0,0.0,0.0,0.0,0.0,0.0,0.0,0.0,0.0,0.0,0.0,0.0,0.0,0.0,0.0,0.0,0.0,0.0,0.0,0.0,0.0,0.0,0.0,0.0,0.0,-0.0384,-0.0426,0.0,0.0,0.0,0.0,0.0,0.0,0.0,0.0,-0.8581,0.0,0.0,0.0,0.0,0.0,0.0,0.0,0.0,0.0,0.0,0.0,0.0,0.0,0.0,0.0,0.0,0.0,0.0,0.0,0.0,0.0,0.0,0.0,0.0,0.0,0.0,0.0,0.0,0.0,0.0,0.0,0.0,0.0,0.0,0.0,0.0,0.0,0.0,0.0,0.0,0.0,0.0,0.0,0.0,0.0,0.0,0.0,0.0,0.0,0.0,0.0,0.0,0.0,0.0,0.0,0.0,-3.2069,-3.3422,-3.5306,-3.7715,-3.8723,-3.9129,-3.8948,-3.8143,-3.6463,-3.3921,0.0,0.0,0.0,0.0,0.0,0.0,0.0,0.0,0.0,0.0,0.0,0.0,0.0,0.0,0.0,0.0,0.0,0.0,0.0,0.0,0.0,0.0,0.0,0.0,0.0,0.0,0.0,0.0,0.0,0.0,0.0,0.0,0.0,0.0,0.0,0.0,0.0,0.0,0.0,-0.2852,-0.3575,0.0,0.0,0.0,0.0,0.0,0.0,0.0,0.0,-1.1249,0.0,0.0,0.0,0.0,0.0,0.0,0.0,0.0,0.0,0.0,0.0,0.0,0.0,0.0,0.0,0.0,0.0,0.0,0.0,0.0,0.0,0.0,0.0,0.0,0.0,0.0,0.0,0.0,0.0,0.0,0.0,0.0,0.0,0.0,0.0,0.0,0.0,0.0,0.0,0.0,0.0,0.0,0.0,0.0,0.0,0.0,0.0,0.0,0.0,0.0,0.0,0.0,0.0,0.0,0.0,-3.2461,-3.3507,-3.4932,-3.6914,-3.7658,-3.7756,-3.7249,-3.6384,-3.4945,0.0,0.0,0.0,0.0,0.0,0.0,0.0,0.0,0.0,0.0,0.0,0.0,0.0,0.0,0.0,0.0,0.0,0.0,0.0,0.0,0.0,0.0,0.0,0.0,0.0,0.0,0.0,0.0,0.0,0.0,0.0,0.0,0.0,0.0,0.0,0.0,0.0,0.0,0.0,0.0,-1.0962,-1.0871,-1.0596,0.0,0.0,0.0,0.0,0.0,0.0,-1.2709,-1.3099,0.0,0.0,0.0,0.0,0.0,0.0,0.0,0.0,0.0,0.0,0.0,0.0,0.0,0.0,0.0,0.0,0.0,0.0,0.0,0.0,0.0,0.0,0.0,0.0,0.0,0.0,0.0,0.0,0.0,0.0,0.0,0.0,0.0,0.0,0.0,0.0,0.0,0.0,0.0,0.0,0.0,0.0,0.0,0.0,0.0,0.0,0.0,0.0,0.0,0.0,0.0,0.0,0.0,0.0,0.0,-3.2322,-3.3157,-3.4282,-3.5742,-3.6389,-3.6325,-3.5577,-3.4717,-3.3515,0.0,0.0,0.0,0.0,0.0,0.0,0.0,0.0,0.0,0.0,0.0,0.0,0.0,0.0,0.0,0.0,0.0,0.0,0.0,0.0,0.0,0.0,0.0,0.0,0.0,0.0,0.0,0.0,0.0,0.0,0.0,0.0,0.0,0.0,0.0,0.0,0.0,0.0,0.0,0.0,0.0,-1.7257,-1.5479,-1.44,0.0,0.0,0.0,0.0,-1.4373,-1.4524,0.0,0.0,0.0,0.0,0.0,0.0,0.0,0.0,0.0,0.0,0.0,0.0,0.0,0.0,0.0,0.0,0.0,0.0,0.0,0.0,0.0,0.0,0.0,0.0,0.0,0.0,0.0,0.0,0.0,0.0,0.0,0.0,0.0,0.0,0.0,0.0,0.0,0.0,0.0,0.0,0.0,0.0,0.0,0.0,0.0,0.0,0.0,0.0,0.0,0.0,0.0,0.0,0.0,0.0,0.0,0.0,-3.1379,-3.2031,-3.2973,-3.4377,-3.5013,-3.5246,-3.5073,-3.4281,-3.3121,0.0,0.0,0.0,0.0,0.0,0.0,0.0,0.0,0.0,0.0,0.0,0.0,0.0,0.0,0.0,0.0,0.0,0.0,0.0,0.0,0.0,0.0,0.0,0.0,0.0,0.0,0.0,0.0,0.0,0.0,0.0,0.0,0.0,0.0,0.0,0.0,0.0,0.0,0.0,0.0,0.0,-1.8611,-1.7506,-1.6754,-1.6208,0.0,0.0,-1.5833,-1.5833,-1.6099,0.0,0.0,0.0,0.0,0.0,0.0,0.0,0.0,0.0,0.0,0.0,0.0,0.0,0.0,0.0,0.0,0.0,0.0,0.0,0.0,0.0,0.0,0.0,0.0,0.0,0.0,0.0,0.0,0.0,0.0,0.0,0.0,0.0,0.0,0.0,0.0,0.0,0.0,0.0,0.0,0.0,0.0,0.0,0.0,0.0,0.0,0.0,0.0,0.0,0.0,0.0,0.0,0.0,0.0,0.0,-2.8701,-3.0923,-3.1104,-3.1823,-3.3216,-3.3431,-3.3506,-3.3478,-3.272,-3.1796,0.0,0.0,0.0,0.0,0.0,0.0,0.0,0.0,0.0,0.0,0.0,0.0,0.0,0.0,0.0,0.0,0.0,0.0,0.0,0.0,0.0,0.0,0.0,0.0,0.0,0.0,0.0,0.0,0.0,0.0,0.0,0.0,0.0,0.0,0.0,0.0,0.0,0.0,0.0,0.0,0.0,0.0,-1.893,-1.8295,0.0,0.0,0.0,-1.7246,-1.7246,0.0,0.0,0.0,0.0,0.0,0.0,0.0,0.0,0.0,0.0,0.0,0.0,0.0,0.0,0.0,0.0,0.0,0.0,0.0,0.0,0.0,0.0,0.0,0.0,0.0,0.0,0.0,0.0,0.0,0.0,0.0,0.0,0.0,0.0,0.0,0.0,0.0,0.0,0.0,0.0,0.0,0.0,0.0,0.0,0.0,0.0,0.0,0.0,0.0,0.0,0.0,0.0,0.0,0.0,0.0,0.0,0.0,-3.0335,-3.0368,-3.0862,-3.1895,-3.1992,-3.1983,-3.1983,-3.1273,0.0,0.0,0.0,0.0,0.0,0.0,0.0,0.0,0.0,0.0,0.0,0.0,0.0,0.0,0.0,0.0,0.0,0.0,0.0,0.0,0.0,0.0,0.0,0.0,0.0,0.0,0.0,-2.4554,0.0,0.0,0.0,0.0,0.0,0.0,0.0,0.0,0.0,0.0,0.0,0.0,0.0,0.0,-1.9854,-2.0003,-1.9515,-1.898,0.0,0.0,-1.8429,-1.8429,-1.8536,-1.8643,0.0,0.0,0.0,0.0,0.0,0.0,0.0,0.0,0.0,0.0,0.0,0.0,0.0,0.0,0.0,0.0,0.0,0.0,0.0,0.0,0.0,0.0,0.0,0.0,0.0,0.0,0.0,0.0,0.0,0.0,0.0,0.0,0.0,0.0,0.0,0.0,0.0,0.0,0.0,0.0,0.0,0.0,0.0,0.0,0.0,0.0,0.0,0.0,0.0,0.0,0.0,0.0,0.0,0.0,-2.7848,-2.9267,-2.9904,-3.0174,-3.0119,-3.0802,-3.1175,-3.1183,-3.0472,-3.0075,0.0,0.0,0.0,0.0,0.0,0.0,0.0,0.0,0.0,0.0,0.0,0.0,0.0,0.0,0.0,0.0,0.0,0.0,0.0,0.0,0.0,0.0,0.0,0.0,0.0,0.0,0.0,0.0,0.0,0.0,0.0,0.0,0.0,0.0,0.0,0.0,0.0,0.0,0.0,0.0,0.0,-2.0836,-2.0752,-2.0383,-2.0029,0.0,-1.9512,-1.9316,-1.9316,-1.946,-1.9552,-1.9695,0.0,0.0,0.0,0.0,0.0,0.0,0.0,0.0,0.0,0.0,0.0,0.0,0.0,0.0,0.0,0.0,0.0,0.0,0.0,0.0,0.0,0.0,0.0,0.0,0.0,0.0,0.0,0.0,0.0,0.0,0.0,0.0,0.0,0.0,0.0,0.0,0.0,0.0,0.0,0.0,0.0,0.0,0.0,0.0,0.0,0.0,0.0,0.0,0.0,0.0,0.0,0.0,0.0,-2.7618,-2.9119,-2.9315,-2.96,-2.9995,-3.0298,-3.0443,-3.0469,-3.0234,-2.9923,0.0,0.0,0.0,0.0,0.0,0.0,0.0,0.0,0.0,0.0,0.0,0.0,0.0,0.0,0.0,0.0,0.0,0.0,0.0,0.0,0.0,0.0,0.0,0.0,0.0,0.0,0.0,0.0,-2.5473,-2.5486,-2.5353,0.0,0.0,0.0,0.0,0.0,0.0,0.0,0.0,0.0,0.0,-2.1349,-2.1411,-2.1153,0.0,0.0,-2.0396,-2.0308,-2.0359,-2.0346,-2.0446,-2.0772,-2.097,0.0,0.0,0.0,0.0,0.0,0.0,0.0,0.0,0.0,0.0,0.0,0.0,0.0,0.0,0.0,0.0,0.0,0.0,0.0,0.0,0.0,0.0,0.0,0.0,0.0,0.0,0.0,0.0,0.0,0.0,0.0,0.0,0.0,0.0,0.0,0.0,0.0,0.0,0.0,0.0,0.0,0.0,0.0,0.0,0.0,0.0,0.0,0.0,0.0,0.0,0.0,0.0,-2.7469,-2.9048,-2.8952,-2.9156,-2.9698,-2.9698,-2.9722,-2.9789,-2.9843,-2.966,0.0,0.0,0.0,0.0,0.0,0.0,0.0,0.0,0.0,0.0,0.0,0.0,0.0,0.0,0.0,0.0,0.0,0.0,0.0,0.0,0.0,0.0,0.0,0.0,0.0,0.0,0.0,0.0,-2.5538,-2.5468,-2.5274,0.0,0.0,0.0,0.0,0.0,0.0,0.0,0.0,0.0,0.0,-2.219,-2.2146,-2.1874,-2.165,-2.1382,-2.1237,-2.114,-2.1237,-2.1237,-2.1299,-2.1602,0.0,0.0,0.0,0.0,0.0,0.0,0.0,0.0,0.0,0.0,0.0,0.0,0.0,0.0,0.0,0.0,0.0,0.0,0.0,0.0,0.0,0.0,0.0,0.0,0.0,0.0,0.0,0.0,0.0,0.0,-2.5681,0.0,0.0,0.0,0.0,0.0,0.0,0.0,0.0,0.0,0.0,0.0,0.0,0.0,0.0,0.0,0.0,0.0,0.0,0.0,0.0,0.0,0.0,-2.7463,-2.898,-2.8929,-2.89,-2.8864,-2.8965,-2.903,-2.9072,-2.9149,-2.9243,-2.9293,0.0,0.0,0.0,0.0,0.0,0.0,0.0,0.0,0.0,0.0,0.0,0.0,0.0,0.0,0.0,0.0,0.0,0.0,0.0,0.0,0.0,0.0,0.0,0.0,0.0,0.0,-2.5592,-2.5493,-2.5331,0.0,0.0,0.0,0.0,0.0,0.0,0.0,0.0,0.0,0.0,-2.3387,-2.3406,-2.2934,-2.2649,-2.242,-2.2217,-2.1935,-2.1793,-2.1793,-2.1996,-2.217,0.0,0.0,0.0,0.0,0.0,0.0,0.0,0.0,0.0,0.0,0.0,0.0,0.0,0.0,0.0,0.0,0.0,0.0,0.0,0.0,0.0,0.0,0.0,0.0,0.0,0.0,0.0,-2.5778,-2.5775,0.0,0.0,0.0,0.0,0.0,0.0,0.0,0.0,0.0,0.0,0.0,-2.6621,-2.7183,0.0,0.0,0.0,0.0,0.0,0.0,0.0,0.0,0.0,0.0,0.0,0.0,-2.7402,-2.8925,-2.8975,-2.8975,-2.8998,-2.9062,-2.9108,-2.9215,-2.924,-2.9307,-2.9414,0.0,0.0,0.0,0.0,0.0,0.0,0.0,0.0,0.0,0.0,0.0,0.0,0.0,0.0,0.0,0.0,0.0,0.0,0.0,0.0,0.0,0.0,0.0,0.0,0.0,-2.5554,0.0,0.0,0.0,0.0,0.0,0.0,0.0,0.0,0.0,0.0,0.0,-2.5195,-2.4579,-2.4337,-2.409,-2.3623,-2.3363,-2.3157,0.0,0.0,0.0,0.0,0.0,0.0,0.0,0.0,0.0,0.0,0.0,0.0,0.0,0.0,-2.5395,-2.5125,-2.5319,-2.5492,-2.5351,0.0,0.0,0.0,0.0,0.0,0.0,0.0,0.0,0.0,0.0,0.0,0.0,0.0,0.0,-2.6632,0.0,-2.6623,0.0,0.0,0.0,0.0,0.0,0.0,0.0,0.0,-2.6746,-2.7139,-2.7442,-2.7959,-2.8182,0.0,-2.7674,-2.7209,0.0,0.0,0.0,0.0,0.0,0.0,0.0,0.0,-2.7251,-2.8539,-2.8888,-2.9058,-2.9089,-2.9152,-2.9215,-2.9302,-2.9347,-2.9429,-2.9531,-2.882,-2.8233,0.0,0.0,0.0,0.0,0.0,0.0,0.0,0.0,0.0,0.0,0.0,0.0,0.0,0.0,0.0,0.0,0.0,0.0,0.0,0.0,0.0,0.0,0.0,-2.5492,0.0,0.0,0.0,0.0,0.0,0.0,0.0,0.0,0.0,-2.6092,-2.6049,-2.5901,-2.5448,-2.5068,-2.4704,-2.4297,0.0,0.0,0.0,0.0,0.0,0.0,0.0,-2.3595,-2.3879,-2.4105,-2.4338,-2.4792,-2.5351,-2.5779,-2.6068,0.0,0.0,-2.5619,-2.5773,-2.5928,-2.5924,-2.5694,-2.5365,-2.4935,-2.4674,-2.4545,0.0,0.0,0.0,0.0,0.0,0.0,0.0,0.0,-2.8164,-2.8146,0.0,-2.8128,0.0,0.0,0.0,0.0,0.0,-2.6247,0.0,0.0,-2.7058,-2.746,-2.8174,-2.8209,-2.8209,-2.8209,-2.8191,-2.8201,-2.8139,-2.5967,0.0,0.0,0.0,0.0,0.0,0.0,-2.6896,-2.775,-2.8613,-2.904,-2.9052,-2.9237,-2.928,-2.9323,-2.9431,-2.9531,-2.9589,-2.895,-2.8568,-2.8565,-2.7131,0.0,0.0,0.0,0.0,0.0,0.0,0.0,0.0,0.0,0.0,0.0,0.0,0.0,0.0,0.0,0.0,0.0,0.0,0.0,0.0,-2.5557,0.0,0.0,0.0,0.0,0.0,0.0,0.0,0.0,0.0,0.0,-2.7186,-2.6674,-2.6189,-2.5775,0.0,0.0,0.0,0.0,-2.4482,-2.4359,-2.393,-2.3758,-2.4105,-2.4245,-2.4426,-2.4623,0.0,0.0,-2.5742,-2.6068,-2.6333,-2.6624,-2.6707,-2.6707,-2.6218,-2.6133,-2.6183,-2.6334,-2.5564,-2.4996,-2.5096,-2.4578,-2.4191,-2.9645,0.0,0.0,0.0,0.0,-2.8071,-2.8126,-2.8182,-2.8182,-2.8182,-2.8182,-2.8182,0.0,0.0,0.0,0.0,0.0,0.0,-2.7656,-2.7852,-2.7906,-2.804,-2.8273,-2.8318,-2.8327,-2.8345,-2.8345,-2.8327,-2.8308,-2.6579,-2.5749,-2.5773,0.0,0.0,0.0,0.0,-2.6135,-2.6943,-2.7812,-2.8261,-2.8307,-2.8968,-2.9351,-2.9451,-2.9511,-2.9588,-2.9607,-2.9474,-2.9168,-2.8602,-2.8237,0.0,0.0,0.0,0.0,0.0,0.0,0.0,0.0,0.0,0.0,0.0,0.0,0.0,0.0,0.0,0.0,0.0,0.0,0.0,-2.7245,-2.7181,-2.7078,0.0,0.0,0.0,0.0,0.0,0.0,0.0,0.0,0.0,-2.7299,-2.6973,-2.6589,0.0,0.0,-2.5717,-2.5497,-2.5285,-2.5123,-2.5045,-2.4863,0.0,0.0,-2.4997,-2.5153,-2.5346,-2.5705,-2.6068,-2.6401,-2.6152,-2.6026,-2.6296,-2.5988,-2.5922,-2.6789,-2.6799,-2.6396,-2.5661,-2.537,-2.504,-2.4218,-2.3875,-2.3786,-3.0552,-2.9814,-2.88,-2.8399,-2.8468,-2.8213,-2.8126,-2.8182,-2.8182,-2.8182,-2.8182,-2.8182,-2.8182,-2.8182,-2.8237,0.0,0.0,0.0,-2.8291,-2.8291,-2.8318,-2.8327,-2.8371,-2.8398,-2.8424,-2.8406,-2.8074,-2.7939,-2.7929,-2.6417,-2.5687,-2.5638,0.0,0.0,-2.4787,-2.5197,-2.566,-2.6158,-2.7025,-2.749,-2.7559,-2.842,-2.8948,-2.9064,-2.942,-2.9607,-2.9664,-2.9737,-2.9581,-2.9091,-2.8897,-2.8589,0.0,0.0,0.0,0.0,0.0,0.0,0.0,0.0,0.0,0.0,0.0,-2.5518,-2.5506,0.0,0.0,0.0,-2.7094,-2.7473,-2.7875,-2.7822,0.0,0.0,0.0,0.0,0.0,0.0,0.0,-2.8714,-2.8201,-2.7692,-2.7495,-2.7227,-2.694,-2.6691,-2.6382,-2.6101,-2.5994,0.0,-2.5642,-2.5642,-2.5605,-2.5605,-2.561,-2.577,-2.5868,-2.5653,-2.5647,-2.5779,-2.597,-2.5737,-2.5661,-2.5796,-2.5586,-2.5512,-2.6223,-2.6321,-2.5865,-2.4552,-2.4418,-2.4384,-2.3857,-2.3788,-2.3788,-3.1198,-3.1258,-2.9734,-2.9092,-2.9048,-2.8404,-2.8152,-2.8182,-2.8182,-2.8182,-2.8182,-2.8182,-2.8182,-2.8209,-2.8273,0.0,-2.8308,-2.8362,-2.8424,-2.8406,-2.837,-2.8316,-2.8316,-2.8262,-2.8226,-2.819,-2.7471,-2.7162,-2.7163,-2.5742,-2.5049,-2.5117,-2.4317,-2.4016,-2.4245,-2.4944,-2.5352,-2.5429,-2.6254,-2.6776,-2.6934,-2.7755,-2.8241,-2.8296,-2.9027,-2.9458,-2.9589,-2.9661,-2.9732,-2.977,-2.9235,-2.8912,-2.8888,0.0,0.0,0.0,0.0,0.0,0.0,0.0,0.0,0.0,0.0,0.0,0.0,0.0,0.0,0.0,-2.7728,0.0,-2.8014,-2.7938,0.0,0.0,0.0,-2.8501,-2.8313,-2.8695,-2.8936,-2.8811,0.0,0.0,-2.7725,-2.7487,-2.7224,-2.6855,-2.6607,-2.6453,-2.6453,-2.6225,-2.6082,-2.6139,-2.6068,-2.6104,-2.6129,-2.6283,-2.6185,-2.5542,-2.5071,-2.491,-2.5063,-2.5073,-2.5212,-2.5394,-2.5332,-2.5138,-2.4848,-2.5075,-2.4837,-2.3475,-2.3232,-2.3423,-2.3902,-2.3981,-2.3938,-3.1952,-3.2071,-3.1054,-3.0074,-2.9178,-2.8982,-2.8632,-2.82,-2.8182,-2.8182,-2.8182,-2.8182,-2.8237,-2.8291,-2.83,-2.8309,-2.8388,-2.8388,-2.8406,-2.8386,-2.781,-2.7565,-2.7529,-2.7049,-2.6783,-2.6807,-2.6649,-2.6622,-2.655,-2.5627,-2.5218,-2.5283,-2.4537,-2.4153,-2.4208,-2.4506,-2.4635,-2.4672,-2.5542,-2.6302,-2.7045,-2.725,-2.7398,-2.7488,-2.7675,-2.8069,-2.8688,-2.8832,-2.9166,-2.977,-2.9785,-2.9783,-2.9798,-2.9123,0.0,0.0,0.0,0.0,0.0,0.0,0.0,0.0,0.0,-2.6425,-2.6425,0.0,-2.7923,0.0,-2.9368,-2.9806,-2.9721,-2.9646,0.0,0.0,-2.9463,-2.9419,-2.9212,-2.9119,-2.8989,-2.8761,-2.8446,-2.8174,-2.7901,-2.7858,-2.742,-2.6405,-2.6541,-2.6759,-2.6775,-2.6657,-2.6521,-2.6471,-2.6068,-2.5748,-2.5796,-2.553,-2.5339,-2.5281,-2.519,-2.5216,-2.533,-2.4866,-2.4576,-2.4726,-2.4331,-2.3999,-2.3932,-2.3983,-2.396,-2.3636,-2.3555,-2.353,-2.3523,-2.3474,-2.3407,-3.2232,-3.2371,-3.1948,-3.0988,-2.9662,-2.929,-2.8809,-2.82,-2.8182,-2.8182,-2.8182,-2.8237,-2.8246,-2.8282,-2.8362,-2.8432,-2.843,-2.8106,-2.7951,-2.7911,-2.7188,-2.6826,-2.6832,-2.6467,-2.6313,-2.6336,-2.6034,-2.5852,-2.5816,-2.5113,-2.4791,-2.4852,-2.4506,-2.4321,-2.4339,-2.4411,-2.4464,-2.45,-2.4996,-2.551,-2.6028,-2.6403,-2.6626,-2.6679,-2.7017,-2.7411,-2.7898,-2.7983,-2.8409,-2.9219,-2.9425,-2.9692,-3.0064,-2.9726,-2.9181,0.0,0.0,0.0,0.0,0.0,0.0,0.0,0.0,0.0,0.0,0.0,-2.883,-2.9648,-3.0113,-3.0336,-3.0311,-3.0245,-3.0132,-3.0022,-2.9912,-2.9756,-2.9551,-2.9334,-2.9104,-2.8874,-2.8646,-2.8185,-2.729,-2.7326,-2.6951,-2.5727,-2.5982,-2.6277,-2.6155,-2.6014,-2.5902,-2.5965,-2.5641,-2.5428,-2.5519,-2.5109,-2.4781,-2.4758,-2.4576,-2.4452,-2.4562,-2.4275,-2.4046,-2.4134,-2.3853,-2.3589,-2.3642,-2.3628,-2.3649,-2.3725,-2.379,-2.3737,-2.3517,-2.3407,-2.3383,-3.2232,-3.2388,-3.2368,-3.1553,-3.0238,-2.9455,-2.8781,-2.8182,-2.8182,-2.8182,-2.8209,-2.8273,-2.8282,-2.8327,-2.844,-2.8438,-2.8304,-2.7676,-2.7345,-2.7193,-2.6426,-2.6082,-2.6145,-2.6059,-2.6049,-2.6093,-2.5421,-2.5095,-2.5077,-2.4501,-2.4247,-2.4248,-2.4429,-2.4515,-2.4512,-2.4528,-2.4545,-2.4596,-2.4663,-2.4679,-2.4707,-2.544,-2.5831,-2.5869,-2.6526,-2.6975,-2.7104,-2.7151,-2.7557,-2.8383,-2.8556,-2.903,-2.9859,-3.0023,-2.9715,0.0,-2.907,0.0,0.0,0.0,0.0,0.0,0.0,0.0,0.0,-2.8849,-2.9629,-3.034,-3.034,-3.0311,-3.0312,-3.0245,-3.0161,-3.0019,-2.9943,-2.9825,-2.9626,-2.9453,-2.9233,-2.8901,-2.8727,-2.7985,-2.6655,-2.6545,-2.6236,-2.5151,-2.5234,-2.5403,-2.5065,-2.5045,-2.5149,-2.5131,-2.5062,-2.5049,-2.495,-2.4682,-2.439,-2.4169,-2.3819,-2.3401,-2.3606,-2.3616,-2.3611,-2.357,-2.352,-2.352,-2.3577,-2.3548,-2.3608,-2.378,-2.393,-2.3928,-2.3765,-2.3678,-2.3652,-3.2267,-3.2335,-3.1753,-3.1059,-3.0221,-2.9485,-2.8809,-2.8182,-2.8182,-2.8182,-2.8209,-2.8273,-2.8327,-2.838,-2.8484,-2.8175,-2.7628,-2.7465,-2.7073,-2.6385,-2.5588,-2.5266,-2.5296,-2.4762,-2.4551,-2.4591,-2.4504,-2.445,-2.4468,-2.4414,-2.4394,-2.4446,-2.4532,-2.4599,-2.4647,0.0,0.0,0.0,-2.4692,-2.4692,-2.4707,-2.4876,-2.4951,-2.4951,-2.5152,0.0,-2.6199,-2.628,-2.6722,-2.7569,-2.7702,0.0,0.0,0.0,0.0,0.0,0.0,0.0,0.0,0.0,0.0,0.0,-2.8728,-2.872,-2.8893,-2.9671,-3.0229,-3.039,-3.0343,-3.0305,-3.0312,-3.0237,-3.0166,-3.0079,-2.9972,-2.9857,-2.9773,-2.9608,-2.9209,-2.8299,-2.8123,-2.7809,-2.7114,-2.6754,-2.5855,-2.4477,-2.4592,-2.464,-2.4098,-2.4784,-2.5312,-2.5337,-2.4918,-2.4435,-2.3788,-2.3737,-2.3815,-2.369,-2.3642,-2.3585,-2.3634,-2.3638,-2.3408,-2.2986,-2.2824,-2.2829,-2.2892,-2.2877,-2.3115,-2.381,-2.3976,-2.3976,-2.3935,-2.3894,-2.3834,-3.2284,0.0,-3.1679,-3.0985,0.0,-2.9562,-2.8866,-2.8182,-2.8182,-2.8227,-2.8264,-2.8327,-2.838,-2.844,-2.8121,-2.7773,-2.7363,-2.6584,-2.6005,-2.557,-2.4835,-2.4475,-2.4556,-2.4275,-2.417,-2.4191,-2.4266,-2.4321,-2.4358,-2.443,-2.4481,-2.4549,-2.4617,-2.4647,-2.4695,-2.4692,-2.4673,-2.4673,-2.4673,-2.4673,-2.4673,-2.4673,-2.4673,-2.4707,0.0,0.0,0.0,0.0,0.0,0.0,0.0,0.0,0.0,0.0,0.0,-2.8995,-2.943,-2.9543,-2.9182,-2.9151,-2.9305,-2.9701,-2.9729,-2.9756,-2.9756,-3.014,-3.0398,-3.0398,-3.0343,-3.0305,-3.0312,-3.0245,-3.0157,-3.0109,-3.0068,-2.9858,-2.9347,-2.9168,-2.8688,-2.7774,-2.7511,-2.7209,-2.651,-2.6153,-2.5447,-2.4239,-2.4251,-2.4302,-2.3934,-2.4206,-2.4481,-2.4413,-2.4162,-2.3809,-2.3424,-2.3499,-2.3638,-2.3652,-2.3656,-2.37,-2.3761,-2.3458,-2.3064,-2.2689,-2.2345,-2.2131,-2.2409,-2.2318,-2.2537,-2.3636,-2.3708,-2.3672,-2.3946,-2.4016,-2.3937,-3.2214,-3.2141,-3.155,-3.0836,-3.0039,-2.9425,-2.8834,-2.8182,0.0,0.0,0.0,-2.8353,-2.8342,-2.824,-2.764,-2.7248,-2.691,-2.5606,-2.4918,-2.4755,-2.4166,-2.3917,-2.3996,-2.4151,-2.419,-2.421,-2.4303,-2.4357,-2.443,-2.45,-2.4568,-2.4615,-2.4682,-2.4695,-2.4673,-2.4673,-2.4707,-2.4707,-2.4723,-2.4723,-2.4723,-2.4723,-2.4723,-2.4723,-2.4787,-2.4817,-2.4808,-2.4884,-2.5234,-2.5944,-2.5977,-2.6422,-2.7314,-2.7994,-2.8483,-2.8804,-2.9475,-2.9876,-2.9955,-2.9971,-2.9971,-2.9974,-2.996,-3.0083,-3.0359,-3.0398,-3.0398,-3.0398,-3.0348,-3.0292,-3.0305,-3.0247,-3.0117,-2.9913,-2.9804,-2.9398,-2.8609,-2.8433,-2.7997,-2.7131,-2.6876,-2.6432,-2.5523,-2.5338,-2.5059,-2.4374,-2.4169,-2.4075,-2.3955,-2.3797,-2.3669,-2.3616,-2.3585,-2.341,-2.3414,-2.3624,-2.3779,-2.3783,-2.3807,-2.3792,-2.3575,-2.3125,-2.2656,-2.2187,-2.1716,-2.1553,-2.1844,-2.1661,-2.1954,-2.3382,-2.3309,-2.3143,-2.3785,-2.404,-2.4036,-3.2036,-3.1399,-3.0737,-3.0021,-2.9313,-2.8635,-2.8316,-2.8182,-2.8182,-2.8237,-2.83,-2.8353,-2.8054,-2.7464,-2.7429,-2.6656,-2.5353,-2.5081,-2.4628,0.0,-2.385,-2.3896,-2.3996,-2.4151,-2.4228,-2.4303,-2.4409,-2.4478,-2.4495,-2.4599,-2.4666,-2.4682,-2.4695,-2.4673,-2.4673,-2.4673,-2.4723,-2.4791,-2.4772,-2.4787,-2.4779,-2.4779,-2.4779,-2.4798,-2.4842,-2.4903,-2.4884,-2.495,-2.5053,-2.5148,-2.5167,-2.5568,-2.642,-2.6624,-2.7026,-2.7886,-2.8088,-2.8176,-2.8251,-2.8241,-2.825,-2.824,-2.8249,-2.8854,-3.0256,-3.0398,-3.0398,-3.0379,-3.0271,-3.0304,-3.0292,-3.0228,-2.9922,-2.9193,-2.849,-2.794,-2.7661,-2.7622,-2.7225,-2.6359,-2.6185,-2.5785,-2.4974,-2.4737,-2.4649,-2.4413,-2.4303,-2.4247,-2.4133,-2.3917,-2.3735,-2.366,-2.3642,-2.3666,-2.3723,-2.3855,-2.3948,-2.3955,-2.3955,-2.3735,-2.3208,-2.288,-2.2299,-2.1025,-2.0715,-2.0641,-2.0764,-2.0726,-2.1109,-2.2041,-2.2483,-2.2905,-2.3199,-2.3712,-2.4152,-3.1595,-3.1152,-3.015,-2.9515,-2.9154,-2.8475,-2.8182,-2.8182,-2.8237,-2.8318,-2.8353,-2.838,-2.8008,-2.735,-2.6922,-2.6131,-2.499,-2.4538,-2.4157,-2.3813,-2.3876,-2.3955,-2.4016,-2.4171,-2.4266,-2.4321,-2.4426,-2.4512,-2.4545,-2.465,-2.4698,-2.4695,-2.4692,-2.4723,-2.4757,-2.4757,-2.4787,-2.4827,-2.4802,-2.4821,-2.4813,-2.4813,-2.4813,-2.4813,-2.4851,-2.4917,-2.4917,-2.4964,-2.4991,-2.4991,-2.4991,-2.5189,-2.5621,-2.6085,-2.6568,-2.7086,-2.7577,-2.7873,-2.7894,-2.7943,-2.7933,-2.7884,-2.7893,-2.821,-2.897,-2.9044,-2.9044,-2.9044,-2.9014,-2.8983,-2.8979,-2.9759,-2.9774,-2.8422,-2.7154,-2.653,-2.6822,-2.689,-2.6493,-2.5636,-2.5456,-2.525,-2.4767,-2.4645,-2.4596,-2.4515,-2.4428,-2.4338,-2.4321,-2.4191,-2.4095,-2.3941,-2.3883,-2.3919,-2.3994,-2.4067,-2.4087,-2.4051,-2.4014,-2.385,-2.3394,-2.2884,-2.1917,-2.1223,-2.0456,-1.987,-1.9845,-1.9842,-2.028,-2.1068,-2.14,-2.1878,-2.2722,-2.3639,-2.4153,-3.0956,-3.0706,-2.9662,-2.91,-2.8934,-2.8421,-2.8209,-2.8237,-2.8291,-2.8353,-2.8406,-2.845,-2.7944,-2.7103,-2.6457,-2.566,-2.4737,-2.4085,-2.3816,-2.3816,-2.3917,-2.3978,-2.4056,-2.421,-2.4303,-2.4358,-2.4479,-2.4582,-2.4634,-2.4682,-2.4695,-2.4707,-2.4723,-2.4757,-2.4806,-2.4821,-2.4832,-2.4903,-2.4846,-2.4832,-2.4842,-2.4842,-2.4842,-2.4842,-2.4884,-2.4931,-2.4931,-2.4964,-2.4991,-2.4991,-2.4991,-2.5037,-2.512,-2.5749,-2.6135,-2.6266,-2.6918,-2.7345,-2.7364,-2.7401,-2.7401,-2.7335,-2.7335,-2.7345,-2.7335,-2.7334,-2.7593,-2.7978,-2.8044,-2.7879,-2.7857,-2.8744,-2.9041,-2.7546,-2.6147,-2.5557,-2.5996,-2.6129,-2.5844,-2.5088,-2.4966,-2.4969,-2.4865,-2.4787,-2.4723,-2.4645,-2.4528,-2.4461,-2.4464,-2.4465,-2.4358,-2.4229,-2.4116,-2.4114,-2.4223,-2.4223,-2.4186,-2.4149,-2.4074,-2.3929,-2.3562,-2.252,-2.1624,-2.1275,-2.025,-1.9497,-1.9308,-1.9323,-1.9654,-2.0333,-2.0592,-2.1126,-2.2685,-2.3639,-2.4153,-2.9942,-2.9426,-2.9242,-2.8845,-2.8342,-2.8217,-2.8237,-2.8273,-2.8282,-2.8362,-2.8484,-2.851,-2.7687,-2.6421,-2.624,-2.5389,-2.3994,-2.3831,-2.3837,-2.3896,-2.3896,-2.4034,-2.4152,-2.421,-2.4303,-2.4482,-2.4549,-2.4615,-2.4682,-2.4676,-2.4723,-2.4791,-2.4791,-2.4802,-2.4798,-2.4813,-2.4842,-2.4903,-2.4903,-2.4917,-2.4977,-2.4977,-2.4996,-2.4996,-2.4977,-2.4977,-2.4996,-2.4991,-2.4991,-2.4991,-2.4991,-2.5037,-2.512,-2.5184,-2.5275,-2.5337,-2.5553,-2.5657,-2.5746,-2.5716,-2.5785,-2.5633,-2.5702,-2.5723,-2.5707,-2.5687,-2.6526,-2.7892,-2.8112,-2.7552,-2.7138,-2.7272,-2.7234,-2.676,-2.5864,-2.5305,-2.5359,-2.5298,-2.5244,-2.5139,-2.5032,-2.4985,-2.4977,-2.4917,-2.4861,-2.4772,-2.4695,-2.4647,-2.4631,-2.4599,-2.4566,-2.4444,-2.4356,-2.4303,-2.4358,-2.4321,-2.4284,-2.4266,-2.4229,-2.3952,-2.3346,-2.2519,-2.1602,-2.1091,-1.9989,-1.9363,-1.9289,-1.9286,-1.9323,-1.9635,-2.0134,-2.0943,-2.2557,-2.3566,-2.4044,-2.942,-2.9171,-2.8785,-2.8439,-2.82,-2.8182,-2.8237,-2.83,-2.8345,-2.8406,-2.8492,-2.8536,-2.77,-2.6204,-2.6186,-2.5339,-2.3912,-2.3855,-2.3896,-2.3976,-2.4036,-2.4132,-2.4209,-2.4321,-2.4429,-2.4518,-2.4617,-2.4666,-2.4717,-2.4745,-2.4772,-2.4798,-2.4817,-2.4813,-2.4837,-2.487,-2.4903,-2.4964,-2.4964,-2.4977,-2.4996,-2.4991,-2.4991,-2.4991,-2.4991,-2.4991,-2.4991,-2.4991,-2.4991,-2.4991,-2.5004,-2.5012,-2.5082,-2.5156,-2.5187,-2.5243,-2.5351,-2.5451,-2.5503,-2.5511,-2.5484,-2.5456,-2.5429,-2.5393,-2.5395,-2.5387,-2.5812,-2.6449,-2.6477,-2.6245,-2.6053,-2.5995,-2.5927,-2.581,-2.5512,-2.528,-2.522,-2.5209,-2.5206,-2.5149,-2.5144,-2.5107,-2.5076,-2.501,-2.4936,-2.4861,-2.4802,-2.4757,-2.476,-2.4745,-2.4695,-2.4629,-2.4564,-2.4481,-2.443,-2.4413,-2.4394,-2.4321,-2.4284,-2.4045,-2.3676,-2.259,-2.1654,-2.1272,-2.017,-1.9433,-1.9286,-1.9286,-1.9305,-1.9381,-1.9481,-2.0288,-2.195,-2.2941,-2.3548,-2.8858,-2.8827,-2.8413,-2.8182,-2.8182,-2.8209,-2.8246,-2.8327,-2.8406,-2.8458,-2.85,-2.837,-2.7526,-2.6354,-2.6245,-2.5379,-2.4024,-2.3935,-2.3976,-2.4036,-2.4151,-2.4228,-2.4284,-2.443,-2.4517,-2.4568,-2.4669,-2.4717,-2.4748,-2.4757,-2.4817,-2.4827,-2.4827,-2.4837,-2.4917,-2.4931,-2.4945,-2.4977,-2.4991,-2.4991,-2.4991,-2.4991,-2.4991,-2.4991,-2.4991,-2.4991,-2.4991,-2.4991,-2.4991,-2.4991,-2.4999,-2.5006,-2.5095,-2.516,-2.5231,-2.5322,-2.5378,-2.5448,-2.5511,-2.5511,-2.5511,-2.5492,-2.5456,-2.5421,-2.5401,-2.5385,-2.5387,-2.5407,-2.5341,-2.538,-2.5313,-2.5313,-2.5303,-2.5302,-2.5302,-2.5273,-2.5241,-2.5222,-2.5239,-2.5225,-2.5195,-2.5172,-2.5139,-2.5076,-2.5004,-2.4959,-2.4898,-2.4856,-2.485,-2.485,-2.4802,-2.4719,-2.4726,-2.4647,-2.4517,-2.4501,-2.4466,-2.4412,-2.4357,-2.4339,-2.4192,-2.2975,-2.1927,-2.1581,-2.0423,-1.9617,-1.936,-1.9286,-1.9305,-1.9308,-1.9408,-1.9941,-2.1614,-2.2477,-2.3325,-2.818,-2.8253,-2.82,-2.8209,-2.8209,-2.8273,-2.8327,-2.8406,-2.8422,-2.85,-2.8424,-2.7779,-2.7006,-2.6254,-2.6222,-2.5423,-2.4062,-2.3976,-2.4074,-2.419,-2.4227,-2.4321,-2.4482,-2.45,-2.4568,-2.4666,-2.4701,-2.4729,-2.4772,-2.4798,-2.4842,-2.4903,-2.4884,-2.4931,-2.4977,-2.4996,-2.4977,-2.501,-2.4991,-2.4991,-2.4991,-2.4991,-2.4991,-2.4991,-2.4991,-2.4991,-2.4991,-2.4991,-2.4991,-2.4991,-2.4999,-2.5038,-2.5101,-2.5184,-2.5282,-2.5369,-2.5385,-2.5429,-2.5484,-2.5511,-2.5511,-2.5511,-2.5484,-2.5464,-2.5429,-2.5401,-2.5412,-2.5395,-2.5388,-2.5361,-2.5313,-2.5293,-2.5303,-2.5303,-2.5303,-2.5293,-2.5292,-2.5292,-2.529,-2.5269,-2.522,-2.5198,-2.5191,-2.512,-2.5101,-2.5089,-2.5025,-2.4985,-2.4959,-2.4931,-2.487,-2.4842,-2.4813,-2.4768,-2.4679,-2.4634,-2.4566,-2.4513,-2.4462,-2.4446,-2.4116,-2.3601,-2.2772,-2.1927,-2.0937,-2.015,-1.9562,-1.9305,-1.9357,-1.9378,-1.9436,-2.015,-2.1572,-2.2493,-2.3323,-2.8126,-2.8209,-2.8264,-2.8264,-2.8246,-2.8345,-2.8424,-2.8404,-2.7908,-2.7784,-2.7707,-2.7024,-2.6272,-2.5532,-2.5677,-2.5134,-2.413,-2.4113,-2.4209,-2.4321,-2.4376,-2.4429,-2.4497,-2.4584,-2.465,-2.4695,-2.4745,-2.4806,-2.4861,-2.4856,-2.4903,-2.4964,-2.4964,-2.4996,-2.501,-2.4991,-2.4991,-2.501,-2.4991,-2.4991,-2.5029,-2.4991,-2.4991,-2.4991,-2.4991,-2.4991,-2.4991,-2.4991,-2.4991,-2.4999,-2.5044,-2.5095,-2.5149,-2.5261,-2.5351,-2.5404,-2.5429,-2.5464,-2.5492,-2.5511,-2.5511,-2.5511,-2.5511,-2.5484,-2.5484,-2.5476,-2.5468,-2.5451,-2.5404,-2.5367,-2.536,-2.5332,-2.5313,-2.5313,-2.5303,-2.5303,-2.5293,-2.5293,-2.5302,-2.5282,-2.5222,-2.522,-2.5206,-2.518,-2.5163,-2.5088,-2.5063,-2.5057,-2.5057,-2.5031,-2.4999,-2.4985,-2.4964,-2.4922,-2.4913,-2.4776,-2.4663,-2.4615,-2.4566,-2.4515,-2.4261,-2.3745,-2.297,-2.2514,-2.1578,-2.0772,-2.0184,-1.954,-1.9556,-1.9549,-1.9608,-2.0157,-2.1639,-2.2231,-2.3097,-2.8182,-2.8237,-2.8273,-2.8139,-2.795,-2.8029,-2.7918,-2.768,-2.7181,-2.6971,-2.691,-2.6509,-2.6008,-2.5634,-2.5724,-2.5531,-2.4964,-2.4504,-2.4321,-2.443,-2.4481,-2.4513,-2.4561,-2.4645,-2.4729,-2.4738,-2.4802,-2.4861,-2.4903,-2.4931,-2.4964,-2.4991,-2.4991,-2.5143,-2.5332,-2.5389,-2.547,-2.573,-2.5806,-2.5712,-2.5446,-2.5394,-2.5256,-2.5048,-2.4991,-2.4991,-2.4991,-2.4991,-2.5004,-2.5012,-2.5051,-2.5144,-2.5217,-2.5332,-2.5387,-2.5401,-2.5456,-2.5511,-2.5511,-2.5511,-2.5511,-2.5511,-2.5511,-2.5511,-2.5511,-2.5511,-2.5522,-2.5495,-2.544,-2.5412,-2.5415,-2.5379,-2.5332,-2.5322,-2.5313,-2.5313,-2.5313,-2.5313,-2.5303,-2.5302,-2.5262,-2.5241,-2.5239,-2.5217,-2.5184,-2.513,-2.5125,-2.5132,-2.5107,-2.5095,-2.5095,-2.5082,-2.5063,-2.5018,-2.4977,-2.4875,-2.4757,-2.4695,-2.4629,-2.4564,-2.4422,-2.3869,-2.341,-2.2972,-2.2348,-2.1522,-2.077,-2.0052,-1.9825,-1.9834,-1.9719,-2.003,-2.1041,-2.1798,-2.2574,-2.8183,-2.8157,-2.8246,-2.7779,-2.7256,-2.7277,-2.685,-2.6351,-2.6217,-2.6204,-2.6209,-2.6222,-2.618,-2.6279,-2.6353,-2.6567,-2.6279,-2.5227,-2.4634,-2.4647,-2.4607,-2.4634,-2.4692,-2.4707,-2.4753,-2.4794,-2.487,-2.4898,-2.4898,-2.4964,-2.501,-2.5048,-2.5124,-2.5541,-2.619,-2.6261,-2.6603,-2.7115,-2.7228,-2.6925,-2.6299,-2.6096,-2.573,-2.5105,-2.4991,-2.4991,-2.4991,-2.4991,-2.5004,-2.5012,-2.5076,-2.5164,-2.5283,-2.536,-2.5395,-2.5401,-2.5456,-2.5511,-2.5511,-2.5511,-2.5519,-2.5511,-2.5511,-2.5511,-2.5511,-2.5511,-2.5511,-2.5503,-2.5456,-2.544,-2.5479,-2.5443,-2.5397,-2.5379,-2.5332,-2.5313,-2.5313,-2.5313,-2.5313,-2.5303,-2.5283,-2.5292,-2.5282,-2.5241,-2.5209,-2.5187,-2.5187,-2.5184,-2.5137,-2.5106,-2.5101,-2.5095,-2.5101,-2.5057,-2.5031,-2.4972,-2.4875,-2.4772,-2.4707,-2.4645,-2.4547,-2.4163,-2.3908,-2.3487,-2.301,-2.2255,-2.1514,-2.0834,-2.0572,-2.0474,-2.0207,-2.0185,-2.0979,-2.1792,-2.1922,-2.7154,-2.672,-2.6777,-2.6675,-2.6465,-2.6537,-2.6356,-2.6108,-2.5665,-2.5433,-2.5437,-2.5564,-2.5667,-2.5876,-2.6364,-2.676,-2.6784,-2.6377,-2.5966,-2.5498,-2.5489,-2.5236,-2.4851,-2.4787,-2.4813,-2.487,-2.4931,-2.4977,-2.4983,-2.5015,-2.5256,-2.5712,-2.5825,-2.628,-2.7039,-2.7115,-2.7285,-2.7456,-2.7494,-2.7077,-2.6266,-2.6205,-2.5811,-2.5105,-2.4985,-2.4999,-2.4999,-2.4999,-2.5012,-2.507,-2.5132,-2.5217,-2.5341,-2.5387,-2.5429,-2.5472,-2.5488,-2.5515,-2.551,-2.551,-2.5503,-2.5515,-2.5507,-2.5519,-2.5511,-2.5511,-2.5511,-2.5511,-2.5484,-2.5484,-2.5495,-2.544,-2.5395,-2.5398,-2.537,-2.5332,-2.5293,-2.5313,-2.5313,-2.5303,-2.5303,-2.5312,-2.5292,-2.5282,-2.5241,-2.5201,-2.5201,-2.5179,-2.5168,-2.5164,-2.5164,-2.5172,-2.5137,-2.5076,-2.5051,-2.5012,-2.4912,-2.4813,-2.4753,-2.4692,-2.4596,-2.4512,-2.4258,-2.4002,-2.3524,-2.3026,-2.2266,-2.1747,-2.147,-2.1374,-2.1313,-2.1421,-2.1606,-2.1773,-2.194,-2.644,-2.6057,-2.6069,-2.5935,-2.5705,-2.5728,-2.5588,-2.5284,-2.4856,-2.4681,-2.4775,-2.5502,-2.5805,-2.6084,-2.711,-2.7692,-2.7808,-2.7998,-2.7586,-2.6725,-2.6115,-2.5728,-2.5265,-2.4974,-2.4889,-2.4931,-2.4977,-2.5162,-2.5427,-2.5465,-2.5882,-2.6565,-2.6698,-2.71,-2.7858,-2.7934,-2.8029,-2.8313,-2.8408,-2.7972,-2.7252,-2.683,-2.6294,-2.5574,-2.5202,-2.5044,-2.5025,-2.507,-2.5088,-2.5132,-2.5203,-2.5292,-2.5425,-2.544,-2.5472,-2.5503,-2.551,-2.5517,-2.5511,-2.5511,-2.5511,-2.5517,-2.551,-2.5522,-2.5507,-2.5519,-2.5519,-2.5511,-2.5511,-2.5511,-2.5503,-2.5456,-2.5432,-2.5387,-2.5388,-2.5361,-2.5313,-2.5313,-2.5313,-2.5303,-2.5303,-2.5303,-2.5312,-2.5302,-2.5273,-2.5252,-2.5241,-2.5222,-2.5212,-2.522,-2.5209,-2.5198,-2.5184,-2.5137,-2.5088,-2.5038,-2.4966,-2.4884,-2.4798,-2.4707,-2.4613,-2.4564,-2.4402,-2.4332,-2.3984,-2.3909,-2.326,-2.2741,-2.2388,-2.2404,-2.2293,-2.1977,-2.1848,-2.1885,-2.1922,-2.5949,-2.5966,-2.5948,-2.5507,-2.4972,-2.4936,-2.4635,-2.406,-2.399,-2.4049,-2.4419,-2.5676,-2.6452,-2.6956,-2.8155,-2.8905,-2.9299,-2.9363,-2.9063,-2.8142,-2.7121,-2.6337,-2.6132,-2.5646,-2.5446,-2.537,-2.5346,-2.5649,-2.6276,-2.6294,-2.6698,-2.749,-2.7604,-2.7987,-2.8632,-2.8768,-2.9106,-2.9618,-2.9788,-2.9371,-2.8559,-2.796,-2.7101,-2.6279,-2.5602,-2.5228,-2.5126,-2.5168,-2.5203,-2.5214,-2.5282,-2.5351,-2.5468,-2.5511,-2.5495,-2.5511,-2.5518,-2.5518,-2.5518,-2.5525,-2.5518,-2.5518,-2.5511,-2.5505,-2.5503,-2.5522,-2.5515,-2.5519,-2.5511,-2.5511,-2.5511,-2.5511,-2.5476,-2.5401,-2.5387,-2.537,-2.5313,-2.5313,-2.5313,-2.5313,-2.5313,-2.5303,-2.5303,-2.5303,-2.5293,-2.5302,-2.5292,-2.5262,-2.5233,-2.5222,-2.5201,-2.5209,-2.5187,-2.516,-2.5101,-2.5082,-2.5012,-2.4898,-2.4813,-2.4723,-2.4613,-2.458,-2.4549,-2.4479,-2.4426,-2.4407,-2.4239,-2.3609,-2.3295,-2.3277,-2.2922,-2.2293,-2.2089,-2.2182,-2.1773,-2.4883,-2.4426,-2.4407,-2.4324,-2.4184,-2.4203,-2.4135,-2.3994,-2.4094,-2.4113,-2.4428,-2.5354,-2.6225,-2.6913,-2.7976,-2.8874,-2.9401,-2.9664,-2.9699,-2.9372,-2.848,-2.7672,-2.7209,-2.6935,-2.683,-2.6825,-2.6763,-2.7029,-2.7219,-2.7205,-2.7657,-2.8417,-2.846,-2.8859,-2.9601,-2.9696,-2.9829,-3.0019,-3.0038,-2.9639,-2.8916,-2.8589,-2.7733,-2.6401,-2.6162,-2.5767,-2.5263,-2.5239,-2.5262,-2.5273,-2.5351,-2.5404,-2.5492,-2.5522,-2.5524,-2.5564,-2.557,-2.5577,-2.5564,-2.557,-2.5583,-2.5577,-2.557,-2.5544,-2.5511,-2.5505,-2.551,-2.5515,-2.5507,-2.5507,-2.5511,-2.5511,-2.5484,-2.5401,-2.5404,-2.5388,-2.537,-2.5361,-2.5361,-2.5293,-2.5313,-2.5293,-2.5313,-2.5303,-2.5303,-2.5293,-2.5293,-2.5293,-2.5253,-2.5262,-2.5252,-2.522,-2.5198,-2.5172,-2.5125,-2.5107,-2.5025,-2.4912,-2.4827,-2.4738,-2.4629,-2.4549,-2.4515,-2.45,-2.4481,-2.4462,-2.4462,-2.4184,-2.4148,-2.3981,-2.3832,-2.3368,-2.2776,-2.2571,-2.181,-2.423,-2.3837,-2.3876,-2.3896,-2.3937,-2.3958,-2.4034,-2.4094,-2.419,-2.4266,-2.4469,-2.5245,-2.5931,-2.6525,-2.7737,-2.8596,-2.9193,-2.9604,-2.9825,-2.9817,-2.9444,-2.862,-2.7794,-2.7528,-2.7561,-2.7589,-2.7608,-2.7761,-2.8046,-2.8103,-2.856,-2.9193,-2.9341,-2.9607,-2.9992,-3.0102,-3.0102,-3.0102,-3.0083,-2.9817,-2.9379,-2.9008,-2.8431,-2.7452,-2.7179,-2.6615,-2.5902,-2.5524,-2.534,-2.5369,-2.5404,-2.5472,-2.5529,-2.555,-2.5551,-2.5602,-2.5609,-2.5609,-2.5595,-2.5601,-2.5595,-2.5609,-2.5609,-2.5583,-2.557,-2.5544,-2.5557,-2.5517,-2.551,-2.5522,-2.5507,-2.5511,-2.5503,-2.5456,-2.544,-2.5423,-2.5397,-2.5388,-2.5379,-2.5351,-2.5313,-2.5303,-2.5332,-2.5313,-2.5313,-2.5303,-2.5303,-2.5303,-2.5303,-2.5293,-2.5292,-2.5252,-2.522,-2.5187,-2.5149,-2.512,-2.5025,-2.4926,-2.4783,-2.4707,-2.4629,-2.4549,-2.4517,-2.45,-2.45,-2.45,-2.45,-2.45,-2.4425,-2.4351,-2.45,-2.4332,-2.3665,-2.2757,-2.1977,-2.3917,-2.3935,-2.3976,-2.4034,-2.4036,-2.4094,-2.4151,-2.4228,-2.4303,-2.4376,-2.4577,-2.5241,-2.5665,-2.594,-2.73,-2.8197,-2.8454,-2.9252,-2.9756,-2.9896,-2.9829,-2.9284,-2.827,-2.816,-2.8155,-2.8131,-2.7927,-2.8346,-2.8836,-2.8955,-2.9336,-2.9832,-3.0022,-3.0079,-3.0117,-3.0117,-3.0122,-3.0117,-3.0113,-3.0094,-2.9899,-2.9464,-2.9008,-2.8619,-2.7922,-2.7281,-2.6564,-2.5985,-2.5575,-2.5418,-2.5472,-2.5549,-2.559,-2.5596,-2.5609,-2.5601,-2.5607,-2.5607,-2.5601,-2.5607,-2.5601,-2.5601,-2.5601,-2.5595,-2.5602,-2.5602,-2.5577,-2.5538,-2.5518,-2.5505,-2.551,-2.5507,-2.5511,-2.5492,-2.5492,-2.5468,-2.5443,-2.5415,-2.5395,-2.5387,-2.535,-2.536,-2.5351,-2.5341,-2.5303,-2.5303,-2.5303,-2.5322,-2.5313,-2.5303,-2.5302,-2.5282,-2.5241,-2.522,-2.5184,-2.5144,-2.5038,-2.4912,-2.4772,-2.4663,-2.4613,-2.4549,-2.4517,-2.45,-2.45,-2.45,-2.45,-2.45,-2.45,-2.45,-2.45,-2.45,-2.4295,-2.3165,-2.2256,-2.3976,-2.3996,-2.4036,-2.4113,-2.4169,-2.4245,-2.4284,-2.4358,-2.443,-2.4517,-2.4603,-2.4834,-2.5346,-2.6029,-2.651,-2.6968,-2.7786,-2.8609,-2.9319,-3.0045,-3.0079,-3.0009,-2.9565,-2.9475,-2.9532,-2.9508,-2.9598,-2.9713,-2.9832,-2.9794,-2.9961,-3.0133,-3.0176,-3.019,-3.019,-3.019,-3.019,-3.0171,-3.0185,-3.018,-3.0199,-3.0048,-2.966,-2.9147,-2.8341,-2.7537,-2.6861,-2.652,-2.6146,-2.5718,-2.5635,-2.5706,-2.5622,-2.5601,-2.5613,-2.5599,-2.5609,-2.5609,-2.5599,-2.5599,-2.5613,-2.5607,-2.5607,-2.5601,-2.5601,-2.5595,-2.5589,-2.5577,-2.5531,-2.5525,-2.5511,-2.5503,-2.5515,-2.5507,-2.5499,-2.5492,-2.5476,-2.5421,-2.5412,-2.5395,-2.5387,-2.5378,-2.5378,-2.5378,-2.534,-2.5312,-2.5322,-2.5351,-2.5341,-2.5313,-2.5303,-2.5302,-2.5271,-2.522,-2.5176,-2.5125,-2.4993,-2.4898,-2.4757,-2.465,-2.4599,-2.4549,-2.4515,-2.45,-2.45,-2.45,-2.45,-2.45,-2.4517,-2.45,-2.45,-2.4517,-2.4256,-2.3312,-2.2569,-2.4112,-2.4094,-2.4171,-2.4228,-2.4303,-2.4358,-2.4431,-2.45,-2.4566,-2.4647,-2.4692,-2.4749,-2.5106,-2.5617,-2.5968,-2.6503,-2.7134,-2.8246,-2.9051,-2.9603,-2.9904,-3.018,-3.0226,-3.0213,-3.0199,-3.0218,-3.0185,-3.0204,-3.0204,-3.0204,-3.018,-3.0213,-3.0213,-3.0226,-3.0259,-3.0259,-3.024,-3.024,-3.0253,-3.0247,-3.0254,-3.0299,-3.0263,-2.9693,-2.8994,-2.8308,-2.7995,-2.7551,-2.7174,-2.6812,-2.6539,-2.6118,-2.5685,-2.5599,-2.5609,-2.5595,-2.5605,-2.561,-2.56,-2.5595,-2.5595,-2.5604,-2.5604,-2.5599,-2.5613,-2.5607,-2.5601,-2.5595,-2.557,-2.5544,-2.5544,-2.5511,-2.5517,-2.5517,-2.551,-2.5515,-2.5488,-2.5464,-2.5437,-2.544,-2.5412,-2.5404,-2.5385,-2.5404,-2.5387,-2.535,-2.535,-2.5379,-2.538,-2.5351,-2.5332,-2.5312,-2.5271,-2.5239,-2.5168,-2.5087,-2.4953,-2.4856,-2.4776,-2.4663,-2.458,-2.4566,-2.4515,-2.4517,-2.45,-2.45,-2.45,-2.4517,-2.4515,-2.4534,-2.4551,-2.4551,-2.429,-2.3638,-2.2893,-2.4246,-2.4246,-2.4303,-2.4375,-2.443,-2.4503,-2.4571,-2.4647,-2.4704,-2.476,-2.4823,-2.4898,-2.501,-2.5196,-2.5722,-2.6097,-2.6746,-2.7834,-2.8765,-2.9174,-2.9901,-3.0196,-3.0266,-3.0266,-3.0253,-3.0232,-3.0232,-3.0232,-3.0232,-3.0218,-3.0226,-3.024,-3.0215,-3.0247,-3.0292,-3.0324,-3.0305,-3.0305,-3.0324,-3.033,-3.0328,-3.0402,-3.04,-3.0269,-2.9901,-2.9356,-2.902,-2.8592,-2.8191,-2.81,-2.776,-2.7045,-2.6262,-2.5659,-2.561,-2.561,-2.5619,-2.5619,-2.5615,-2.5615,-2.5595,-2.561,-2.561,-2.56,-2.5609,-2.5604,-2.5604,-2.5613,-2.5587,-2.5601,-2.5602,-2.5564,-2.5518,-2.5518,-2.5518,-2.5505,-2.551,-2.5507,-2.5499,-2.5484,-2.5456,-2.5448,-2.544,-2.5432,-2.5404,-2.5395,-2.5395,-2.5387,-2.5388,-2.5389,-2.5361,-2.5332,-2.5302,-2.5217,-2.5164,-2.5043,-2.4921,-2.4842,-2.476,-2.4679,-2.4631,-2.4599,-2.4584,-2.4517,-2.45,-2.4517,-2.4498,-2.4513,-2.453,-2.4584,-2.4603,-2.4603,-2.434,-2.3982,-2.3235,-2.4321,-2.4376,-2.4447,-2.4517,-2.4566,-2.4657,-2.4701,-2.4764,-2.4831,-2.4891,-2.4966,-2.498,-2.5063,-2.5201,-2.5263,-2.5746,-2.6496,-2.7484,-2.8332,-2.8957,-2.9743,-3.0177,-3.0318,-3.0318,-3.0292,-3.0299,-3.0299,-3.0292,-3.0299,-3.0299,-3.0279,-3.0292,-3.0279,-3.0292,-3.0304,-3.0336,-3.0398,-3.0379,-3.0379,-3.0402,-3.0439,-3.0472,-3.053,-3.0585,-3.0377,-3.0059,-2.9544,-2.9272,-2.8876,-2.831,-2.8598,-2.8369,-2.759,-2.6442,-2.5799,-2.5702,-2.5667,-2.5648,-2.5624,-2.5604,-2.56,-2.561,-2.561,-2.561,-2.5605,-2.5605,-2.56,-2.5595,-2.5604,-2.5613,-2.5595,-2.5583,-2.5596,-2.5577,-2.5544,-2.5518,-2.5511,-2.5524,-2.551,-2.5507,-2.5492,-2.5484,-2.5476,-2.5476,-2.5448,-2.544,-2.5412,-2.5404,-2.5387,-2.5397,-2.5379,-2.5351,-2.5322,-2.5228,-2.5118,-2.5013,-2.4907,-2.4823,-2.4772,-2.4729,-2.4682,-2.4682,-2.4634,-2.4568,-2.4515,-2.4532,-2.453,-2.451,-2.4564,-2.4617,-2.4636,-2.4671,-2.4482,-2.4201,-2.349,-2.4465,-2.4515,-2.4568,-2.465,-2.4711,-2.4732,-2.4791,-2.4907,-2.4936,-2.5003,-2.5075,-2.5113,-2.513,-2.5206,-2.5217,-2.5477,-2.5967,-2.6734,-2.7601,-2.8449,-2.9267,-3.0002,-3.0333,-3.039,-3.039,-3.0402,-3.0402,-3.0359,-3.0311,-3.033,-3.0355,-3.0348,-3.0352,-3.0364,-3.0417,-3.0428,-3.0469,-3.0449,-3.0449,-3.0471,-3.054,-3.0574,-3.0626,-3.0649,-3.0683,-3.0471,-3.0224,-3.0105,-2.9961,-2.9698,-2.9814,-2.9511,-2.8673,-2.7558,-2.6443,-2.626,-2.5909,-2.5679,-2.5656,-2.5652,-2.5652,-2.5667,-2.5643,-2.5624,-2.5619,-2.5595,-2.5615,-2.561,-2.5605,-2.5615,-2.5609,-2.5607,-2.5601,-2.5601,-2.557,-2.5538,-2.5531,-2.5551,-2.5531,-2.5529,-2.5515,-2.5507,-2.5499,-2.5492,-2.5484,-2.5484,-2.5456,-2.5421,-2.5404,-2.5395,-2.5397,-2.5361,-2.5322,-2.522,-2.5118,-2.5013,-2.4921,-2.4856,-2.4768,-2.4742,-2.4714,-2.4698,-2.465,-2.4601,-2.4566,-2.4564,-2.4564,-2.4561,-2.4615,-2.4666,-2.4682,-2.4663,-2.4663,-2.4379,-2.3686,-2.4584,-2.4647,-2.4698,-2.4757,-2.4846,-2.484,-2.4927,-2.5013,-2.5031,-2.5083,-2.5195,-2.5206,-2.519,-2.5222,-2.5243,-2.5262,-2.5339,-2.6184,-2.7099,-2.7978,-2.8846,-2.9638,-3.0267,-3.05,-3.0471,-3.049,-3.0501,-3.0441,-3.0375,-3.0394,-3.0417,-3.0439,-3.043,-3.0451,-3.0511,-3.053,-3.054,-3.0549,-3.0549,-3.0576,-3.0634,-3.069,-3.0717,-3.073,-3.071,-3.0703,-3.0628,-3.0643,-3.0672,-3.0618,-3.0634,-3.045,-2.9689,-2.8519,-2.7631,-2.7114,-2.6252,-2.5804,-2.5703,-2.5707,-2.5683,-2.5675,-2.5699,-2.5675,-2.5652,-2.5648,-2.5624,-2.5615,-2.563,-2.561,-2.5605,-2.5615,-2.5609,-2.5604,-2.5613,-2.5601,-2.555,-2.5544,-2.5557,-2.5538,-2.5524,-2.551,-2.551,-2.5522,-2.5495,-2.5499,-2.548,-2.5464,-2.5429,-2.5401,-2.5376,-2.5351,-2.5293,-2.522,-2.513,-2.5044,-2.4966,-2.4917,-2.4832,-2.4757,-2.4745,-2.4714,-2.4666,-2.4631,-2.4631,-2.4629,-2.4629,-2.461,-2.4645,-2.4679,-2.4692,-2.4692,-2.4676,-2.447,-2.3926,-2.4714,-2.4791,-2.4783,-2.4861,-2.4964,-2.4983,-2.5063,-2.5168,-2.5171,-2.5192,-2.5201,-2.5212,-2.5243,-2.5303,-2.5351,-2.5369,-2.5619,-2.614,-2.695,-2.7779,-2.8657,-2.9525,-3.0346,-3.0482,-3.052,-3.0549,-3.0576,-3.0549,-3.0492,-3.0492,-3.0501,-3.0511,-3.0549,-3.0576,-3.0574,-3.0629,-3.0661,-3.0676,-3.0676,-3.0678,-3.0678,-3.0734,-3.0784,-3.0794,-3.0784,-3.0774,-3.0782,-3.079,-3.079,-3.0794,-3.0798,-3.0742,-3.0505,-2.9787,-2.8925,-2.793,-2.6776,-2.5704,-2.5717,-2.5701,-2.5697,-2.5687,-2.5707,-2.5707,-2.5683,-2.5679,-2.5656,-2.5604,-2.5702,-2.5775,-2.579,-2.5722,-2.5644,-2.5736,-2.5862,-2.5779,-2.569,-2.5568,-2.5582,-2.5589,-2.5577,-2.5525,-2.5511,-2.5511,-2.5524,-2.551,-2.5515,-2.5507,-2.5472,-2.5437,-2.5393,-2.5369,-2.5313,-2.5241,-2.5164,-2.5069,-2.5012,-2.4945,-2.4875,-2.4787,-2.4776,-2.4745,-2.4711,-2.4695,-2.4676,-2.4676,-2.466,-2.4676,-2.4692,-2.4692,-2.4692,-2.4673,-2.4692,-2.4392,-2.3994,-2.4468,-2.4917,-2.4907,-2.4993,-2.5095,-2.5127,-2.5139,-2.5198,-2.5225,-2.5264,-2.5264,-2.5313,-2.5341,-2.536,-2.5395,-2.5385,-2.5481,-2.5865,-2.6481,-2.7321,-2.8161,-2.9029,-2.9801,-3.0341,-3.0602,-3.0626,-3.0642,-3.0637,-3.0614,-3.0618,-3.0618,-3.0618,-3.0645,-3.0661,-3.0644,-3.0697,-3.0717,-3.0736,-3.0753,-3.0755,-3.0754,-3.0782,-3.0798,-3.0802,-3.079,-3.0794,-3.0798,-3.0785,-3.0788,-3.0807,-3.083,-3.0849,-3.0654,-3.0069,-2.9347,-2.9035,-2.7906,-2.6788,-2.5902,-2.5768,-2.5801,-2.574,-2.574,-2.5701,-2.5697,-2.5775,-2.5772,-2.5664,-2.617,-2.6377,-2.6485,-2.6812,-2.7002,-2.6977,-2.652,-2.6398,-2.6218,-2.5712,-2.5604,-2.5593,-2.5607,-2.5576,-2.5544,-2.5525,-2.5518,-2.5505,-2.5517,-2.5517,-2.5495,-2.5461,-2.5429,-2.5387,-2.5332,-2.5262,-2.5187,-2.5106,-2.5051,-2.5004,-2.4931,-2.4861,-2.4787,-2.4772,-2.4757,-2.4723,-2.4692,-2.4692,-2.4707,-2.4707,-2.4707,-2.4707,-2.4673,-2.4707,-2.4648,-2.4013,-2.3408,-2.3995,-2.4764,-2.4967,-2.5099,-2.5203,-2.5244,-2.5252,-2.5253,-2.5321,-2.533,-2.5321,-2.5387,-2.5432,-2.5421,-2.5418,-2.5434,-2.5422,-2.5468,-2.6025,-2.6776,-2.7489,-2.8383,-2.931,-3.0101,-3.0471,-3.0737,-3.0736,-3.0722,-3.0728,-3.0722,-3.073,-3.0717,-3.0737,-3.073,-3.0742,-3.0734,-3.0764,-3.0779,-3.0793,-3.0786,-3.0798,-3.0781,-3.0798,-3.0801,-3.082,-3.0824,-3.0827,-3.083,-3.0833,-3.0836,-3.0875,-3.0899,-3.0767,-3.0376,-2.9849,-2.9498,-2.8737,-2.7932,-2.7027,-2.6574,-2.6356,-2.6356,-2.6334,-2.6585,-2.6509,-2.6353,-2.637,-2.6575,-2.6945,-2.7254,-2.7383,-2.7823,-2.7857,-2.7755,-2.7551,-2.7371,-2.7109,-2.6544,-2.6111,-2.6081,-2.5979,-2.5604,-2.5568,-2.555,-2.5538,-2.5525,-2.5518,-2.5518,-2.5505,-2.5503,-2.5472,-2.5432,-2.5379,-2.5303,-2.5241,-2.5184,-2.512,-2.5044,-2.4991,-2.4917,-2.4861,-2.4817,-2.4768,-2.4753,-2.4723,-2.4738,-2.4753,-2.4738,-2.4723,-2.4738,-2.4753,-2.4738,-2.4512,-2.3817,-2.2877,-2.3275,-2.414,-2.4867,-2.5163,-2.5212,-2.5349,-2.537,-2.537,-2.5395,-2.5393,-2.5401,-2.5453,-2.5495,-2.5476,-2.5478,-2.5499,-2.5493,-2.5512,-2.5991,-2.6508,-2.7045,-2.7898,-2.8824,-2.9483,-3.0019,-3.0599,-3.074,-3.0789,-3.0798,-3.0778,-3.0789,-3.0799,-3.0789,-3.0804,-3.0789,-3.0769,-3.0802,-3.081,-3.0817,-3.0813,-3.082,-3.0824,-3.0807,-3.0827,-3.0872,-3.0897,-3.0877,-3.0882,-3.0882,-3.0882,-3.0884,-3.0888,-3.0853,-3.0718,-3.0328,-2.9879,-2.9684,-2.8998,-2.835,-2.7854,-2.7964,-2.8056,-2.7956,-2.7741,-2.7647,-2.7936,-2.8051,-2.7875,-2.8012,-2.8164,-2.82,-2.8275,-2.8638,-2.8571,-2.8485,-2.8242,-2.7868,-2.7274,-2.688,-2.668,-2.6364,-2.597,-2.5595,-2.5574,-2.5576,-2.555,-2.5557,-2.5557,-2.5538,-2.5517,-2.5515,-2.5476,-2.5434,-2.537,-2.5303,-2.525,-2.518,-2.5107,-2.5038,-2.4972,-2.4917,-2.4856,-2.4827,-2.4798,-2.4798,-2.4798,-2.4813,-2.4817,-2.4783,-2.4798,-2.476,-2.4633,-2.4124,-2.3352,-2.2373,-2.223,-2.2647,-2.4014,-2.4885,-2.5341,-2.5416,-2.5462,-2.5459,-2.5468,-2.5471,-2.5459,-2.5518,-2.557,-2.5577,-2.557,-2.5568,-2.5565,-2.5576,-2.5834,-2.6174,-2.669,-2.7259,-2.8087,-2.8929,-2.9693,-3.0096,-3.0459,-3.0794,-3.079,-3.0801,-3.0824,-3.0837,-3.0829,-3.0806,-3.079,-3.0798,-3.0824,-3.0849,-3.0852,-3.0849,-3.0852,-3.0862,-3.0866,-3.0866,-3.0873,-3.0895,-3.0896,-3.0857,-3.0857,-3.0857,-3.0876,-3.0897,-3.0918,-3.0918,-3.0703,-3.0371,-3.0312,-3.0098,-2.9647,-2.8958,-2.8301,-2.8298,-2.8279,-2.8357,-2.8494,-2.8354,-2.8296,-2.8393,-2.882,-2.9032,-2.9045,-2.9471,-2.9877,-2.9679,-2.9402,-2.9121,-2.8704,-2.8134,-2.7541,-2.7322,-2.6807,-2.6315,-2.5941,-2.56,-2.5604,-2.5593,-2.5601,-2.5609,-2.557,-2.5557,-2.5536,-2.5507,-2.5468,-2.5425,-2.5351,-2.5292,-2.5236,-2.518,-2.5101,-2.5038,-2.4966,-2.4964,-2.4917,-2.4889,-2.4856,-2.4856,-2.4856,-2.4875,-2.4861,-2.4861,-2.4657,-2.4379,-2.37,-2.2903,-2.1935,-2.1404,-2.1765,-2.2984,-2.4103,-2.5031,-2.5391,-2.5529,-2.5529,-2.5525,-2.5537,-2.5529,-2.5579,-2.5609,-2.5609,-2.5595,-2.5625,-2.5615,-2.5624,-2.5636,-2.5878,-2.6213,-2.6646,-2.7273,-2.8018,-2.8879,-2.9458,-3.0035,-3.045,-3.0823,-3.0801,-3.0845,-3.0866,-3.086,-3.0841,-3.0819,-3.0819,-3.0823,-3.0849,-3.087,-3.0889,-3.0891,-3.0894,-3.0897,-3.0898,-3.0898,-3.0878,-3.0857,-3.0835,-3.0816,-3.0816,-3.0836,-3.0856,-3.0873,-3.0891,-3.0888,-3.0888,-3.0888,-3.087,-3.0503,-2.9941,-2.9056,-2.9251,-2.9212,-2.9191,-2.9051,-2.9051,-2.9324,-2.9277,-2.9684,-2.9896,-2.989,-3.03,-3.0515,-3.0261,-3.0134,-2.9874,-2.9597,-2.9125,-2.8455,-2.792,-2.7292,-2.6567,-2.6013,-2.5634,-2.5605,-2.5615,-2.5604,-2.5613,-2.5601,-2.5583,-2.5564,-2.5536,-2.5499,-2.544,-2.5388,-2.5341,-2.5311,-2.5239,-2.5184,-2.5094,-2.5044,-2.5025,-2.5018,-2.4991,-2.4959,-2.4931,-2.4912,-2.4926,-2.4917,-2.4927,-2.4719,-2.4511,-2.3358,-2.254,-2.162,-2.0933,-2.1658,-2.1837,-2.2809,-2.42,-2.5195,-2.5582,-2.5576,-2.5593,-2.5595,-2.56,-2.5609,-2.5598,-2.5617,-2.5617,-2.5636,-2.5679,-2.5683,-2.5678,-2.5768,-2.5852,-2.6298,-2.673,-2.7357,-2.8086,-2.9272,-2.9783,-3.0195,-3.0762,-3.0801,-3.084,-3.0879,-3.0879,-3.0879,-3.0879,-3.082,-3.0801,-3.0801,-3.082,-3.084,-3.0879,-3.0898,-3.0897,-3.0895,-3.0892,-3.0847,-3.0816,-3.081,-3.0791,-3.081,-3.0807,-3.0807,-3.0807,-3.0824,-3.0824,-3.0804,-3.0804,-3.0801,-3.0746,-3.0679,-3.0507,-3.0351,-3.0156,-3.0293,-3.0604,-3.0681,-3.0485,-3.0208,-3.0591,-3.0706,-3.0782,-3.0801,-3.0801,-3.0757,-3.0593,-3.0473,-3.0196,-3.0017,-2.9328,-2.8599,-2.7644,-2.6782,-2.6147,-2.5687,-2.5624,-2.5595,-2.561,-2.56,-2.5604,-2.5593,-2.5576,-2.557,-2.5536,-2.5526,-2.5468,-2.5425,-2.538,-2.5312,-2.5261,-2.5187,-2.5141,-2.5106,-2.5088,-2.5101,-2.5057,-2.5012,-2.498,-2.4993,-2.4985,-2.4996,-2.4983,-2.4585,-2.3329,-2.2255,-2.1505,-2.0647,-2.097,-2.1551,-2.2115,-2.2808,-2.4194,-2.5085,-2.5547,-2.5654,-2.5667,-2.5675,-2.5675,-2.5681,-2.5662,-2.5662,-2.5684,-2.5684,-2.5693,-2.5703,-2.5698,-2.5699,-2.5816,-2.6226,-2.6755,-2.7322,-2.8047,-2.8788,-2.9563,-3.0001,-3.0413,-3.0745,-3.0841,-3.0843,-3.0862,-3.0866,-3.0827,-3.0801,-3.0801,-3.0801,-3.0801,-3.0821,-3.0801,-3.0782,-3.0757,-3.0716,-3.0684,-3.0685,-3.0665,-3.0704,-3.0754,-3.0774,-3.0793,-3.0793,-3.0793,-3.0793,-3.0793,-3.0793,-3.0793,-3.0798,-3.0762,-3.0771,-3.0799,-3.0804,-3.0808,-3.0832,-3.0837,-3.0859,-3.0879,-3.0896,-3.0875,-3.0814,-3.0852,-3.085,-3.086,-3.0777,-3.0757,-3.0579,-3.0498,-3.0102,-2.9354,-2.8493,-2.7596,-2.6848,-2.5925,-2.5664,-2.5636,-2.5628,-2.5615,-2.56,-2.5595,-2.5585,-2.5601,-2.5577,-2.557,-2.5553,-2.5503,-2.5451,-2.5369,-2.5332,-2.5312,-2.5252,-2.5198,-2.5184,-2.5168,-2.5132,-2.5076,-2.5063,-2.5051,-2.507,-2.5063,-2.505,-2.4511,-2.3266,-2.2374,-2.1737,-2.05,-2.0586,-2.1121,-2.1555,-2.2006,-2.3344,-2.4414,-2.5152,-2.5531,-2.5693,-2.5698,-2.5705,-2.5689,-2.5689,-2.5689,-2.5689,-2.5689,-2.5694,-2.57,-2.5703,-2.5702,-2.574,-2.5954,-2.6266,-2.6734,-2.7221,-2.7959,-2.8764,-2.9136,-2.9936,-3.0462,-3.0732,-3.0763,-3.0833,-3.0837,-3.0817,-3.0798,-3.0798,-3.0778,-3.0599,-3.0423,-3.0248,-3.0131,-2.9913,-2.9831,-2.9936,-3.0219,-3.0365,-3.0463,-3.0628,-3.0759,-3.0773,-3.0773,-3.0773,-3.0773,-3.0753,-3.0753,-3.0753,-3.0753,-3.0753,-3.075,-3.076,-3.0774,-3.0794,-3.0791,-3.0801,-3.0825,-3.0852,-3.0877,-3.0859,-3.0859,-3.0879,-3.0877,-3.0892,-3.0868,-3.0849,-3.0841,-3.074,-3.064,-2.9913,-2.9146,-2.8307,-2.7387,-2.6468,-2.5684,-2.5675,-2.5668,-2.5632,-2.5619,-2.5615,-2.561,-2.5609,-2.5613,-2.5589,-2.559,-2.5563,-2.5495,-2.5445,-2.5412,-2.5397,-2.537,-2.5312,-2.5271,-2.5228,-2.5176,-2.5141,-2.5132,-2.5126,-2.5114,-2.5089,-2.5076,-2.429,-2.3158,-2.2569,-2.2064,-2.05,-2.0503,-2.0565,-2.1054,-2.1835,-2.2672,-2.357,-2.4491,-2.5272,-2.5625,-2.5703,-2.5703,-2.5703,-2.5703,-2.5703,-2.5703,-2.5703,-2.5703,-2.5702,-2.5698,-2.5693,-2.5705,-2.5698,-2.5832,-2.6244,-2.6707,-2.7267,-2.7826,-2.8221,-2.9031,-2.9829,-3.0312,-3.0229,-3.0253,-3.0278,-3.0278,-3.0341,-3.0419,-3.0453,-3.0059,-2.9611,-2.944,-2.9143,-2.8851,-2.8675,-2.9075,-2.9391,-2.9658,-3.0049,-3.0387,-3.0704,-3.0717,-3.071,-3.071,-3.069,-3.069,-3.069,-3.0671,-3.0697,-3.071,-3.0717,-3.0717,-3.0748,-3.0779,-3.0782,-3.0778,-3.0801,-3.0807,-3.0819,-3.0866,-3.0892,-3.0895,-3.0877,-3.0879,-3.0878,-3.0895,-3.0907,-3.0864,-3.0823,-3.0294,-2.9511,-2.8608,-2.751,-2.6571,-2.5696,-2.569,-2.5684,-2.5655,-2.5644,-2.5617,-2.5628,-2.5634,-2.562,-2.5609,-2.5587,-2.5589,-2.5551,-2.5485,-2.5464,-2.5453,-2.5432,-2.5407,-2.537,-2.5312,-2.5233,-2.519,-2.5184,-2.5156,-2.5107,-2.5095,-2.5126,-2.4537,-2.3555,-2.3099,-2.2547,-2.0508,-2.0507,-2.0526,-2.0676,-2.0976,-2.1815,-2.3015,-2.4352,-2.4717,-2.5063,-2.5705,-2.5707,-2.5629,-2.5707,-2.5705,-2.5687,-2.5687,-2.5705,-2.5701,-2.5696,-2.5693,-2.5684,-2.5701,-2.5717,-2.5889,-2.6178,-2.6584,-2.6961,-2.7371,-2.812,-2.8557,-2.8799,-2.9129,-2.9071,-2.9032,-2.8915,-2.9341,-2.9644,-2.975,-2.9283,-2.8727,-2.8513,-2.8201,-2.8026,-2.789,-2.8365,-2.8936,-2.926,-2.9744,-3.0401,-3.0607,-3.0645,-3.0645,-3.0637,-3.0621,-3.0565,-3.0565,-3.0565,-3.0621,-3.0649,-3.0629,-3.0637,-3.0649,-3.0691,-3.0728,-3.0755,-3.0784,-3.0778,-3.0786,-3.0824,-3.0833,-3.0838,-3.0843,-3.085,-3.0856,-3.0859,-3.0879,-3.0877,-3.0836,-3.054,-2.9757,-2.8539,-2.7459,-2.6444,-2.5705,-2.5703,-2.5698,-2.5671,-2.5662,-2.5655,-2.5648,-2.5656,-2.5648,-2.5639,-2.5605,-2.5604,-2.5574,-2.5562,-2.5525,-2.5499,-2.5483,-2.5453,-2.5432,-2.5379,-2.5313,-2.5243,-2.5201,-2.5176,-2.518,-2.518,-2.5141,-2.4579,-2.406,-2.3583,-2.302,-2.0511,-2.0506,-2.0506,-2.0511,-2.06,-2.108,-2.2114,-2.3247,-2.3731,-2.4394,-2.5132,-2.5155,-2.5347,-2.5642,-2.5662,-2.5662,-2.5642,-2.5642,-2.5658,-2.5655,-2.5652,-2.5644,-2.566,-2.5675,-2.5682,-2.5853,-2.6024,-2.6281,-2.659,-2.7168,-2.7672,-2.8151,-2.8054,-2.8034,-2.8151,-2.8248,-2.817,-2.8443,-2.8508,-2.8256,-2.7919,-2.7543,-2.742,-2.7207,-2.7142,-2.7639,-2.8342,-2.8613,-2.9306,-3.0044,-3.0238,-3.0577,-3.0568,-3.0559,-3.0569,-3.0521,-3.0501,-3.0521,-3.0559,-3.0559,-3.0559,-3.0549,-3.0558,-3.0574,-3.0642,-3.0697,-3.073,-3.0734,-3.0755,-3.0769,-3.0778,-3.0786,-3.0798,-3.0788,-3.0819,-3.0827,-3.0834,-3.0857,-3.0722,-3.0547,-2.9647,-2.8411,-2.7315,-2.6319,-2.5691,-2.5707,-2.5703,-2.5701,-2.5696,-2.5687,-2.5684,-2.5675,-2.5691,-2.5687,-2.5656,-2.5619,-2.5634,-2.5605,-2.5576,-2.5554,-2.5531,-2.5492,-2.5468,-2.5412,-2.5351,-2.5313,-2.5273,-2.5241,-2.5239,-2.5228,-2.5217,-2.4916,-2.448,-2.4038,-2.3408,-2.0472,-2.0492,-2.0515,-2.0484,-2.0482,-2.0541,-2.0983,-2.1629,-2.2466,-2.3416,-2.4156,-2.439,-2.4838,-2.5282,-2.5496,-2.5613,-2.5609,-2.5609,-2.5628,-2.5593,-2.5604,-2.5595,-2.56,-2.5595,-2.5599,-2.5601,-2.5667,-2.5816,-2.5796,-2.6273,-2.6986,-2.7771,-2.7616,-2.7442,-2.7365,-2.7404,-2.7229,-2.6978,-2.7272,-2.7307,-2.6873,-2.6575,-2.6347,-2.5786,-2.5751,-2.6033,-2.6826,-2.7563,-2.8376,-2.9207,-2.9931,-3.0462,-3.0499,-3.0499,-3.0499,-3.0477,-3.0439,-3.0449,-3.0469,-3.0479,-3.0479,-3.049,-3.05,-3.0501,-3.0577,-3.0637,-3.0676,-3.0678,-3.0704,-3.0697,-3.0714,-3.075,-3.0765,-3.0778,-3.0794,-3.0804,-3.0816,-3.0825,-3.0793,-3.0407,-2.9433,-2.8262,-2.7636,-2.6679,-2.5721,-2.5696,-2.5691,-2.5691,-2.5689,-2.5703,-2.5698,-2.5693,-2.569,-2.5687,-2.5681,-2.5671,-2.5687,-2.566,-2.5632,-2.5615,-2.5615,-2.5556,-2.5473,-2.5441,-2.5404,-2.5369,-2.5332,-2.5322,-2.5292,-2.5252,-2.5212,-2.522,-2.4892,-2.4457,-2.3957,-2.0439,-2.0415,-2.0424,-2.0438,-2.0408,-2.0435,-2.0526,-2.072,-2.0931,-2.1939,-2.3257,-2.3957,-2.4423,-2.469,-2.5274,-2.5507,-2.5585,-2.5585,-2.5599,-2.5579,-2.5554,-2.5543,-2.5518,-2.5506,-2.5524,-2.5529,-2.5515,-2.5488,-2.553,-2.5738,-2.5818,-2.605,-2.6185,-2.6292,-2.6273,-2.6281,-2.608,-2.5869,-2.6041,-2.6251,-2.5942,-2.5768,-2.5548,-2.5412,-2.55,-2.5848,-2.6601,-2.7402,-2.829,-2.9178,-3.0046,-3.04,-3.0433,-3.0433,-3.041,-3.0374,-3.0355,-3.0367,-3.0359,-3.0371,-3.0383,-3.0417,-3.0428,-3.0469,-3.051,-3.0577,-3.0621,-3.0637,-3.0634,-3.0637,-3.0639,-3.0698,-3.0716,-3.0739,-3.0755,-3.0774,-3.079,-3.0804,-3.0813,-3.0081,-2.917,-2.8393,-2.7772,-2.6972,-2.6054,-2.5703,-2.5701,-2.5699,-2.5699,-2.5697,-2.5694,-2.5691,-2.5705,-2.5703,-2.5698,-2.5693,-2.5707,-2.5701,-2.5675,-2.5664,-2.5667,-2.5595,-2.5531,-2.5492,-2.5461,-2.5429,-2.5395,-2.5379,-2.5332,-2.5284,-2.5283,-2.5283,-2.5252,-2.4894,-2.446,-2.0352,-2.0353,-2.0354,-2.036,-2.0346,-2.0339,-2.0352,-2.0352,-2.0352,-2.0888,-2.1823,-2.2701,-2.3469,-2.4083,-2.4801,-2.5305,-2.5441,-2.5557,-2.5557,-2.5531,-2.5498,-2.5483,-2.5461,-2.5418,-2.5421,-2.5415,-2.5415,-2.5378,-2.5369,-2.5389,-2.5418,-2.5332,-2.5322,-2.5332,-2.5332,-2.5303,-2.5313,-2.5322,-2.5303,-2.5313,-2.5332,-2.5351,-2.5388,-2.5397,-2.5475,-2.5755,-2.6092,-2.6852,-2.767,-2.8709,-2.969,-3.0294,-3.0374,-3.0362,-3.0349,-3.0318,-3.0305,-3.0312,-3.0305,-3.0299,-3.0311,-3.0336,-3.0348,-3.0379,-3.039,-3.0439,-3.054,-3.055,-3.0577,-3.0557,-3.0582,-3.0614,-3.0649,-3.0671,-3.0698,-3.0736,-3.075,-3.0774,-3.079,-3.0567,-2.9464,-2.8205,-2.7487,-2.6609,-2.5849,-2.5698,-2.5702,-2.5703,-2.5703,-2.5703,-2.5703,-2.5701,-2.5699,-2.5693,-2.5703,-2.5701,-2.5698,-2.5696,-2.5693,-2.5681,-2.5668,-2.5639,-2.5585,-2.5556,-2.5525,-2.5471,-2.5441,-2.5437,-2.5404,-2.5359,-2.536,-2.538,-2.5313,-2.5253,-2.4926,-2.0272,-2.0284,-2.0269,-2.0292,-2.0277,-2.0277,-2.0269,-2.0269,-2.0277,-2.0277,-2.0504,-2.1189,-2.2407,-2.3388,-2.4219,-2.4741,-2.5147,-2.536,-2.5437,-2.5448,-2.5412,-2.5376,-2.535,-2.5312,-2.5303,-2.5313,-2.5303,-2.5293,-2.5283,-2.5292,-2.5262,-2.5212,-2.5212,-2.5212,-2.5212,-2.5212,-2.5222,-2.5233,-2.5233,-2.5222,-2.5243,-2.5303,-2.5322,-2.5341,-2.5322,-2.5311,-2.555,-2.6096,-2.6929,-2.8099,-2.9378,-3.0056,-3.0279,-3.0279,-3.026,-3.0247,-3.024,-3.0245,-3.0259,-3.0259,-3.0253,-3.0247,-3.0266,-3.0279,-3.026,-3.033,-3.0421,-3.0455,-3.0469,-3.0491,-3.0501,-3.0558,-3.0576,-3.0593,-3.0645,-3.0676,-3.0717,-3.0734,-3.0755,-3.075,-2.9652,-2.8298,-2.7407,-2.6507,-2.6005,-2.5837,-2.5707,-2.5693,-2.5696,-2.5697,-2.5698,-2.5701,-2.5703,-2.5702,-2.5696,-2.5691,-2.5691,-2.5689,-2.5687,-2.5698,-2.5684,-2.5668,-2.5632,-2.5634,-2.559,-2.5531,-2.5506,-2.5505,-2.5456,-2.5426,-2.5429,-2.5432,-2.5388,-2.5322,-2.5322,-2.0125,-2.0135,-2.0144,-2.0125,-2.0135,-2.0135,-2.0135,-2.0135,-2.0135,-2.0135,-2.0183,-2.0298,-2.106,-2.2125,-2.3617,-2.433,-2.4552,-2.4956,-2.5264,-2.5332,-2.5313,-2.5283,-2.5243,-2.5222,-2.5201,-2.522,-2.5228,-2.522,-2.5228,-2.522,-2.5212,-2.5201,-2.5201,-2.5201,-2.5201,-2.5201,-2.519,-2.519,-2.519,-2.519,-2.5201,-2.5222,-2.5233,-2.5233,-2.5222,-2.5222,-2.5452,-2.6066,-2.6899,-2.7992,-2.9264,-3.0023,-3.0226,-3.018,-3.0161,-3.0133,-3.0157,-3.0147,-3.0147,-3.0147,-3.0142,-3.0118,-3.0138,-3.0152,-3.0166,-3.0213,-3.0286,-3.0343,-3.0374,-3.0406,-3.0449,-3.0519,-3.0569,-3.0559,-3.0567,-3.0593,-3.0634,-3.0671,-3.0698,-3.0444,-2.9839,-2.8861,-2.8139,-2.7223,-2.633,-2.6107,-2.5729,-2.5718,-2.5681,-2.5681,-2.5698,-2.5685,-2.5691,-2.57,-2.5703,-2.5701,-2.57,-2.5699,-2.5697,-2.5694,-2.5687,-2.5696,-2.5684,-2.5655,-2.5632,-2.5581,-2.5585,-2.5568,-2.5518,-2.5492,-2.5485,-2.5483,-2.5437,-2.5404,-2.5387]}]]